GFSCGP_sfc_30mbdewp_000.txt.gz
Dewpoint
21 15 12 14 14 9 12 11 10 14 22 30 32 34 36 40 40 40 41 42 42 43 44 45 47 48 51 53 53 53 51 49 46 46 44 43 42 45 40 39 38 36 36 36
19 16 18 24 23 19 19 17 21 24 28 30 31 31 33 37 39 40 41 41 41 41 41 41 42 44 47 50 47 45 45 45 44 43 45 46 45 43 40 36 35 36 36 36
17 19 23 24 23 21 24 19 20 24 29 30 29 29 33 36 39 40 40 40 40 41 41 38 38 38 41 41 40 38 39 39 41 44 43 40 40 40 36 37 33 35 35 36
24 27 23 22 23 24 21 25 24 27 26 23 25 24 29 35 38 39 39 40 40 39 37 35 34 33 33 33 34 35 36 36 37 37 37 36 37 35 38 34 32 34 34 34
24 24 23 22 22 26 25 25 24 22 21 21 24 25 26 34 35 37 38 39 39 38 36 36 36 36 37 36 35 36 36 36 36 37 38 37 34 36 35 33 33 33 34 35
25 27 26 25 27 25 27 28 28 28 25 18 23 22 25 31 33 36 37 39 39 39 38 38 39 38 37 36 35 36 37 36 36 35 36 34 34 33 31 33 33 34 34 35
24 24 26 26 26 25 27 25 22 21 21 20 26 24 23 30 33 35 36 37 39 39 39 39 38 37 37 36 35 35 33 32 33 33 33 32 30 30 32 33 34 35 34 35
21 19 23 24 24 23 23 25 21 18 19 22 25 24 25 29 32 35 36 37 38 39 39 38 37 36 36 34 31 31 31 31 32 33 33 34 34 34 35 35 35 35 35 34
22 21 24 24 26 26 23 19 25 24 24 21 24 26 28 32 32 34 35 36 37 37 37 37 36 35 35 36 34 31 31 28 27 27 30 28 28 26 27 30 32 34 36 36
26 18 24 24 27 26 24 26 16 20 10 10 22 24 25 30 31 33 33 34 36 36 36 35 33 33 34 35 36 30 23 19 20 21 22 22 23 26 28 31 31 33 35 35
26 22 22 25 24 23 24 21 24 24 21 9 13 21 27 29 32 31 31 34 35 35 34 32 31 30 29 28 25 21 18 17 19 20 23 24 26 27 27 27 31 32 33 34
29 25 22 21 26 29 25 23 19 5 13 22 19 15 29 29 30 30 33 34 35 34 32 31 29 23 19 19 19 18 18 18 19 21 24 25 27 27 27 27 29 31 30 30
27 24 21 20 21 24 24 27 25 24 25 22 17 11 32 32 32 34 34 34 34 33 32 31 27 19 19 19 19 19 19 17 18 19 21 25 27 28 28 28 27 28 28 29
30 26 19 10 17 22 20 25 25 21 17 18 21 17 29 31 32 34 34 34 33 32 31 29 26 18 18 19 19 19 18 19 20 20 23 25 28 29 30 30 30 30 31 32
28 21 26 27 27 25 20 20 26 22 21 18 19 20 21 30 32 34 34 34 33 32 29 28 23 17 18 19 19 18 18 19 21 21 22 25 29 30 30 31 32 33 33 33
30 23 24 26 30 27 22 22 23 26 25 25 26 24 32 34 34 34 34 33 32 31 29 27 22 15 17 18 17 16 16 18 20 21 22 27 29 30 30 31 32 33 34 30
26 24 17 9 26 22 13 18 21 22 24 24 22 24 34 34 34 34 34 33 32 30 27 25 20 14 13 15 16 14 15 18 20 22 23 27 29 29 29 31 32 32 32 30
26 23 17 14 16 6 12 25 26 24 28 30 30 30 33 34 36 35 35 34 33 30 26 24 21 13 8 13 15 16 16 17 19 21 23 27 29 28 30 30 31 31 31 30
29 23 17 11 13 12 13 27 28 26 23 33 31 33 34 35 35 34 35 34 33 30 26 24 21 10 6 11 14 15 16 18 20 21 23 25 28 28 29 30 30 29 30 27
30 24 15 20 8 1 7 26 31 28 23 33 33 33 34 34 31 32 33 33 31 28 23 17 11 10 11 13 16 18 19 21 21 22 24 26 28 28 28 29 27 27 21 20
32 28 19 17 14 15 18 31 30 21 16 35 35 34 34 33 33 33 33 32 30 25 13 14 14 14 16 19 21 20 21 21 22 23 24 26 27 27 27 25 24 19 21 21
26 24 22 22 19 12 25 30 27 28 30 34 36 35 34 34 33 33 33 29 17 15 16 16 16 17 20 22 22 22 22 23 25 26 26 26 26 26 24 23 19 20 21 17
24 24 19 21 16 25 28 31 32 33 31 35 36 37 37 35 34 35 29 18 16 16 16 17 18 19 19 20 23 23 25 26 26 27 27 26 26 25 24 22 19 19 18 16
31 30 25 27 26 28 31 31 33 35 35 37 38 38 38 37 36 30 19 17 16 16 17 18 18 16 18 22 24 26 26 27 28 28 27 27 26 24 24 21 19 19 18 17
31 33 30 30 31 32 33 36 37 37 40 40 40 39 38 36 30 20 18 18 18 18 19 18 18 20 22 24 26 28 27 28 28 29 29 28 26 25 24 19 19 19 19 18
33 29 27 24 26 28 28 31 38 39 39 41 40 38 33 28 20 20 19 21 21 19 20 19 21 23 24 26 27 27 28 28 28 27 26 27 28 30 29 20 21 22 22 21

GFSCGP_sfc_30mbdewp_003.txt.gz
Dewpoint
21 11 8 11 9 8 9 10 11 15 28 31 32 34 36 40 40 41 42 42 43 45 48 52 55 58 58 57 55 54 52 50 49 46 46 46 45 44 37 36 37 37 38 39
17 15 18 24 21 18 19 18 22 26 29 31 32 35 37 38 40 41 42 42 43 45 47 49 54 57 57 56 56 53 50 45 44 46 47 47 46 41 36 35 37 37 38 37
16 18 24 24 24 22 23 21 22 24 28 29 30 31 36 39 41 42 42 42 43 45 46 48 52 54 53 51 50 50 46 44 44 45 43 41 41 40 37 35 34 35 36 35
24 25 22 22 24 23 20 24 28 27 25 21 24 19 34 38 40 40 40 41 42 40 41 42 43 45 45 40 40 40 40 39 38 40 39 40 37 35 38 34 34 36 38 37
23 23 22 21 23 26 25 28 26 22 21 21 24 22 27 36 38 39 40 40 39 38 36 34 34 34 35 37 38 39 38 37 37 39 37 35 35 36 36 36 38 38 38 38
25 27 25 24 26 26 29 27 27 28 25 18 22 20 24 33 36 38 39 39 38 37 37 37 38 38 37 37 39 39 36 35 35 35 35 35 34 33 34 35 36 36 37 36
23 24 25 26 25 26 27 26 23 21 20 17 26 23 22 29 34 37 37 38 38 39 38 39 38 38 38 38 38 35 33 33 34 34 34 34 34 34 32 31 31 33 31 31
17 18 21 25 24 23 24 25 20 14 18 20 25 23 23 28 32 36 37 38 39 39 40 40 39 37 35 35 34 33 33 30 30 29 26 23 21 18 18 22 24 25 28 30
21 20 24 25 25 25 21 19 26 24 23 21 23 25 27 30 30 35 36 37 38 39 39 39 38 36 34 33 34 32 23 19 19 21 21 23 24 24 24 26 27 27 33 36
24 18 23 25 26 26 23 25 18 21 14 16 19 23 23 29 29 33 35 36 38 37 38 38 36 38 38 36 30 24 18 17 20 22 24 24 26 27 27 27 27 29 33 36
23 22 22 25 23 22 23 20 23 23 21 7 7 14 27 29 30 31 34 36 36 37 37 35 35 36 38 30 22 20 19 20 20 22 25 27 27 28 28 28 29 30 33 35
28 25 23 21 25 28 24 21 19 5 9 20 19 12 28 30 29 33 32 34 36 36 34 33 31 28 25 21 19 20 20 19 20 22 24 26 27 29 28 29 29 31 31 32
27 25 21 19 20 23 23 25 23 23 25 19 15 7 30 32 30 31 32 34 35 34 32 29 22 19 19 20 21 21 20 18 19 19 21 24 27 29 29 29 31 31 32 31
29 25 20 15 14 21 21 26 24 20 14 16 21 17 21 28 30 32 33 34 33 32 31 28 20 17 19 20 21 21 21 21 20 19 20 24 28 29 30 31 31 32 34 34
27 21 24 26 26 24 19 23 23 19 19 16 17 19 20 24 30 32 34 33 32 31 30 28 22 16 18 20 21 20 20 21 22 21 21 24 29 30 30 31 31 32 34 35
30 23 25 25 28 26 22 21 23 25 24 21 23 23 26 31 33 33 33 33 32 31 30 28 23 16 17 20 21 19 19 20 21 22 23 25 29 30 30 30 31 32 33 34
27 25 20 13 24 21 14 17 21 23 25 25 21 23 32 31 32 33 34 33 32 33 31 27 24 18 14 18 19 17 17 19 20 21 22 25 28 29 29 30 29 31 32 33
24 19 17 13 15 4 11 26 24 22 23 25 27 27 31 32 34 34 34 34 34 33 31 28 24 20 14 15 16 17 16 17 18 19 21 24 27 28 29 29 28 31 31 29
27 22 16 12 14 12 10 18 25 24 17 28 27 29 33 35 35 35 35 35 35 34 33 28 24 20 12 11 15 15 15 17 19 21 22 23 26 27 28 28 29 29 27 27
28 23 16 18 8 2 8 20 33 28 21 27 32 32 33 35 32 29 36 36 35 34 31 25 22 11 7 10 14 16 19 21 20 21 23 24 26 28 28 28 28 27 25 19
30 26 20 16 14 15 18 28 30 16 13 30 34 34 34 33 33 34 35 35 35 30 19 16 11 10 13 17 21 21 21 20 21 24 26 26 27 27 28 28 26 23 20 22
22 21 20 20 17 10 24 30 24 25 31 31 35 35 35 35 34 33 33 29 25 19 16 15 16 17 20 22 22 20 20 23 25 26 27 27 28 28 27 26 24 20 21 21
22 26 21 21 17 23 26 31 32 33 31 32 35 36 36 36 34 33 28 21 18 16 16 17 18 20 20 20 22 20 22 27 27 28 27 28 29 28 26 25 22 20 21 20
31 29 26 26 26 27 29 31 32 32 33 34 36 36 38 37 35 31 21 18 17 16 17 19 18 16 17 22 23 25 28 28 28 28 28 29 28 27 25 24 21 20 21 20
30 31 30 29 30 30 30 33 34 34 37 38 39 40 39 38 34 25 20 18 18 24 31 20 17 18 20 24 25 28 28 28 28 28 26 26 27 28 27 23 21 21 20 21
33 29 27 24 26 28 28 29 33 35 36 39 40 39 37 33 26 21 19 24 34 35 22 19 20 22 23 26 27 27 27 29 29 27 26 26 27 27 29 30 25 22 23 21

GFSCGP_sfc_30mbdewp_006.txt.gz
Dewpoint
22 13 9 12 9 9 7 8 6 15 27 26 26 27 30 37 40 41 41 41 42 44 49 52 54 53 54 56 56 55 54 54 53 50 48 45 44 42 39 38 40 39 39 38
17 14 19 23 16 13 11 8 15 22 27 26 27 30 33 35 38 40 41 42 44 47 50 53 55 55 55 54 54 54 53 53 49 47 45 46 45 41 38 38 39 37 37 35
11 22 25 20 19 17 20 15 21 15 26 27 26 28 32 37 39 40 42 43 45 47 50 53 54 55 55 55 55 53 51 46 44 45 43 42 42 40 38 36 35 38 38 37
23 25 22 21 20 23 17 23 22 24 21 14 25 14 31 36 39 40 42 43 46 49 51 52 54 55 55 55 53 48 43 43 41 40 40 40 37 36 37 35 36 38 39 39
23 22 22 20 24 26 24 27 25 23 20 21 21 17 29 35 36 39 42 44 46 48 48 48 48 48 45 44 43 42 40 38 39 39 39 37 36 35 35 35 35 35 34 35
25 27 25 25 28 27 29 26 25 25 22 17 18 19 17 31 32 38 41 41 42 43 41 39 40 38 37 40 41 40 38 37 37 37 38 38 36 31 27 23 20 17 15 16
23 24 25 27 26 28 27 22 16 14 16 15 25 21 16 26 32 38 39 38 40 39 35 34 35 35 37 40 40 38 36 36 37 37 33 28 23 19 16 16 14 16 15 17
15 19 22 26 25 21 25 22 15 12 16 11 25 16 15 27 31 37 38 37 37 36 36 36 36 37 38 39 37 37 36 35 31 26 20 20 19 19 18 21 23 21 21 24
17 19 25 26 26 25 23 21 26 25 26 22 17 21 26 28 29 35 35 35 35 36 37 38 39 38 38 37 38 37 31 25 22 22 22 23 24 26 26 26 24 23 24 26
25 20 24 25 27 27 24 25 21 23 18 15 14 20 17 28 28 32 33 35 34 36 37 39 39 38 37 38 36 30 25 23 23 23 24 24 25 26 26 25 24 24 26 28
25 23 24 26 24 22 23 21 21 23 24 12 6 3 26 27 30 31 34 35 35 36 38 39 38 38 38 36 31 27 24 24 22 22 25 27 26 26 26 25 24 25 27 27
28 27 26 23 26 28 25 21 17 11 14 23 25 8 25 30 31 31 33 35 36 38 39 39 38 39 38 31 27 25 24 23 22 22 24 25 26 26 26 25 25 27 28 28
29 27 23 22 24 25 23 23 20 23 26 19 21 5 26 30 31 31 32 34 36 38 38 37 36 36 32 27 24 25 25 22 19 18 20 22 24 26 26 25 26 27 28 30
29 28 25 21 18 22 23 24 22 17 18 14 17 7 16 23 27 30 32 34 35 37 36 35 32 30 27 24 25 26 25 21 19 18 19 21 25 26 27 27 26 27 29 30
31 26 26 24 25 23 21 21 22 18 18 15 9 14 11 18 22 27 32 34 34 35 34 33 30 27 25 24 26 26 23 22 21 19 19 21 25 27 27 27 26 27 30 30
32 29 29 27 27 25 22 20 22 22 20 21 17 17 19 24 29 31 33 34 33 33 33 32 30 28 25 23 25 23 21 20 20 20 21 22 24 26 27 25 27 26 26 28
33 30 25 21 26 24 21 22 19 20 22 22 17 19 26 28 29 30 32 33 33 33 33 32 32 29 24 22 25 21 19 19 19 19 20 21 23 25 24 24 24 24 25 27
30 27 27 24 19 12 15 24 23 20 20 21 21 24 25 26 31 33 33 33 33 33 33 33 32 29 23 21 23 19 16 17 17 18 19 21 23 22 22 22 24 24 25 25
29 29 22 24 18 16 7 16 19 22 14 23 21 22 27 33 34 33 34 34 35 35 35 35 33 30 25 20 20 17 15 15 17 20 20 17 18 20 20 21 24 25 25 23
29 29 27 22 17 12 17 21 32 29 16 26 29 30 33 34 32 21 35 35 36 36 36 35 32 27 22 19 16 15 13 18 20 18 17 19 20 20 20 22 25 26 25 24
32 30 27 26 25 21 21 27 31 18 18 29 33 33 34 33 30 35 36 36 37 36 36 33 26 21 19 17 14 16 20 21 17 20 22 20 20 21 23 25 26 26 25 23
27 28 27 26 22 17 23 30 25 28 35 33 34 34 35 35 37 36 34 35 36 36 31 26 20 19 16 18 21 20 18 16 21 23 22 22 24 26 26 26 25 26 24 22
27 30 28 26 24 27 28 31 33 35 34 34 34 33 36 36 36 36 33 31 31 28 20 18 19 21 22 22 19 14 15 23 24 24 24 24 26 26 26 26 26 25 23 22
32 31 30 28 26 27 28 30 30 32 33 34 34 34 36 37 36 37 34 27 24 20 18 19 20 18 20 21 20 21 23 25 25 25 25 26 25 27 27 26 25 24 23 23
33 32 31 30 29 29 30 32 33 33 35 37 37 39 39 39 39 37 29 24 20 23 27 27 28 27 21 20 22 24 25 26 25 26 26 25 25 25 26 28 26 24 25 23
33 30 31 28 26 31 30 32 35 36 37 38 40 40 40 39 38 32 24 22 34 32 28 26 22 22 23 24 24 26 26 26 28 27 26 25 27 26 26 26 27 28 24 22

GFSCGP_sfc_30mbdewp_009.txt.gz
Dewpoint
23 19 15 15 13 13 9 2 1 5 9 6 14 15 21 28 29 31 35 39 41 43 46 48 46 46 49 53 54 55 53 53 53 49 47 45 44 43 41 40 41 41 40 39
19 19 19 16 13 9 7 6 8 12 16 21 17 20 23 28 30 33 33 35 38 42 46 48 49 49 51 53 54 54 53 53 48 46 44 45 44 41 39 41 41 39 40 39
16 17 20 16 11 8 8 5 15 14 21 21 17 22 27 29 33 36 37 37 39 43 46 50 51 52 53 54 53 53 51 48 45 45 44 42 41 41 39 38 37 39 40 40
21 22 18 12 11 16 12 19 18 15 19 12 16 13 22 30 32 34 36 39 41 44 47 50 52 52 53 53 53 49 47 45 44 40 41 41 39 37 39 37 38 37 36 34
19 21 15 13 20 22 28 23 20 19 19 15 18 12 31 30 30 32 36 39 41 45 48 50 51 53 51 51 50 46 44 40 40 41 41 39 38 36 35 32 27 22 20 18
21 24 21 22 25 24 26 24 21 18 16 15 12 18 26 27 27 32 37 41 45 47 48 48 48 49 48 47 45 43 39 39 40 41 41 40 34 28 24 22 19 17 17 17
18 19 25 24 22 24 22 19 13 11 13 12 15 17 15 17 27 31 37 41 44 45 43 41 43 40 40 42 42 40 38 39 40 39 34 29 26 24 21 21 20 21 19 20
14 18 21 24 21 18 20 15 14 9 10 8 20 13 10 21 22 28 37 39 42 41 38 37 37 36 38 41 41 38 38 38 36 29 26 26 22 23 22 24 24 21 21 22
14 16 24 25 25 20 17 19 20 19 22 18 12 10 16 26 26 30 37 38 39 38 35 33 35 36 38 40 40 39 38 35 28 28 29 27 26 28 27 26 24 21 22 22
18 16 21 25 26 26 23 22 18 16 12 13 10 11 9 25 26 29 35 36 37 36 34 35 35 38 39 40 39 40 35 28 29 30 28 27 27 27 27 26 24 23 24 25
19 18 23 25 22 16 23 17 18 20 23 17 10 8 18 14 24 28 32 35 36 35 35 36 38 39 40 39 40 36 30 29 30 27 26 27 27 27 26 25 24 24 25 24
20 22 25 22 25 26 24 21 20 17 15 19 23 12 21 25 26 28 30 33 35 35 35 37 39 39 38 39 37 32 30 29 28 26 26 27 28 27 25 25 24 25 25 25
28 21 22 21 24 23 19 20 20 17 24 14 18 11 21 24 27 27 29 32 34 35 35 37 39 39 38 38 34 31 29 28 26 23 24 24 25 26 25 25 25 25 24 25
30 21 21 19 19 21 21 17 19 18 16 14 13 10 13 18 21 23 28 30 33 35 37 38 39 39 39 37 32 29 29 27 24 20 20 21 25 25 25 26 26 24 24 26
31 25 23 24 24 20 18 17 18 16 15 13 13 3 5 10 14 18 23 28 29 34 37 38 38 38 38 35 30 29 30 27 22 20 19 21 24 26 25 26 26 24 25 26
33 28 29 29 25 23 20 18 14 16 16 11 10 10 11 18 20 22 24 29 30 33 35 37 37 36 34 32 29 29 29 25 23 22 22 23 24 23 23 25 25 24 23 23
34 34 28 21 27 26 23 25 20 15 16 15 14 15 22 23 22 24 24 28 30 32 34 35 35 34 32 31 29 29 26 23 22 21 21 22 23 22 23 24 21 21 22 23
36 32 31 23 23 16 15 20 18 19 17 16 16 16 17 21 26 28 29 29 32 32 33 34 34 34 32 31 28 28 23 22 21 20 20 21 21 20 20 20 19 20 22 22
31 31 28 29 18 14 12 12 16 17 14 19 19 17 19 27 31 28 30 31 32 32 33 34 34 35 34 30 26 26 22 20 18 21 20 21 16 16 17 17 18 20 22 22
29 33 26 25 23 18 22 23 29 26 12 21 21 22 23 27 24 23 32 31 31 31 33 34 35 35 34 29 25 24 20 23 23 19 21 17 17 17 16 17 18 20 22 22
32 33 29 27 28 25 21 24 28 16 21 26 28 25 27 27 26 34 36 34 33 33 34 35 36 35 33 28 23 21 27 20 20 20 20 19 17 18 19 20 22 23 23 23
28 30 29 32 30 20 21 26 23 31 29 28 30 29 31 34 33 33 35 34 34 35 35 36 35 31 26 22 23 25 25 23 20 21 20 19 20 22 23 24 24 24 24 24
29 29 29 26 25 28 26 25 27 31 30 30 30 31 31 32 31 33 33 35 33 34 33 30 24 22 25 26 28 28 23 25 23 23 22 23 23 25 24 25 25 25 24 24
31 31 29 28 22 24 25 26 28 29 30 32 33 34 35 35 36 36 36 36 30 28 23 21 23 23 29 34 34 31 23 25 26 26 25 26 26 25 26 26 26 23 23 25
32 31 28 28 25 24 26 28 31 32 35 36 37 37 38 39 37 37 36 30 25 21 23 27 34 34 31 28 23 27 28 27 26 28 28 26 27 27 25 25 26 28 26 24
32 25 31 28 29 32 30 34 37 38 39 41 40 39 36 36 36 34 27 26 31 31 31 32 32 31 27 26 25 27 28 29 29 29 28 28 27 27 27 26 26 28 28 28

GFSCGP_sfc_30mbdewp_012.txt.gz
Dewpoint
24 22 19 16 17 19 15 12 10 9 5 2 13 17 21 24 36 36 38 39 41 42 43 44 43 46 52 54 54 55 56 56 57 53 49 47 45 45 45 43 43 43 42 41
20 18 20 22 19 18 14 11 5 7 8 6 8 15 18 23 25 30 35 39 40 42 43 46 46 46 51 54 54 55 54 55 54 49 50 49 46 44 43 44 43 43 43 41
25 26 19 19 19 16 10 11 14 11 8 10 24 19 17 21 25 27 29 33 38 41 45 47 46 49 52 55 55 55 54 54 49 49 47 45 44 44 43 43 43 42 41 38
30 29 20 17 13 11 19 25 17 19 22 11 24 20 32 31 22 28 31 33 35 39 45 47 50 50 55 55 55 54 52 48 46 44 44 43 42 41 40 40 36 33 29 25
21 19 19 16 18 20 22 23 22 15 16 19 24 21 30 32 30 29 32 35 38 41 45 49 51 54 54 55 54 51 47 43 42 43 43 42 40 39 36 30 27 26 24 26
22 25 23 24 21 21 25 21 22 13 13 19 21 25 27 31 30 33 31 36 39 42 46 49 53 53 53 54 51 47 42 41 43 44 44 38 33 29 28 24 23 25 26 25
20 18 21 21 15 19 18 17 14 17 20 17 14 21 23 31 34 41 42 36 40 45 47 48 52 52 51 50 47 44 41 41 43 42 36 33 29 26 27 25 25 24 24 25
16 14 18 18 14 24 19 10 17 19 24 22 20 17 14 28 35 43 42 40 44 46 47 47 47 48 47 46 45 41 40 41 41 34 31 30 28 27 28 28 26 25 25 26
27 23 24 21 18 19 10 13 16 17 30 21 15 9 6 22 21 25 36 40 43 44 44 43 44 42 43 43 44 41 40 40 35 31 32 31 30 30 29 28 26 25 26 25
37 31 29 22 23 22 22 19 19 18 13 11 9 11 16 23 23 25 34 38 40 42 40 39 39 39 41 43 43 42 40 38 32 33 34 31 31 32 30 28 26 25 27 27
21 30 21 24 21 13 20 17 16 15 19 21 19 13 14 17 20 25 29 38 39 40 39 36 35 37 40 42 42 42 40 33 32 34 32 32 30 31 30 28 26 26 27 27
18 18 20 21 21 21 21 22 16 20 17 23 26 19 18 19 19 23 26 33 38 39 38 36 36 38 40 42 41 42 39 32 33 32 31 31 32 30 29 27 26 26 26 27
23 19 19 20 24 24 21 16 20 20 25 23 20 18 20 20 19 20 23 28 35 37 37 36 37 39 40 41 41 41 36 32 32 31 29 30 31 31 28 27 27 27 27 26
33 23 18 22 19 22 22 18 14 17 22 20 18 13 13 18 20 22 24 26 29 35 36 36 37 40 40 40 41 39 35 33 31 28 27 27 29 28 28 27 28 28 26 26
30 23 21 19 20 24 22 19 18 14 18 16 19 13 11 9 14 16 21 26 26 26 34 35 37 40 40 40 40 37 34 33 31 27 24 25 27 28 28 28 28 28 27 27
32 30 30 29 26 24 22 22 19 16 14 15 13 12 11 21 22 20 20 21 26 26 26 34 37 40 40 40 40 36 33 33 30 27 25 24 25 26 27 27 29 29 28 27
34 35 31 27 27 27 22 25 23 21 17 14 14 16 15 18 20 23 24 24 25 28 30 32 36 39 39 39 39 35 32 32 28 26 24 25 26 27 28 28 26 25 24 26
39 37 32 27 26 16 16 20 18 19 18 16 14 15 15 25 26 23 24 25 27 30 32 33 35 37 38 37 36 33 32 29 27 24 24 26 27 28 26 23 23 23 24 25
35 35 32 29 23 18 18 14 15 15 15 20 21 21 23 25 25 22 32 32 31 31 31 32 33 36 36 35 34 32 31 26 25 23 26 29 29 20 19 20 21 21 23 24
30 37 32 26 25 18 25 23 26 23 15 22 22 23 23 24 26 29 35 36 34 31 30 31 33 35 35 36 34 30 27 24 25 29 27 23 28 22 21 23 22 24 25 25
34 33 27 30 28 29 23 24 24 17 25 29 29 27 28 29 32 34 34 35 35 33 34 35 35 36 35 34 29 27 25 27 26 27 32 34 28 24 23 24 26 27 26 27
30 34 31 35 33 24 23 24 24 33 31 29 29 30 31 32 33 33 33 33 34 34 34 36 28 25 25 28 25 26 29 31 30 34 35 28 26 26 25 27 27 28 27 27
29 31 32 31 31 30 24 25 26 28 29 30 30 31 33 34 35 35 36 36 35 32 28 24 26 26 29 30 31 29 33 35 35 33 28 29 28 27 27 27 27 28 28 27
31 32 31 28 21 24 25 26 27 28 30 32 34 36 37 37 39 37 37 33 23 22 23 24 27 34 35 36 35 33 34 30 30 30 31 30 30 29 27 27 26 26 29 28
34 31 28 27 28 26 25 33 34 35 36 38 40 39 37 37 37 37 29 24 24 30 32 33 32 31 30 30 31 31 31 30 30 30 30 30 29 29 29 28 26 27 28 29
33 29 29 31 35 35 34 38 40 39 37 36 35 33 32 32 30 32 31 31 32 33 33 33 33 32 31 30 29 29 29 29 30 31 30 31 30 30 29 29 28 28 28 28

GFSCGP_sfc_30mbdewp_015.txt.gz
Dewpoint
26 22 22 22 22 19 17 13 18 20 19 15 11 22 34 38 37 35 42 46 46 40 41 43 50 52 53 55 57 57 56 53 57 52 50 49 46 44 43 43 42 43 43 44
24 21 21 21 21 20 19 19 17 14 8 3 18 19 25 37 37 36 44 45 47 42 41 41 49 52 53 55 56 56 56 55 56 51 49 48 45 43 42 44 43 42 41 41
22 21 26 22 21 19 20 21 18 14 11 14 19 22 25 28 35 42 45 47 46 43 43 44 47 53 53 54 55 55 55 54 54 50 48 45 44 45 44 44 43 40 29 24
25 24 24 24 22 20 19 21 23 18 18 15 18 21 28 26 26 30 38 41 42 42 46 46 47 53 54 55 55 55 54 51 49 45 43 41 42 41 42 37 31 25 25 24
22 25 24 24 22 22 18 20 21 23 18 24 22 22 28 29 25 28 32 34 39 45 47 47 49 54 55 57 56 55 48 45 45 44 43 43 41 33 30 27 25 23 26 27
22 25 27 25 21 21 23 20 20 22 22 20 23 20 26 29 27 30 33 33 38 45 47 49 52 55 55 56 54 46 43 43 45 44 41 38 31 27 24 24 24 23 26 28
23 20 27 28 22 24 25 24 19 16 18 19 28 24 22 31 30 30 32 33 39 44 48 52 53 53 54 53 46 42 43 44 40 36 32 30 28 26 23 24 25 24 24 27
20 21 24 23 18 21 21 21 19 14 21 24 30 24 24 25 33 34 35 35 38 46 49 52 52 52 51 47 42 41 43 43 37 33 30 28 28 27 27 27 26 27 26 27
24 24 31 28 29 23 19 19 24 28 32 30 27 22 25 31 33 37 37 38 41 46 48 52 52 49 46 44 42 41 42 41 35 31 31 29 29 30 28 28 27 27 27 25
33 24 33 29 32 24 22 22 19 24 21 17 12 17 21 25 28 35 38 37 45 47 48 49 48 46 45 44 43 41 41 38 32 31 31 30 31 31 30 28 26 26 27 27
34 28 30 32 27 20 21 19 17 19 21 16 19 17 18 20 24 34 37 41 44 44 44 44 43 44 44 44 43 42 40 35 32 34 32 32 31 32 30 29 27 27 27 27
31 31 28 26 25 23 21 20 23 16 15 25 24 21 21 19 21 25 31 40 43 43 41 40 40 41 43 43 43 42 40 33 34 34 33 32 32 31 30 29 28 27 26 28
29 21 16 19 25 26 21 19 17 27 28 20 18 18 22 20 19 21 23 30 40 41 40 38 37 39 42 42 42 42 38 33 34 32 32 33 32 32 30 29 27 28 27 26
31 26 19 16 20 24 23 22 21 19 20 19 21 20 17 18 20 22 23 24 33 40 39 37 36 39 42 42 42 42 38 34 33 32 31 32 32 32 31 29 28 28 27 26
30 24 23 24 28 26 24 24 24 16 20 17 17 19 20 19 22 22 26 25 25 28 32 37 37 40 41 42 42 41 39 35 33 31 29 30 32 33 29 29 29 29 29 27
32 29 30 27 29 28 24 25 24 24 21 18 18 18 19 22 22 22 23 24 26 27 28 31 40 41 41 42 42 41 38 35 32 28 26 29 31 30 28 29 29 29 29 29
32 32 29 25 26 24 21 22 23 23 24 23 18 17 22 25 24 23 24 25 28 28 31 33 37 41 41 42 42 40 36 34 30 28 28 30 28 29 31 31 30 29 29 29
35 34 31 26 25 19 22 23 18 20 22 22 23 25 24 24 30 33 32 31 30 32 32 32 34 37 41 42 42 38 35 32 29 28 28 30 31 32 30 31 30 27 27 26
40 32 32 24 21 23 19 20 21 17 20 24 24 25 25 26 29 34 35 34 34 33 32 32 33 35 37 38 39 35 32 29 28 29 30 33 31 31 31 29 28 29 28 26
32 35 25 32 22 14 23 25 25 23 21 29 27 27 29 28 26 33 35 35 34 34 35 33 31 31 36 37 35 30 28 29 30 31 34 32 31 30 27 28 30 29 28 27
30 30 27 27 21 26 31 25 24 12 23 29 29 31 31 31 34 34 35 35 35 31 28 27 30 31 32 30 29 28 30 32 34 35 34 33 34 32 30 29 29 28 28 28
28 29 26 34 30 23 27 24 17 32 31 30 30 31 31 33 36 37 37 34 29 27 27 29 31 31 31 32 32 33 34 34 34 34 33 34 33 31 29 28 28 28 28 28
29 33 30 31 29 32 25 27 32 30 29 30 33 37 37 39 39 37 24 24 24 26 31 34 34 35 35 34 34 33 33 33 34 35 35 33 32 31 29 29 27 27 28 28
32 33 31 29 27 28 25 26 31 35 38 41 39 38 39 38 35 25 24 27 30 32 34 34 33 31 31 32 33 34 34 33 33 31 32 32 31 30 30 29 28 27 27 27
35 31 29 29 27 36 39 40 41 39 39 34 34 34 33 30 27 29 32 31 32 31 31 31 31 30 30 32 32 32 31 30 30 30 31 31 31 31 30 29 29 28 27 27
34 32 28 27 37 37 38 38 36 35 34 35 35 34 34 34 33 33 33 33 34 34 34 33 32 31 31 31 29 29 29 29 30 30 30 30 30 30 30 29 29 29 29 27

GFSCGP_sfc_30mbdewp_018.txt.gz
Dewpoint
27 22 21 22 23 23 20 18 18 21 21 19 24 35 39 39 40 41 43 43 44 46 48 52 53 53 53 53 57 57 54 54 55 52 48 46 46 44 44 43 44 43 42 41
24 21 23 24 22 21 20 18 18 21 20 13 19 34 36 39 39 40 42 43 42 43 45 51 52 52 52 55 57 56 53 55 54 50 49 47 44 43 43 43 42 42 41 41
21 20 24 24 21 21 20 20 21 19 12 21 22 24 33 37 38 39 43 42 42 43 43 49 51 52 53 56 57 56 53 55 55 51 49 45 44 44 43 43 43 33 26 27
22 25 22 23 23 23 20 21 22 21 16 11 18 17 28 32 31 38 38 44 40 46 42 46 51 52 53 56 57 56 55 54 56 50 47 43 41 41 42 41 31 26 26 29
22 26 24 22 22 23 21 23 21 23 22 21 23 20 20 32 24 34 39 42 42 45 42 43 51 52 53 56 56 56 55 54 52 49 47 43 42 42 39 29 25 26 28 31
21 26 24 22 23 24 24 20 25 24 24 19 25 21 20 27 24 23 32 41 43 43 44 47 52 53 53 56 56 56 50 49 47 45 44 43 39 35 27 25 23 26 30 30
22 21 27 28 24 24 25 24 18 15 17 15 28 23 22 24 29 29 28 34 40 42 47 50 53 54 55 56 53 47 45 45 45 43 42 37 32 27 25 24 25 26 27 28
18 19 25 29 24 22 23 21 16 13 15 18 30 24 23 27 29 31 31 36 43 46 49 51 54 54 55 54 48 45 44 42 40 38 37 31 28 27 26 27 27 27 27 27
21 22 32 29 31 29 20 17 24 26 31 25 25 26 19 31 31 32 34 37 41 47 50 51 53 53 53 48 44 45 43 38 37 35 33 31 30 29 28 28 28 27 28 28
26 22 31 29 27 28 25 22 19 25 17 17 15 18 21 27 28 31 36 36 37 47 50 52 52 51 49 43 42 43 42 38 39 35 32 32 31 30 29 28 27 28 28 27
32 25 27 30 25 20 23 21 19 22 21 14 16 16 18 25 27 29 31 37 37 46 49 51 50 49 46 43 42 42 41 38 37 37 33 31 30 30 29 27 28 28 27 28
30 28 24 23 28 23 26 24 20 15 14 25 23 20 24 20 23 30 34 38 40 46 48 49 49 47 45 43 42 41 41 38 37 33 31 31 33 32 30 28 29 28 27 28
31 26 21 23 25 27 24 21 23 25 24 18 16 18 23 20 19 22 28 37 41 45 45 46 46 46 45 44 43 41 40 36 33 32 33 34 33 31 30 30 29 29 28 27
29 24 17 17 21 25 24 24 22 23 20 20 21 19 21 20 19 20 24 31 40 43 43 41 42 44 45 45 44 43 39 35 35 33 33 33 33 32 31 30 29 28 28 27
28 22 24 23 28 27 24 24 24 22 21 18 18 21 18 19 20 21 24 26 33 40 40 39 38 38 41 43 43 43 37 37 35 34 34 34 33 34 33 30 29 29 29 28
33 22 29 24 28 27 24 24 24 24 23 22 21 19 22 23 25 25 26 27 27 28 30 34 35 38 40 42 43 43 38 37 35 34 33 33 35 33 31 30 30 29 30 30
31 29 26 21 26 24 22 22 21 22 24 23 20 21 25 27 28 27 28 30 30 32 33 35 40 41 41 43 43 43 41 38 35 33 32 35 32 31 32 31 30 31 31 32
32 30 28 24 24 21 25 25 24 23 23 24 23 25 30 32 34 33 32 31 32 32 33 33 34 41 42 43 43 43 40 35 32 32 32 32 33 32 33 32 31 32 32 29
39 32 29 24 22 24 22 19 18 18 23 25 25 26 31 34 33 33 35 34 34 34 34 31 32 33 37 42 42 37 33 30 30 32 33 33 33 31 32 33 33 32 31 29
36 33 28 31 21 19 21 25 25 24 23 28 28 28 28 28 26 32 35 35 32 29 30 31 31 30 30 33 32 30 31 32 33 32 32 32 33 33 34 34 34 33 29 28
29 31 27 25 22 18 25 27 23 11 16 30 31 31 31 30 33 36 32 28 28 30 31 31 32 31 30 32 33 33 33 34 34 35 35 36 36 37 36 34 32 29 28 29
25 29 29 30 24 19 31 24 20 24 32 30 31 32 36 38 33 29 27 27 29 31 32 33 32 32 33 33 33 33 33 34 35 36 37 38 37 36 33 29 28 28 28 27
24 26 24 27 24 30 27 28 34 32 30 31 36 38 39 36 27 26 26 30 33 33 33 33 33 33 34 33 32 32 33 35 36 36 37 36 33 32 31 30 29 28 27 27
33 36 32 32 30 32 30 35 35 38 38 39 39 39 37 28 26 30 32 32 33 33 32 31 31 31 32 33 33 33 33 32 31 31 31 31 31 31 31 30 30 28 27 27
33 32 31 30 38 38 40 40 38 35 35 34 34 31 28 30 31 31 31 31 31 32 32 31 31 31 31 31 31 31 30 30 29 29 30 30 30 29 30 30 29 29 29 28
33 31 28 26 33 35 38 37 36 35 35 34 33 33 34 33 32 33 34 34 33 33 33 32 31 31 30 29 28 28 29 29 29 29 29 29 29 28 28 29 29 29 30 30

GFSCGP_sfc_30mbdewp_021.txt.gz
Dewpoint
26 22 21 21 23 23 22 19 18 20 21 23 27 37 41 42 44 45 47 49 51 53 55 56 57 55 57 55 56 57 55 54 55 51 49 46 45 45 45 44 43 45 44 42
24 21 22 25 24 23 21 19 19 21 20 19 21 34 39 41 42 44 46 47 48 51 51 55 54 54 54 54 56 56 54 54 54 50 47 46 45 44 43 44 43 42 42 41
23 20 24 23 22 21 21 20 20 21 18 22 24 30 38 39 39 41 44 46 46 48 49 53 53 53 53 53 56 55 54 54 54 50 47 45 44 43 43 42 42 38 34 31
23 24 22 21 20 22 20 23 22 21 16 17 20 21 30 36 38 38 40 43 43 45 47 52 52 52 52 53 56 56 54 55 54 50 46 44 42 41 42 42 33 27 31 31
21 24 23 21 19 24 21 23 23 22 23 21 23 19 21 31 36 37 36 39 43 43 44 49 52 52 52 53 55 57 54 54 55 50 47 44 44 43 41 33 26 28 32 32
21 26 26 22 23 24 24 22 25 25 24 17 22 22 19 29 32 36 34 37 39 43 45 45 51 52 53 55 56 57 55 54 55 51 48 45 45 42 36 27 25 28 31 30
23 22 27 28 23 24 25 22 17 15 16 15 27 23 21 23 27 28 27 32 40 43 45 44 50 51 52 55 56 56 55 55 54 52 48 45 44 40 33 26 27 29 28 27
17 17 24 28 24 23 23 21 16 12 14 15 29 21 20 27 29 31 31 31 34 43 44 47 50 52 53 54 56 56 52 50 48 48 46 42 38 34 28 27 28 28 28 28
19 19 30 30 31 26 21 19 23 25 30 24 21 26 22 24 30 33 33 37 39 41 46 48 51 53 53 54 54 53 50 48 45 44 40 37 34 32 28 28 29 28 29 29
23 19 30 30 30 29 23 27 19 24 17 16 19 17 17 25 26 33 35 34 39 46 48 51 52 53 54 55 52 49 47 45 43 41 39 37 34 32 30 29 28 28 29 30
30 22 22 29 24 21 24 21 21 22 22 14 14 16 20 24 21 26 28 36 37 45 49 51 53 53 54 52 47 47 43 41 40 39 39 39 34 33 31 29 29 30 30 30
28 22 17 19 27 29 25 23 21 18 16 24 22 18 23 21 21 24 26 32 38 40 48 51 52 51 49 46 45 45 42 41 39 38 37 36 35 33 30 29 32 31 28 29
30 24 17 19 24 27 25 24 26 25 23 20 18 15 22 23 20 20 26 29 35 41 46 50 50 49 48 46 44 44 43 41 40 40 38 35 32 31 31 33 31 30 29 29
27 25 18 16 19 25 23 24 24 24 19 18 19 18 19 21 21 21 21 27 34 42 45 47 48 48 47 46 44 43 44 42 41 39 37 35 33 32 33 30 30 30 30 29
28 22 21 21 22 27 24 24 24 22 21 19 20 21 22 22 21 21 22 26 35 41 43 43 45 46 46 46 46 45 43 40 39 38 37 34 36 35 32 32 31 31 30 28
31 23 25 25 28 27 24 25 25 25 23 22 22 20 23 24 26 26 26 27 30 32 35 38 40 41 41 43 45 45 42 40 39 37 35 36 36 34 34 32 31 31 31 30
28 26 24 19 27 25 22 23 22 22 23 23 20 22 26 26 28 30 31 32 32 32 33 34 37 40 40 40 43 43 41 40 38 36 36 36 37 34 32 31 32 32 33 36
29 26 26 18 24 17 21 27 24 23 23 24 24 26 30 30 32 32 32 32 33 33 33 33 33 34 39 43 43 44 40 38 36 36 35 35 33 33 33 32 33 34 36 35
35 29 25 23 22 23 24 22 22 21 22 26 28 31 33 34 33 34 35 35 33 31 31 31 31 31 35 40 39 36 33 33 34 34 34 33 34 33 34 35 36 37 36 35
33 33 28 26 23 22 24 25 25 25 21 27 30 32 32 29 21 31 35 30 30 31 31 32 31 31 31 32 32 33 33 33 32 33 33 34 35 37 37 38 37 36 34 30
32 30 29 28 26 23 23 27 23 17 16 28 30 30 30 27 30 33 30 30 32 32 32 33 33 33 33 34 34 33 33 34 34 36 37 38 38 38 38 37 37 34 30 29
29 30 29 26 23 23 27 27 18 21 32 31 32 32 34 36 32 29 29 31 32 32 32 32 32 32 33 33 33 33 33 35 36 37 38 39 39 38 37 35 31 29 28 28
23 28 28 28 26 28 31 25 27 32 31 31 32 37 36 31 28 29 31 32 32 32 32 33 33 33 33 34 34 34 35 36 37 37 37 37 36 34 32 31 30 29 29 27
32 34 27 28 31 33 32 36 35 33 33 37 39 39 31 28 29 31 32 32 31 31 30 31 31 32 32 32 32 32 31 31 30 30 30 30 30 30 30 30 30 30 29 27
32 34 33 32 38 38 38 38 36 36 36 35 33 30 29 31 31 31 31 31 31 31 31 31 31 30 30 30 30 30 29 29 29 29 29 29 29 29 28 28 28 29 29 29
34 32 30 29 35 32 36 37 36 35 34 33 31 32 32 31 31 32 32 32 32 32 31 30 30 29 28 29 29 31 31 30 30 29 29 29 29 28 28 28 28 29 30 30

GFSCGP_sfc_30mbdewp_024.txt.gz
Dewpoint
26 23 21 19 22 22 23 19 17 21 22 29 31 38 40 46 47 48 50 52 54 54 54 54 55 57 58 58 57 57 56 55 55 53 53 52 51 48 47 46 46 47 45 44
25 22 22 23 24 23 22 19 19 21 19 21 27 32 41 43 46 46 48 50 52 54 54 54 55 56 57 57 56 56 56 55 54 53 49 48 47 45 44 44 44 45 43 42
23 21 24 24 22 21 21 20 20 20 20 24 28 32 39 40 42 43 45 48 50 52 53 54 55 55 56 56 56 56 55 54 53 51 46 45 44 44 43 42 42 41 39 36
22 24 23 21 21 22 17 23 22 22 17 16 21 13 32 38 40 39 43 45 47 48 51 53 54 54 54 55 56 56 55 54 54 49 46 44 43 42 42 42 37 32 32 31
18 22 23 21 20 22 19 24 23 23 21 21 22 17 19 32 37 39 39 41 45 46 48 50 54 54 54 54 55 56 55 54 54 49 46 45 43 43 42 38 30 31 32 32
22 25 26 24 23 23 24 22 24 25 24 17 20 21 19 24 32 37 39 39 41 44 45 48 52 53 53 53 54 56 55 54 54 51 48 45 45 42 40 34 29 31 31 33
22 21 26 28 22 25 24 22 18 16 16 14 27 23 20 21 25 32 35 38 38 41 44 45 50 52 52 53 54 56 55 54 55 53 50 46 46 43 40 34 32 31 30 32
18 17 22 27 23 21 23 22 18 12 13 15 28 19 16 25 28 28 30 31 35 38 43 44 47 51 52 53 54 55 56 55 55 55 52 48 47 44 41 36 32 31 29 30
18 17 28 29 30 26 22 19 22 23 29 24 20 23 22 22 28 32 32 33 32 39 42 44 45 50 52 53 54 55 56 55 55 54 51 47 46 44 39 37 33 32 29 31
20 17 29 29 30 29 23 27 20 23 16 16 18 19 14 15 23 30 33 33 36 42 43 45 47 50 52 53 54 55 56 54 52 51 48 46 44 43 40 36 32 31 32 32
25 19 20 30 25 22 24 22 22 22 21 14 12 15 21 19 23 23 26 32 35 39 45 47 49 51 52 53 54 54 54 52 47 47 46 44 42 42 38 34 32 32 32 31
27 22 16 19 26 29 24 22 22 18 17 22 20 16 21 21 22 21 22 27 34 37 45 49 51 52 53 53 53 51 49 47 47 46 44 43 40 37 34 32 31 31 31 32
27 20 15 15 20 27 25 25 25 24 23 20 18 18 21 23 22 22 20 24 32 38 41 49 51 51 52 49 49 48 47 45 43 43 43 41 39 35 33 31 32 33 32 31
26 23 15 12 13 22 22 24 26 24 21 20 21 20 20 19 22 22 21 22 28 38 42 46 49 50 48 47 47 47 46 44 43 43 41 41 40 36 34 33 34 32 31 30
24 18 21 18 21 25 24 22 25 23 23 21 21 21 21 22 23 22 23 28 37 40 43 44 46 47 48 48 47 46 45 44 43 42 41 40 39 36 34 33 32 32 31 30
30 23 23 22 27 27 25 25 25 24 24 23 22 21 23 24 26 26 27 32 34 36 37 38 40 40 41 44 47 46 44 43 42 41 40 39 37 35 34 33 32 31 30 30
27 25 23 20 27 25 23 24 24 25 25 24 22 23 24 26 29 29 31 32 32 32 32 33 34 36 39 42 43 44 44 41 40 40 39 38 37 35 34 32 31 31 32 36
27 25 24 20 23 18 22 27 25 24 23 24 24 24 26 29 31 32 33 33 33 31 32 31 32 34 38 42 43 41 40 39 38 37 37 36 35 34 33 33 35 36 37 38
32 26 22 19 20 21 22 24 23 22 20 25 24 29 31 33 34 34 33 32 31 32 31 31 31 32 33 34 34 35 34 35 35 35 34 34 34 35 35 36 37 38 39 38
32 30 23 23 20 19 22 25 25 24 18 27 30 32 33 31 24 32 31 31 31 32 32 33 33 33 33 33 33 33 33 33 33 34 35 36 37 38 38 38 38 38 37 36
32 30 25 24 24 26 27 25 24 18 19 27 32 33 32 26 27 32 31 32 32 32 32 33 33 33 33 34 34 33 34 34 36 37 38 39 39 39 39 38 38 37 35 34
31 31 29 27 27 26 26 25 21 23 27 30 32 33 31 33 31 31 31 31 31 31 32 32 32 32 33 34 34 34 35 37 38 38 38 39 39 38 38 36 35 32 30 28
28 30 28 29 28 30 29 26 26 28 29 31 32 34 34 31 30 31 31 31 31 31 32 32 32 33 33 34 35 34 34 36 35 34 33 32 31 31 31 30 29 29 29 28
31 31 27 29 30 30 32 33 33 33 31 33 35 36 33 30 31 31 31 30 30 31 31 32 31 30 30 30 30 30 29 29 29 28 29 29 29 29 29 29 28 28 28 27
31 33 31 29 35 37 36 37 35 35 36 35 34 31 30 31 31 31 30 30 30 31 31 30 29 29 28 29 30 30 30 30 29 29 28 27 27 26 26 27 28 28 28 29
34 31 29 25 31 28 28 36 36 35 34 33 32 31 31 31 30 31 30 31 31 30 30 29 28 29 30 30 29 29 29 27 25 25 25 25 25 25 25 25 23 25 27 27

GFSCGP_sfc_30mbdewp_027.txt.gz
Dewpoint
27 25 22 20 22 21 23 20 18 21 23 30 32 36 44 50 51 51 52 53 51 49 50 53 54 55 55 57 57 57 57 59 58 56 55 56 56 55 55 54 53 51 47 46
25 23 23 23 23 23 23 20 19 22 20 26 27 32 41 46 48 49 50 52 52 51 52 54 54 55 56 56 57 58 57 58 58 56 55 56 55 52 52 49 50 49 47 45
23 21 24 23 24 23 22 20 21 21 21 26 28 26 38 41 46 46 47 50 51 53 53 54 54 55 55 56 58 58 57 57 57 56 52 50 51 48 46 45 46 46 45 44
23 24 23 23 22 23 19 23 23 22 19 16 22 13 24 39 40 41 44 45 48 51 53 53 54 54 55 56 58 58 57 56 56 54 52 51 53 50 47 45 44 43 42 39
19 22 24 22 21 23 20 25 23 23 20 22 22 17 17 33 38 39 41 43 45 48 50 52 54 54 55 56 57 58 57 56 56 53 52 52 51 50 47 43 40 38 37 35
21 25 26 24 24 23 25 24 24 25 24 17 21 20 18 23 30 35 40 42 43 45 48 50 53 54 55 56 57 58 57 56 55 53 51 50 49 47 44 40 38 36 34 35
21 22 26 28 23 26 24 22 19 16 17 14 26 24 21 22 25 29 32 40 42 43 46 48 50 52 54 55 56 57 57 56 55 54 52 51 49 46 45 41 39 37 36 36
17 16 23 27 23 21 24 22 19 12 14 15 27 21 16 24 28 29 30 32 36 41 43 45 47 51 53 54 55 56 56 56 55 54 53 50 49 47 47 44 40 37 37 37
19 17 25 29 30 24 23 22 24 23 29 23 20 22 22 20 24 31 33 34 34 34 40 44 46 49 52 53 54 55 56 56 55 55 55 53 51 50 48 46 42 41 38 36
21 16 28 30 30 29 23 26 22 23 16 15 18 20 17 18 17 23 28 32 34 39 39 43 45 47 51 53 54 55 55 55 56 56 56 54 52 51 49 45 42 40 37 34
23 18 21 29 27 25 25 23 23 24 22 15 14 15 21 19 20 24 23 27 35 36 42 44 45 47 49 52 53 55 55 55 55 55 55 53 51 50 48 45 43 39 36 36
25 22 17 21 26 27 26 24 24 19 18 22 21 18 21 23 23 24 23 25 33 37 39 47 48 50 51 52 53 54 55 55 54 52 53 52 51 49 46 44 41 38 37 36
26 21 16 17 21 27 26 25 24 25 25 21 19 19 22 23 23 25 24 23 25 33 39 46 50 51 52 53 52 52 52 52 51 50 49 48 48 46 45 44 41 38 35 34
26 22 17 16 17 19 21 24 26 23 21 22 22 21 22 23 22 22 25 25 26 38 42 45 49 50 50 50 51 51 50 48 46 47 47 46 46 44 43 41 37 35 35 33
24 18 20 18 18 20 19 20 25 23 23 21 22 22 23 24 24 24 25 33 39 41 42 44 46 49 49 49 49 48 48 47 46 45 45 45 45 43 40 36 35 35 33 32
29 21 22 19 24 23 21 24 25 25 24 24 23 23 24 25 26 26 30 36 36 36 36 38 40 41 42 43 46 48 47 46 45 44 43 43 42 39 37 36 35 34 33 32
28 25 23 18 26 25 23 25 25 25 26 25 22 24 25 25 27 28 34 33 33 32 33 34 36 39 42 43 44 45 45 43 43 42 42 40 39 37 36 35 34 32 32 34
28 26 25 21 24 20 23 27 26 25 25 26 25 25 25 28 32 33 33 33 32 32 32 33 34 35 36 38 39 39 40 40 39 38 38 38 37 36 34 34 36 38 39 40
31 27 23 22 22 22 21 24 23 21 19 24 24 26 29 34 34 33 32 33 32 32 32 33 34 34 35 35 36 36 36 36 36 35 35 35 35 35 36 37 39 39 39 39
31 29 25 23 19 18 22 24 27 24 20 24 25 29 32 33 29 32 32 32 32 33 33 33 34 34 34 34 34 34 34 35 35 36 36 37 37 37 38 38 39 39 39 38
30 28 24 23 22 24 27 26 25 21 23 26 29 32 34 30 30 34 32 32 33 33 33 33 34 34 34 35 35 35 35 36 37 38 38 38 38 38 39 39 38 37 36 35
30 27 26 26 24 22 28 25 23 27 27 29 33 35 34 32 32 32 32 32 32 32 32 33 33 33 34 35 35 35 37 38 38 38 37 36 36 35 35 34 33 32 31 31
30 30 28 29 27 33 28 28 28 28 27 31 34 35 34 32 32 32 31 31 31 31 32 33 33 33 33 33 34 33 32 31 29 29 29 29 29 29 29 29 29 29 29 29
31 32 29 29 30 31 30 31 33 32 31 33 35 35 33 32 32 31 31 31 31 31 32 31 30 29 28 29 30 29 29 30 30 29 28 27 26 26 25 25 25 24 25 25
31 31 29 29 29 36 35 35 34 34 37 35 35 34 32 32 31 31 30 30 31 31 29 28 28 29 30 29 29 28 28 28 26 24 23 22 21 19 18 18 19 19 20 23
34 30 28 26 27 27 28 35 36 35 34 34 33 32 32 32 31 30 30 31 30 29 28 29 29 29 27 25 24 24 23 22 21 19 18 19 19 19 17 16 14 18 19 20

GFSCGP_sfc_30mbdewp_030.txt.gz
Dewpoint
30 25 18 14 17 21 21 17 15 19 26 28 27 27 38 46 48 48 47 45 44 44 46 49 52 53 53 54 53 54 54 56 58 56 52 50 54 57 59 59 57 55 52 50
26 21 18 22 21 22 22 18 17 20 22 23 23 24 34 43 46 47 47 48 46 45 45 48 49 50 51 53 55 55 55 56 57 54 51 51 53 56 58 58 57 55 52 50
22 20 25 23 23 22 22 18 20 19 22 22 23 20 30 38 44 46 47 47 47 44 45 47 49 50 51 51 53 53 54 55 56 54 51 55 56 56 57 56 56 55 52 50
24 23 23 22 20 22 19 21 22 22 19 14 22 11 21 29 38 44 44 46 46 45 45 46 50 51 52 52 52 53 53 54 56 56 53 54 53 53 55 56 55 52 51 49
20 21 22 21 19 22 19 24 22 22 19 20 20 13 18 29 31 33 39 42 45 45 44 46 47 50 53 53 53 55 55 55 55 56 55 54 54 54 54 54 51 50 48 47
19 24 23 20 24 23 26 24 25 24 22 16 18 16 12 17 20 22 30 36 41 43 44 45 47 49 50 53 54 55 56 55 55 56 57 55 54 55 54 51 48 46 44 43
19 20 22 25 21 25 24 20 16 16 17 15 23 21 15 17 19 24 26 27 36 40 43 45 46 48 50 52 54 55 56 55 55 56 57 57 56 56 54 51 48 45 43 41
16 15 20 25 22 21 22 18 16 15 15 13 24 17 16 20 25 26 29 30 30 37 41 44 46 47 49 52 54 56 55 55 55 56 56 56 56 55 53 51 48 46 43 42
16 14 22 27 27 24 24 20 21 22 28 18 16 18 19 19 18 29 30 32 33 33 33 38 42 46 49 51 54 56 55 56 55 56 57 56 56 55 53 51 49 48 44 42
20 15 22 28 29 28 25 25 20 22 17 14 14 15 11 14 15 20 20 25 29 35 37 37 40 42 46 50 52 55 56 55 55 56 57 57 56 55 54 52 49 46 44 42
18 17 25 29 26 21 25 22 23 23 21 14 12 13 17 16 17 19 21 26 29 33 37 42 42 43 44 48 51 53 55 55 55 56 57 57 57 56 53 52 50 48 47 43
21 20 16 17 26 28 23 20 23 20 19 23 24 16 18 20 21 25 25 25 29 35 37 43 45 46 47 49 50 51 53 53 54 55 56 57 57 55 54 53 52 49 47 41
25 21 17 15 22 27 24 24 24 26 26 18 19 16 23 23 24 24 25 26 26 29 36 43 48 48 49 50 51 52 53 53 54 55 54 55 55 54 53 51 49 46 42 41
26 18 16 14 13 16 22 22 24 23 20 17 18 15 18 20 21 22 25 27 26 34 39 41 47 49 50 51 52 53 53 54 53 52 52 52 52 52 51 50 48 46 43 41
26 17 18 16 15 15 15 15 19 20 19 15 17 18 20 19 22 25 27 30 34 39 42 45 46 49 50 51 51 51 52 51 50 49 49 49 50 49 48 47 46 44 42 38
29 19 22 20 19 19 17 17 16 17 16 15 20 19 22 23 27 26 28 33 36 39 41 42 42 42 42 44 46 48 48 48 47 47 46 46 46 44 43 41 39 37 35 34
29 25 23 17 25 24 22 23 19 19 20 20 19 23 22 25 26 27 32 34 35 35 36 37 39 41 42 43 44 44 44 45 45 44 43 43 42 41 40 38 35 34 33 35
32 29 29 21 27 23 20 27 23 21 20 24 25 24 24 24 28 31 34 34 33 33 34 36 37 38 39 40 40 41 40 41 40 40 40 40 40 38 36 35 35 36 37 38
34 31 27 27 23 21 22 24 25 24 22 24 25 23 24 30 32 33 34 34 34 35 35 36 37 37 37 37 38 38 38 37 37 37 37 37 37 37 37 36 37 38 37 37
34 34 31 28 23 22 21 24 27 26 20 23 24 24 27 31 28 28 33 34 34 34 35 35 36 36 36 36 37 37 37 37 37 37 37 37 37 37 37 38 38 38 38 38
32 32 30 28 26 24 27 26 27 22 22 28 26 27 30 31 29 34 34 34 34 34 34 35 35 35 36 36 37 36 36 36 36 37 37 37 37 38 38 38 38 37 36 36
31 30 30 30 29 25 29 26 24 27 34 31 32 30 32 35 35 34 34 33 33 33 34 34 34 35 35 35 36 35 36 36 36 36 36 35 35 33 32 31 29 27 27 28
30 32 30 29 27 32 30 28 30 33 30 32 32 33 35 34 34 34 33 33 33 33 33 34 34 34 35 35 35 34 34 32 31 28 27 27 27 27 27 28 27 26 26 27
33 35 33 32 28 32 33 31 32 31 31 31 33 35 36 34 34 33 33 32 32 32 32 32 31 30 30 30 29 29 28 27 27 26 26 25 24 23 22 20 17 17 19 19
31 33 32 32 32 34 34 34 32 32 34 33 34 35 34 34 33 33 32 32 31 31 31 30 30 30 28 28 28 27 26 25 24 23 21 20 19 14 13 12 15 15 18 19
33 32 32 31 31 30 28 34 35 34 34 34 35 35 34 34 33 32 32 32 31 30 29 29 29 27 26 25 24 23 22 22 20 17 15 17 16 15 11 10 11 19 19 18

GFSCGP_sfc_30mbdewp_033.txt.gz
Dewpoint
28 24 20 17 15 13 19 16 16 21 29 22 25 30 32 41 42 42 40 42 39 39 42 48 50 48 50 51 51 51 51 52 54 56 52 47 46 49 54 58 58 56 54 54
26 22 21 18 14 16 17 15 14 19 19 20 19 22 33 37 40 41 40 41 41 39 40 45 49 49 49 50 51 51 51 52 53 51 50 46 46 48 53 58 57 56 56 53
22 21 20 18 16 17 16 15 18 16 20 18 17 18 21 28 36 41 40 39 39 40 40 43 45 48 50 50 50 51 51 52 53 51 50 46 46 50 51 55 57 57 56 54
21 22 20 17 17 16 14 16 20 17 16 15 18 17 19 21 30 37 39 39 38 38 40 41 44 45 48 49 51 51 51 51 52 52 49 46 48 48 51 54 55 56 57 55
21 21 20 18 17 18 17 23 20 19 18 18 15 11 19 16 23 28 35 39 39 39 39 40 43 45 46 48 49 51 51 51 51 53 52 49 50 51 51 53 56 57 56 55
21 20 19 17 18 20 20 21 20 20 19 17 17 14 19 15 16 20 26 33 38 38 39 38 41 45 47 48 50 51 51 50 51 52 54 54 52 52 50 54 55 54 54 53
21 19 19 20 20 21 21 19 16 18 17 17 18 15 14 23 16 18 20 25 32 38 38 37 38 41 44 48 51 51 51 51 51 52 54 55 54 54 53 54 55 52 51 49
17 16 18 21 19 18 19 17 16 22 24 20 21 14 12 16 19 20 19 20 22 32 37 38 38 39 42 45 50 53 52 52 51 54 54 55 57 57 57 57 55 53 50 48
15 15 17 19 21 19 19 19 17 16 21 20 20 16 16 18 15 17 21 25 26 27 33 37 38 40 42 44 48 53 53 52 53 53 55 56 57 58 57 58 56 53 49 50
17 14 16 19 22 22 21 23 19 20 22 19 14 13 13 14 12 16 14 21 23 30 34 33 36 40 42 44 47 53 54 53 53 55 57 57 58 57 58 57 55 52 50 48
19 18 16 22 21 18 21 22 22 20 18 19 15 15 17 16 16 17 18 19 20 27 34 39 38 38 41 45 48 50 54 55 54 55 56 58 58 58 58 57 54 52 50 47
20 18 17 20 21 18 20 20 21 20 21 23 21 19 17 17 18 20 18 20 24 29 32 39 42 42 42 44 47 49 53 54 54 55 56 58 59 57 56 55 54 53 52 50
21 18 18 17 17 22 20 24 25 24 22 26 26 18 19 19 19 20 20 21 25 26 30 38 43 45 45 47 48 50 52 52 53 54 54 56 58 57 56 55 55 54 52 49
25 19 18 18 15 17 18 18 20 21 24 23 22 18 19 18 19 19 20 22 24 26 29 34 43 46 47 48 50 51 53 53 53 53 54 54 55 55 54 54 52 50 45 42
25 22 21 18 16 14 13 16 18 19 20 21 21 19 16 17 19 18 26 27 26 29 35 38 42 46 49 51 52 52 53 53 52 52 52 53 53 52 51 51 50 49 46 44
26 22 20 16 16 13 12 13 14 16 17 18 18 18 16 16 19 20 22 27 29 34 38 42 46 48 49 50 50 51 50 49 49 48 47 48 48 47 47 46 44 43 42 40
26 27 23 19 17 15 16 16 16 14 14 15 16 17 16 15 21 23 23 29 32 36 39 41 41 42 43 44 44 45 45 45 45 44 44 45 44 43 42 40 39 37 36 36
30 28 27 23 26 21 22 21 20 19 17 17 15 15 17 21 22 24 27 31 35 36 38 39 39 39 40 41 41 41 41 41 41 41 42 42 41 40 39 37 36 35 35 35
35 33 27 26 24 20 18 20 21 19 18 18 18 19 22 23 28 30 32 34 35 36 36 37 38 38 38 38 38 38 38 38 38 38 38 39 39 38 37 37 38 38 37 37
32 37 32 29 23 20 22 22 23 21 20 20 21 21 23 26 29 25 33 35 35 36 36 37 37 37 37 37 37 37 37 37 37 38 38 38 38 38 38 38 38 39 39 39
34 35 34 31 26 23 22 21 23 22 21 22 23 24 23 23 29 33 35 35 35 35 36 36 36 36 37 37 37 37 37 36 37 37 37 38 38 38 38 38 38 38 37 37
33 31 33 31 28 27 25 26 22 24 25 29 29 25 25 28 36 35 35 35 34 35 35 36 36 36 37 37 36 36 36 37 37 37 36 36 36 34 34 31 29 26 27 28
27 34 30 28 28 32 30 27 28 25 28 32 29 27 29 37 35 35 34 34 34 34 35 35 36 36 36 36 36 35 35 35 34 31 28 26 25 25 25 25 25 23 24 24
33 29 32 31 32 30 32 31 29 31 31 32 32 30 33 37 35 35 34 34 34 34 34 35 35 35 34 34 33 33 32 30 29 27 25 25 23 21 20 17 14 15 20 19
28 33 32 29 28 30 33 34 33 32 33 32 32 32 34 36 35 34 34 34 33 33 34 34 32 32 31 31 30 28 27 26 24 23 21 21 19 15 13 15 15 16 19 18
29 28 31 30 29 33 32 33 33 34 33 34 32 33 36 35 34 34 34 33 33 33 33 32 32 31 29 28 26 25 24 23 21 19 19 20 18 14 10 11 19 18 17 18

GFSCGP_sfc_30mbdewp_036.txt.gz
Dewpoint
23 21 18 18 18 15 13 19 21 22 26 25 26 40 47 45 39 38 37 38 39 41 49 50 50 52 51 49 49 49 50 51 52 52 52 54 49 51 52 56 58 59 59 57
22 22 22 21 20 15 13 13 16 19 24 21 15 33 44 46 40 36 38 40 38 39 45 48 49 51 52 51 52 54 55 54 53 55 56 54 50 49 51 58 59 59 60 56
23 24 25 21 18 15 13 13 12 17 23 21 16 14 36 40 37 37 37 42 41 37 43 47 48 50 51 53 53 53 54 55 55 56 55 54 50 49 49 58 59 59 58 57
22 23 22 20 17 14 13 13 18 20 18 13 21 17 23 29 30 35 36 38 39 40 40 45 47 50 50 52 53 52 51 51 53 53 51 51 47 45 49 56 58 58 58 58
21 22 20 20 15 14 14 21 20 19 16 17 19 18 14 21 22 29 36 37 38 39 40 41 45 48 51 52 53 53 52 52 53 54 54 52 48 47 49 54 55 57 58 58
20 21 20 21 17 17 17 21 22 21 17 17 22 16 15 18 19 23 30 36 37 38 39 41 43 45 48 51 52 54 52 52 52 53 53 54 51 51 52 54 55 57 58 58
19 18 21 20 16 17 18 18 17 15 15 19 21 17 18 22 26 30 30 33 41 38 39 40 42 43 45 48 51 53 53 52 52 53 55 54 55 53 53 54 56 57 57 55
18 16 19 18 17 16 19 18 19 16 21 24 31 21 15 22 24 21 22 36 38 38 39 40 39 43 45 47 50 51 52 52 51 53 54 56 55 56 56 56 58 57 56 53
18 16 18 19 18 19 19 18 19 18 28 29 33 28 17 19 19 17 17 21 23 24 38 39 39 40 45 48 50 52 52 52 51 52 54 55 58 57 58 58 58 58 55 51
19 17 19 18 19 20 18 19 22 21 17 21 19 19 17 20 16 14 16 19 23 28 30 34 39 40 42 45 51 54 53 52 52 53 55 56 58 58 60 59 58 57 52 50
20 20 19 20 18 17 18 19 23 26 21 23 19 20 24 23 16 16 17 18 21 26 34 35 36 37 40 44 45 52 54 54 53 54 56 58 58 57 56 59 59 54 53 52
20 20 19 19 19 20 19 19 19 21 21 23 24 22 23 25 21 20 20 20 21 25 31 37 39 39 40 41 45 52 54 54 55 55 59 58 59 60 59 58 56 55 53 52
21 18 19 20 20 22 19 18 23 24 25 25 25 24 24 22 20 19 20 21 24 26 27 37 41 43 42 43 45 47 52 54 55 55 58 58 59 58 57 56 55 54 53 52
27 20 19 21 19 22 20 18 18 25 26 26 27 26 28 25 24 23 21 23 23 27 26 31 41 44 46 47 49 50 52 53 53 54 58 58 58 57 56 56 54 49 46 44
26 22 21 21 19 19 18 18 17 17 29 27 28 28 27 26 25 27 26 27 24 24 27 31 41 45 48 50 51 53 54 55 54 54 55 55 56 55 55 53 51 48 45 43
28 23 24 23 23 18 18 18 16 16 16 16 19 20 21 23 26 28 28 25 27 27 30 35 38 47 49 51 52 53 53 53 53 52 52 52 52 51 51 50 50 48 45 44
28 27 25 24 23 20 17 18 16 15 17 18 17 20 20 20 19 18 25 22 25 31 36 41 45 49 50 51 51 50 50 49 48 47 48 47 46 45 44 43 42 41 40 39
33 28 27 26 26 19 21 19 16 16 16 18 17 15 16 17 17 22 25 27 30 36 40 43 44 45 46 46 46 46 45 45 45 44 44 44 43 42 40 38 37 37 37 37
33 33 29 26 25 22 18 21 20 20 19 19 19 19 17 16 17 28 29 28 36 38 41 41 42 42 42 42 42 41 41 41 41 41 41 41 40 39 38 37 37 38 37 37
33 37 34 28 25 23 25 25 23 21 20 22 20 20 20 21 27 27 32 36 37 39 39 39 39 39 39 39 39 38 38 38 38 39 39 39 39 39 39 40 40 39 39 37
28 33 34 32 28 26 26 25 23 21 23 25 25 23 24 25 29 31 34 37 37 37 38 38 38 38 38 38 38 38 38 38 38 39 38 38 39 40 39 38 39 38 38 38
29 33 33 35 29 25 29 24 23 26 30 28 28 29 26 27 35 35 36 36 36 36 37 37 37 38 38 38 38 37 37 37 38 39 38 38 38 37 38 37 37 35 33 32
28 32 35 34 32 33 29 28 31 30 30 30 30 31 29 35 36 36 36 36 35 35 36 36 37 38 38 37 37 36 37 37 37 37 36 34 31 29 28 27 26 26 28 27
31 31 30 30 33 36 35 35 32 31 32 30 31 33 31 37 37 36 36 35 35 35 35 36 37 37 37 37 36 37 36 35 32 29 28 26 24 22 21 17 18 25 23 21
25 36 31 31 30 29 31 31 34 36 35 34 33 32 32 37 37 36 36 35 35 35 35 36 36 36 36 35 35 33 32 30 29 26 24 22 20 17 18 18 20 21 17 20
25 23 27 27 30 34 35 34 38 36 35 35 34 33 33 38 37 36 35 35 35 35 35 36 36 34 33 31 30 29 28 27 24 23 23 23 20 16 16 19 18 20 18 18

GFSCGP_sfc_30mbdewp_039.txt.gz
Dewpoint
26 24 21 20 20 21 19 17 16 22 27 32 35 37 31 34 46 46 43 45 49 47 52 51 51 51 49 49 49 51 50 49 49 46 47 47 48 51 52 53 57 58 57 58
24 23 23 23 22 21 21 18 14 16 26 26 35 36 34 38 45 42 41 44 48 47 49 50 51 50 49 46 46 47 47 47 49 46 45 45 51 51 51 52 57 58 59 59
23 23 24 23 23 22 20 18 13 16 23 23 23 37 39 42 43 44 39 39 44 47 48 49 51 50 48 46 45 44 45 50 48 49 47 51 55 50 50 53 55 58 57 54
25 25 24 24 24 21 17 15 15 17 19 18 20 18 40 39 39 42 39 39 40 48 48 49 51 50 48 49 49 50 50 53 51 51 52 54 53 51 48 50 57 58 58 56
25 24 24 23 23 21 17 17 22 22 21 20 17 20 21 37 38 38 39 41 41 45 48 47 49 52 51 50 50 53 53 54 52 52 54 54 52 51 49 52 56 57 58 58
25 25 24 22 23 21 18 22 21 23 22 19 18 21 22 33 35 36 39 41 41 40 45 48 48 50 52 52 52 52 53 54 54 54 54 54 53 49 47 49 57 57 58 58
23 22 22 22 21 21 19 19 18 18 19 18 29 25 23 22 26 27 37 38 40 41 41 45 47 49 50 51 52 52 51 51 52 52 53 53 53 51 48 49 54 57 57 58
21 19 21 21 21 20 18 19 18 15 17 21 29 22 24 29 29 26 37 37 38 40 40 42 45 47 49 50 51 52 52 52 52 52 53 53 54 53 51 53 55 57 57 58
20 19 21 19 20 19 17 18 20 20 31 25 28 29 31 27 25 26 27 34 34 36 40 40 42 45 47 49 50 52 53 52 52 53 53 54 53 54 56 56 57 56 58 56
22 20 22 21 19 20 18 21 19 22 20 21 26 27 25 25 22 22 21 28 32 35 39 40 41 43 44 46 49 51 51 52 52 52 53 55 56 55 57 56 54 55 56 55
21 21 21 22 19 18 19 18 21 25 26 23 20 21 27 28 24 19 16 22 27 31 35 38 41 41 44 45 46 49 51 53 54 54 53 54 57 57 57 58 58 58 54 53
22 22 19 20 23 21 20 19 20 24 24 25 27 24 27 24 24 21 21 20 26 34 35 36 38 39 41 44 47 49 52 55 51 52 55 56 58 58 58 58 57 56 52 52
23 20 18 19 19 21 20 20 22 22 25 22 21 24 28 26 27 22 21 21 26 29 35 38 40 40 41 43 48 50 54 55 54 54 54 59 59 58 58 57 56 54 53 53
37 21 19 18 18 21 21 23 21 20 21 22 26 26 28 28 28 26 26 27 27 26 31 40 41 42 43 46 50 54 55 57 58 59 58 58 57 56 56 55 54 52 51 50
39 25 20 18 21 22 23 23 24 21 23 23 26 28 29 29 27 26 28 27 26 27 27 39 42 44 47 50 53 54 55 56 58 58 57 56 56 55 54 52 49 47 46 45
39 31 24 23 19 20 21 24 24 21 21 26 27 26 28 29 28 32 27 27 27 28 29 33 45 48 50 51 53 53 53 54 55 54 54 55 54 54 53 51 48 46 44 43
38 34 25 21 24 21 20 22 22 21 22 20 23 27 28 25 28 29 28 28 28 27 32 37 47 49 51 53 53 52 51 50 50 50 50 49 48 47 47 48 47 45 43 41
34 34 33 23 24 21 23 24 24 20 20 20 18 19 20 21 22 26 27 29 28 34 39 46 49 51 51 51 50 48 47 47 47 46 45 45 43 42 40 40 39 39 38 37
38 34 32 27 23 27 28 23 21 20 19 21 20 19 19 20 19 27 29 31 36 40 44 46 47 47 47 47 46 45 45 44 44 44 43 42 40 38 37 37 36 36 36 36
38 36 31 33 25 23 26 27 24 24 20 22 24 23 22 24 22 25 33 36 40 42 43 43 43 43 44 43 43 42 42 42 42 41 41 40 39 38 38 38 37 38 38 37
30 30 28 29 32 28 29 25 26 21 22 26 24 26 26 26 28 32 38 39 41 41 41 41 41 40 40 40 40 39 39 39 40 40 40 40 40 40 39 39 39 38 38 37
27 28 28 33 31 28 35 30 23 26 26 26 27 27 27 31 34 36 37 38 38 39 39 39 39 38 39 39 39 38 38 39 39 39 40 39 39 38 39 38 38 38 37 35
27 28 29 33 34 36 33 36 40 40 37 34 28 27 32 35 34 36 37 37 38 38 38 38 38 38 38 38 38 37 38 39 39 39 38 38 38 38 37 37 34 32 32 28
31 36 31 28 28 32 32 37 40 45 42 40 34 32 36 34 36 36 37 37 37 37 37 38 38 38 37 38 38 38 38 38 37 36 34 32 29 25 22 26 24 23 21 21
32 34 33 32 29 33 34 38 40 42 44 42 40 35 35 37 37 37 37 36 36 36 37 38 38 37 37 37 37 37 35 32 30 27 24 23 21 19 21 23 19 17 20 22
30 32 28 28 32 35 33 39 40 38 44 43 40 38 36 38 38 37 36 36 36 36 37 37 37 35 34 33 32 32 31 28 25 23 22 21 20 18 18 19 18 19 18 18

GFSCGP_sfc_30mbdewp_042.txt.gz
Dewpoint
25 23 22 21 21 20 21 20 19 19 26 31 31 33 37 44 49 46 45 45 46 51 52 52 52 50 51 51 50 51 51 52 52 51 52 51 49 47 47 47 49 55 54 57
24 23 24 24 23 22 21 20 20 20 25 28 32 32 37 42 46 49 44 46 47 50 51 51 51 50 50 50 50 50 51 51 51 51 51 49 49 48 49 49 51 55 58 57
23 23 25 25 23 22 22 21 21 17 21 25 33 33 35 37 43 44 47 44 48 50 50 50 50 50 49 49 49 50 50 50 49 49 47 47 48 50 49 50 51 55 58 58
24 24 23 24 23 22 21 25 20 17 20 18 24 18 34 35 37 40 43 43 48 49 50 50 49 49 49 48 49 49 50 49 49 48 46 45 46 46 48 50 51 54 57 58
27 26 23 23 23 25 24 26 20 21 21 21 20 18 19 36 35 36 41 41 45 47 49 50 50 49 49 46 46 46 48 47 47 48 46 45 45 46 52 50 50 54 56 57
27 27 26 25 26 25 24 20 21 23 22 19 20 21 21 32 32 34 40 39 44 47 48 49 50 50 48 47 45 45 44 44 49 48 48 48 48 51 53 51 50 52 55 57
27 27 27 26 23 24 22 20 17 17 18 17 24 26 24 26 31 35 39 40 40 47 48 48 50 50 48 47 47 46 47 47 50 51 50 50 52 54 52 51 51 52 55 56
19 20 24 24 23 21 21 20 17 15 16 17 30 23 23 28 30 34 38 40 41 42 47 48 48 50 50 48 48 48 49 50 50 52 51 51 52 53 54 52 50 55 56 57
20 19 22 23 23 22 21 19 21 18 29 24 23 27 29 27 27 29 29 37 39 41 42 46 47 49 50 51 50 49 50 51 51 51 52 52 53 54 54 53 53 55 57 57
22 20 23 21 22 22 20 21 18 23 16 17 24 25 20 22 23 26 27 37 38 40 41 42 46 48 49 50 52 52 51 51 51 52 53 53 53 54 55 55 55 56 56 56
22 21 20 22 22 20 20 18 23 22 24 18 20 22 28 24 26 25 25 24 34 36 39 41 42 46 47 49 50 52 52 52 52 53 53 53 53 54 55 56 56 56 56 56
33 21 19 19 20 23 21 19 20 18 23 26 22 22 27 28 29 27 26 22 26 30 32 38 41 43 45 46 48 50 52 53 53 54 54 55 56 57 57 58 57 57 57 57
38 31 20 19 21 22 20 21 21 23 26 23 22 23 29 28 27 26 22 22 26 33 35 37 39 41 43 44 45 46 50 52 53 55 56 57 57 58 58 59 58 58 57 57
39 36 30 23 20 20 20 19 20 21 20 20 23 22 27 28 27 28 25 25 25 32 36 37 39 40 42 45 47 46 49 52 53 54 54 55 57 58 58 58 57 57 55 53
39 35 36 35 31 22 20 21 22 21 23 21 22 25 26 27 28 29 28 27 27 27 29 38 39 41 46 51 53 53 50 52 54 54 54 52 56 58 57 55 54 53 52 51
38 34 34 30 31 26 20 19 22 23 24 24 23 24 29 29 30 30 29 28 27 26 27 34 41 43 49 53 54 55 55 57 57 57 57 57 56 55 53 51 50 49 48 47
35 33 31 26 30 26 21 20 20 25 25 24 22 25 28 28 30 30 30 29 28 27 27 29 41 45 51 53 53 54 55 55 55 55 55 54 53 52 50 49 47 45 44 43
34 33 32 28 29 25 26 25 21 23 24 23 23 22 23 27 28 29 31 30 29 28 29 35 43 48 52 53 52 51 52 52 51 51 50 50 49 48 48 45 43 41 41 40
35 33 30 25 27 30 26 26 26 23 22 23 23 22 20 21 23 24 29 30 28 29 33 41 48 51 51 50 48 49 48 47 47 47 46 45 44 43 42 41 40 38 38 37
36 35 29 29 22 24 28 28 28 27 22 23 23 22 23 23 19 21 28 30 32 38 43 47 49 49 48 47 46 46 45 45 44 43 41 40 39 39 38 38 37 37 37 37
30 30 29 29 26 29 36 34 31 25 25 31 27 26 24 24 25 25 32 39 41 43 46 46 47 48 45 45 45 44 43 42 41 40 39 39 39 38 37 37 37 37 37 36
25 26 27 29 27 24 38 34 31 36 40 41 40 31 28 29 33 34 37 40 41 42 43 44 44 43 41 42 42 41 41 40 40 40 39 39 39 39 38 38 38 37 36 34
26 26 25 29 23 33 39 37 38 42 42 42 41 41 36 32 34 36 37 39 40 41 41 41 41 40 39 40 40 39 39 40 40 39 39 39 39 38 38 37 37 35 33 31
25 32 30 34 31 32 34 36 39 38 39 42 41 42 38 37 37 36 38 39 39 39 39 39 39 38 38 38 39 39 39 39 39 38 37 36 32 30 29 28 31 30 28 28
28 34 31 32 32 32 33 32 37 34 42 40 40 42 40 40 39 39 38 38 38 38 38 38 38 38 38 38 38 38 38 37 34 31 27 24 25 24 20 19 20 22 23 24
36 34 31 29 28 26 25 30 35 32 38 41 40 41 40 39 38 38 38 37 37 38 38 38 37 37 36 35 34 33 32 30 27 24 23 22 22 20 16 16 19 21 21 22

GFSCGP_sfc_30mbdewp_045.txt.gz
Dewpoint
26 23 22 22 22 20 20 19 18 19 21 23 27 32 33 46 50 48 48 47 49 50 52 52 50 51 52 52 52 53 53 54 54 53 52 52 51 49 47 47 49 51 54 56
25 22 24 24 23 22 21 20 19 21 21 24 26 31 35 42 48 48 45 46 45 50 51 51 51 50 51 51 51 51 52 52 52 52 50 51 49 49 47 48 49 51 53 54
27 24 25 24 23 23 23 22 20 20 21 29 31 28 34 37 44 48 48 46 45 47 50 51 50 50 50 50 50 51 51 51 51 51 51 49 49 49 47 47 48 50 54 55
27 27 24 24 22 23 21 23 22 23 21 17 27 20 22 34 37 42 46 47 45 47 50 51 51 50 49 50 50 50 51 51 50 50 49 48 47 46 45 45 47 49 53 55
28 26 25 23 23 24 22 24 24 24 22 20 20 18 18 36 35 37 40 44 46 47 49 50 50 50 50 49 49 50 50 50 50 49 48 47 47 47 47 48 49 50 51 55
28 28 25 23 24 24 24 25 23 24 23 19 19 18 19 24 25 32 37 40 43 46 49 50 50 50 50 49 49 49 50 50 49 49 48 47 46 46 46 48 49 50 52 54
25 27 29 27 25 26 25 22 18 17 17 17 21 24 22 23 28 31 33 37 41 46 48 49 49 49 49 48 48 48 48 48 48 49 48 48 46 46 46 48 50 51 51 53
18 16 24 28 27 24 23 22 19 15 15 15 27 22 23 27 27 29 34 35 40 44 47 48 49 50 49 48 46 46 46 47 47 48 48 48 48 47 47 48 51 52 52 53
19 19 21 24 25 25 23 21 22 19 27 22 20 25 28 28 28 28 31 38 40 42 47 48 49 50 50 48 47 45 45 45 45 46 49 48 48 48 49 50 52 53 53 55
22 20 23 22 23 24 22 23 19 22 16 17 21 25 20 21 20 24 27 31 38 41 44 47 48 49 50 49 47 47 45 44 44 45 46 50 50 50 50 53 54 54 53 56
23 21 20 22 22 20 20 20 22 21 22 16 14 17 27 22 24 26 26 28 35 39 42 44 47 48 50 51 49 47 47 46 46 48 49 50 51 51 53 54 54 55 55 56
36 27 20 20 22 22 22 21 21 19 19 26 20 18 26 27 28 30 29 28 26 37 39 42 43 47 48 49 51 50 49 48 49 51 51 52 53 54 54 55 56 56 56 57
34 33 26 21 21 22 20 20 20 24 25 19 19 18 27 25 26 28 26 24 23 27 34 38 41 42 46 48 49 50 52 52 51 52 53 54 54 55 55 55 56 56 57 57
39 36 33 30 32 34 32 28 21 21 20 20 21 21 24 26 25 27 26 26 23 24 32 34 36 41 43 46 48 49 51 52 53 53 53 54 55 55 55 56 56 56 57 57
35 28 35 35 31 29 29 30 29 22 21 19 21 22 24 25 26 26 29 28 27 24 29 36 38 39 42 44 45 46 47 50 53 53 54 54 55 56 57 57 57 57 57 57
36 27 33 30 29 27 26 27 28 27 22 23 23 22 27 27 29 29 29 29 27 26 26 33 37 40 41 44 46 49 47 48 52 53 54 55 55 56 57 56 55 54 53 52
34 31 29 23 29 26 18 28 26 25 23 23 22 24 25 26 28 28 28 30 29 28 27 27 33 40 42 47 50 51 53 54 53 54 54 54 55 55 54 52 51 49 48 47
34 32 31 26 27 13 13 29 23 27 25 23 25 25 26 27 27 29 31 31 31 31 30 28 28 40 46 52 53 54 55 56 56 56 55 55 53 51 49 48 47 45 45 45
34 32 27 22 25 22 18 21 26 30 31 31 24 24 24 23 23 22 27 30 31 31 31 30 30 40 51 52 52 53 53 53 53 52 51 51 50 48 47 45 44 42 42 41
35 34 27 28 22 12 7 22 32 36 30 32 38 32 25 24 21 23 23 26 27 31 32 36 45 50 51 50 51 50 50 50 50 49 47 48 47 46 44 42 40 38 38 38
31 31 28 28 26 26 29 33 35 29 30 39 41 40 36 29 25 25 26 26 31 35 41 46 49 49 49 49 49 48 47 47 45 44 43 43 43 42 40 38 37 37 37 36
27 27 27 28 27 23 31 38 26 36 38 41 41 40 40 39 36 32 30 33 38 40 44 47 48 47 46 46 46 45 44 42 41 40 40 39 39 38 37 37 37 36 35 32
26 26 24 27 24 30 39 38 38 38 39 41 42 41 42 39 35 36 37 39 41 42 45 46 45 43 43 43 44 42 40 40 40 39 39 38 38 38 37 36 36 34 33 31
29 31 28 29 26 28 30 35 37 39 40 41 40 41 42 39 39 38 38 39 41 41 42 42 42 41 40 40 41 40 40 39 39 38 37 34 33 31 31 31 32 31 31 30
25 29 28 28 30 33 32 34 36 39 40 39 41 40 41 41 40 39 39 39 39 39 39 40 39 39 38 39 39 39 39 38 34 31 29 28 26 25 23 24 25 25 26 29
36 34 33 28 38 38 35 36 38 38 35 36 41 38 39 39 41 40 39 39 39 39 38 38 38 37 36 36 35 34 34 31 29 27 26 23 21 19 19 19 20 23 25 25

GFSCGP_sfc_30mbdewp_048.txt.gz
Dewpoint
31 27 23 22 22 19 18 19 18 18 20 20 20 22 23 45 51 51 49 48 49 51 51 51 51 53 53 54 54 54 55 56 55 55 53 53 52 49 48 50 54 55 54 55
25 24 25 24 23 21 20 19 17 18 21 21 22 24 30 39 45 50 49 48 47 49 51 51 50 52 52 52 53 53 54 54 55 55 55 52 53 50 48 48 50 54 55 56
24 24 24 24 23 22 22 20 18 16 21 24 28 25 29 35 41 47 49 48 47 47 50 50 50 50 51 51 52 52 53 53 54 54 54 50 50 49 48 48 48 50 52 54
28 28 25 24 22 23 19 23 21 21 21 20 27 19 21 25 33 40 44 48 47 45 49 51 50 49 49 50 51 52 52 53 52 52 51 49 49 49 48 46 47 48 50 51
27 27 26 23 23 24 20 23 22 23 23 22 21 22 20 32 25 29 36 43 48 46 47 50 51 50 50 50 51 51 51 52 52 51 50 49 49 48 47 46 46 47 49 51
26 29 27 26 26 24 25 24 25 25 24 20 21 19 19 21 23 24 30 38 43 47 47 49 51 51 50 50 50 50 50 51 51 50 50 49 48 48 47 47 46 47 49 51
24 27 28 26 24 25 24 22 20 18 19 19 21 20 20 21 22 26 25 31 39 45 47 49 50 50 50 49 49 50 50 50 50 50 49 49 48 48 47 47 47 47 48 49
19 16 25 28 26 24 24 23 20 17 16 16 25 20 21 26 26 26 31 33 36 41 46 48 50 49 50 49 49 49 49 49 50 50 49 49 48 47 47 47 47 48 50 51
19 18 22 25 27 27 25 22 23 20 25 21 20 24 26 27 27 28 28 29 32 40 45 47 49 49 49 49 48 48 48 49 49 49 49 49 48 48 47 47 48 50 52 52
22 18 23 23 24 25 24 24 21 22 17 17 20 24 18 22 24 25 23 25 31 40 44 47 48 49 50 49 48 48 48 47 48 48 48 48 49 49 49 49 49 50 52 53
22 22 20 22 21 20 22 22 22 22 21 17 16 17 26 21 22 23 26 27 28 36 41 45 48 49 50 50 48 47 47 47 47 47 48 48 49 49 50 49 50 52 53 53
35 27 20 20 22 22 22 21 22 20 19 25 21 18 23 26 26 29 28 29 30 33 38 42 46 48 49 50 49 48 47 46 46 46 47 48 49 51 50 50 50 51 51 54
35 32 27 23 23 31 29 27 31 25 23 19 19 20 26 27 27 26 25 27 27 25 31 41 44 47 48 49 50 49 48 47 46 47 47 49 49 50 51 51 51 51 53 54
36 34 27 27 29 33 30 29 29 30 25 21 20 21 22 24 26 25 26 27 26 25 26 34 41 43 47 48 49 50 50 49 49 48 49 49 50 50 50 51 51 52 54 55
33 25 32 32 31 32 29 26 26 25 27 26 26 23 23 24 24 25 26 28 27 25 24 30 34 40 42 46 48 49 50 51 51 50 50 50 51 52 52 52 53 54 56 56
35 26 32 28 31 28 25 26 26 25 27 27 26 24 25 25 27 27 28 28 29 27 26 25 32 37 38 42 45 48 49 50 52 52 52 52 52 53 54 54 54 55 56 56
33 31 28 23 29 26 21 21 22 23 23 26 25 28 27 25 26 27 27 29 30 29 28 27 29 35 39 41 43 45 47 48 51 52 53 53 53 54 54 55 56 56 55 53
32 31 30 25 26 16 16 27 25 24 26 28 28 27 30 30 26 27 29 30 29 30 30 30 28 30 37 41 46 48 50 49 49 51 53 54 54 55 55 54 53 51 49 49
35 31 27 24 23 21 19 16 15 19 11 27 23 31 39 37 27 25 26 27 27 29 32 32 32 30 34 43 49 51 53 53 52 53 54 54 54 51 50 50 48 46 46 45
35 32 28 26 23 14 14 26 36 33 19 36 37 39 39 40 33 26 26 25 25 27 29 30 33 37 40 47 51 51 53 54 53 52 51 51 51 49 47 45 43 42 41 39
31 31 28 24 25 24 28 31 36 25 19 34 35 36 39 38 38 38 39 38 29 28 28 37 43 43 46 50 51 50 51 51 49 48 48 47 47 45 42 40 39 38 36 34
27 26 26 26 25 19 28 36 25 28 33 34 35 38 39 40 41 41 39 36 36 36 41 46 46 47 49 50 49 48 46 44 44 43 43 41 40 39 38 38 37 35 33 31
25 26 24 27 24 29 36 36 38 38 35 37 38 38 38 39 40 41 39 40 41 43 44 46 45 44 45 46 46 44 41 42 42 41 39 38 38 37 37 36 35 33 32 30
30 30 28 28 26 27 28 32 35 37 38 40 38 35 38 40 41 42 39 40 40 41 42 42 42 42 42 42 43 42 42 41 40 37 35 34 33 32 32 32 33 32 31 29
25 28 28 27 28 31 30 36 40 39 40 40 40 37 38 41 41 42 40 39 39 39 40 40 40 39 39 40 40 40 39 37 34 32 30 29 29 28 27 27 28 29 30 30
34 33 29 25 36 36 37 39 36 38 38 39 41 39 41 39 39 41 39 39 39 38 37 36 35 34 33 33 34 34 33 33 31 29 28 27 26 25 24 24 24 28 28 27

GFSCGP_sfc_30mbdewp_051.txt.gz
Dewpoint
31 26 21 21 23 20 19 17 17 19 20 20 21 22 24 34 49 49 49 49 50 50 51 51 51 53 53 55 55 56 56 56 56 56 55 54 54 54 55 56 55 55 53 53
28 27 25 24 23 21 20 18 18 19 21 21 21 22 27 35 44 48 49 49 49 50 51 51 51 52 53 54 54 55 56 56 56 56 56 55 54 52 53 54 56 55 54 54
26 26 26 24 23 22 22 21 20 18 21 23 26 24 22 30 39 45 49 49 50 49 50 51 50 50 52 53 54 54 55 55 56 56 56 54 51 50 49 51 53 54 56 53
27 27 24 23 23 23 21 23 22 20 19 12 26 19 23 23 26 34 39 48 49 49 49 51 51 50 51 52 53 53 54 55 55 56 54 53 51 50 48 48 51 51 53 55
24 27 25 23 21 24 20 23 22 22 21 22 23 21 22 25 24 25 28 39 46 48 49 50 51 50 50 51 52 53 53 54 55 54 54 52 52 51 50 48 48 49 50 52
22 30 27 23 25 24 24 22 25 26 25 22 23 21 19 19 21 23 26 31 40 47 47 49 51 51 50 50 51 52 52 53 53 54 53 52 51 49 48 48 47 48 48 50
27 26 27 26 25 25 24 22 18 19 21 20 23 21 20 22 23 24 24 25 35 45 47 48 50 50 50 50 49 51 51 51 53 52 52 52 51 51 50 49 49 48 49 50
18 19 27 28 26 24 24 22 19 14 18 17 23 20 19 26 26 27 28 31 34 40 46 48 49 50 50 50 50 51 51 51 52 52 51 51 51 51 50 50 49 50 50 50
19 18 25 28 28 26 25 22 24 22 24 21 22 22 23 24 26 28 28 30 30 33 42 46 49 50 50 50 50 51 51 51 51 51 52 51 51 50 50 50 50 50 50 50
23 18 22 23 26 27 24 26 22 23 16 16 19 21 18 21 21 24 27 27 27 31 40 45 48 50 51 50 50 50 51 50 51 51 52 51 51 51 51 51 50 50 50 51
23 21 21 22 22 21 24 23 23 24 23 17 16 19 26 22 24 24 25 27 30 31 37 45 47 49 50 50 50 50 50 50 50 51 52 51 51 51 51 50 50 50 50 50
35 24 19 18 22 24 22 23 24 22 20 24 23 20 24 27 29 28 27 30 31 31 33 41 46 49 50 50 50 49 49 49 50 50 51 51 51 51 51 50 50 51 50 50
36 30 25 24 24 31 30 32 30 30 26 21 19 19 24 25 26 28 29 28 28 30 27 38 44 47 49 50 50 49 49 49 49 49 50 50 50 51 50 50 51 51 51 52
36 31 27 23 26 32 29 27 27 28 27 25 24 25 24 25 26 26 26 29 30 31 28 28 39 45 47 49 50 50 49 49 49 48 49 49 50 50 51 51 51 51 51 51
33 24 27 25 28 31 28 25 24 25 25 23 22 25 27 28 28 28 27 28 29 29 29 28 30 38 45 48 50 50 50 50 49 48 47 48 49 49 49 51 52 52 52 52
29 26 32 27 31 30 27 27 25 25 24 24 27 27 29 29 28 28 28 29 29 29 29 30 29 33 39 44 48 49 51 51 50 49 48 48 49 49 50 50 51 52 52 52
25 31 28 22 29 26 20 23 23 21 21 21 18 18 29 29 29 31 30 29 30 30 30 31 31 30 35 39 44 47 49 51 52 51 50 50 50 51 51 51 51 52 52 53
27 31 30 25 26 16 15 25 25 23 23 23 24 28 29 30 36 38 38 31 30 31 30 31 31 32 33 38 42 44 46 50 51 52 52 52 52 52 52 53 53 54 54 55
29 31 27 24 23 21 18 18 15 16 14 28 32 35 36 37 39 37 34 33 35 36 34 32 33 33 33 36 40 44 46 47 49 51 52 52 53 53 54 54 53 51 50 48
34 32 29 27 20 15 16 30 34 31 19 31 35 32 33 37 34 35 39 40 42 42 41 38 32 34 35 35 46 47 48 49 48 49 51 53 54 52 52 50 47 44 43 40
29 30 26 27 24 24 26 27 33 21 19 30 34 33 36 35 36 38 41 42 42 40 39 36 36 36 40 46 49 49 52 52 52 51 51 51 51 49 45 43 41 39 36 34
24 24 25 26 25 21 28 35 29 28 34 35 35 36 38 38 38 38 41 41 41 41 43 44 45 46 48 50 50 50 49 47 48 47 45 44 43 42 41 39 36 35 33 31
26 27 26 27 25 29 33 34 38 37 38 38 38 37 39 38 38 41 42 42 40 40 42 44 45 46 47 48 47 45 44 44 43 42 40 40 39 38 37 36 34 33 32 31
30 31 28 26 26 27 29 33 39 37 39 40 40 40 39 40 41 42 42 41 40 40 41 42 42 42 42 43 44 44 43 42 40 38 36 35 34 34 34 34 33 32 31 30
26 30 29 28 29 31 33 38 37 37 36 36 36 39 37 38 38 41 41 38 38 38 38 39 39 37 38 38 39 39 39 37 35 33 32 31 30 29 29 29 30 30 31 32
30 28 28 26 35 34 35 37 36 34 33 33 32 33 32 33 32 34 32 31 31 31 32 31 31 32 32 32 32 33 34 34 33 31 31 30 29 28 28 27 26 28 27 26

GFSCGP_sfc_30mbdewp_054.txt.gz
Dewpoint
29 24 19 15 16 17 14 14 11 9 15 18 17 18 19 24 33 39 41 44 45 45 47 49 51 52 54 55 57 57 56 56 57 56 56 56 55 54 55 54 55 56 51 50
30 25 22 21 19 16 15 14 12 12 18 16 12 16 18 24 30 36 39 42 45 45 47 49 51 52 53 54 55 57 56 56 56 56 56 56 55 53 54 53 54 55 55 51
22 20 24 24 21 19 17 14 15 14 17 18 17 16 17 21 30 36 39 41 43 45 46 48 50 51 53 53 54 56 56 56 56 56 57 56 56 55 53 52 53 54 55 51
20 18 24 24 20 19 16 18 19 17 17 8 18 12 14 19 19 28 32 41 42 45 46 47 49 50 51 52 54 55 56 56 56 57 55 54 53 52 53 52 51 52 54 53
23 20 20 20 20 18 17 19 21 19 18 14 14 14 12 16 19 17 18 30 40 43 46 47 49 50 51 51 53 53 55 56 56 56 55 54 53 52 52 52 52 54 54 53
21 24 21 19 20 21 21 21 21 22 17 15 13 13 10 11 18 17 17 22 33 41 45 47 49 50 50 51 52 53 54 55 55 55 55 54 53 51 51 51 51 53 53 55
22 21 27 26 17 22 20 19 16 15 14 13 16 17 14 19 20 19 19 19 31 38 43 46 48 49 49 51 51 52 52 53 55 55 55 54 53 53 52 50 50 49 51 51
11 15 23 27 23 21 21 19 14 11 13 13 21 18 18 21 23 24 21 24 29 37 43 44 47 49 50 51 51 51 51 51 53 55 55 55 54 53 52 51 49 48 48 49
11 11 22 26 27 22 22 21 21 17 23 20 19 20 21 20 20 22 23 25 26 32 40 42 45 48 50 50 51 51 50 50 51 53 55 55 54 54 52 51 51 50 49 49
20 16 20 24 26 26 25 23 21 21 15 14 14 17 17 19 19 20 20 23 23 25 31 37 43 47 49 50 51 52 51 49 50 52 53 53 54 54 54 53 52 51 52 52
21 23 23 23 23 23 24 23 22 21 19 15 13 16 21 22 26 27 25 23 25 28 32 38 42 46 49 50 51 52 52 50 49 51 52 52 53 53 54 54 53 53 53 52
22 24 20 19 24 24 23 21 22 18 19 21 23 18 24 26 25 25 26 26 27 29 31 34 43 46 48 49 50 51 51 50 50 50 51 53 53 53 53 53 53 54 53 53
33 22 14 16 20 24 25 26 26 27 26 22 22 19 23 23 23 25 25 27 27 27 28 30 39 45 47 48 49 50 51 51 50 50 51 52 53 53 53 53 53 52 52 52
34 28 21 10 15 23 27 26 25 26 24 21 21 21 23 23 23 24 25 27 27 27 27 28 30 40 45 47 48 49 50 51 51 50 51 51 52 53 53 53 52 53 52 51
32 27 24 23 24 23 23 24 23 23 24 22 21 20 21 20 19 24 28 28 27 27 28 29 30 31 37 44 48 49 49 50 51 50 50 51 52 52 51 51 51 51 52 51
29 20 23 20 19 25 23 22 21 21 20 20 21 21 22 20 20 20 22 24 28 28 28 29 29 31 32 38 45 47 49 50 50 50 50 50 51 51 51 51 51 51 51 51
25 29 22 13 24 20 14 19 20 20 20 17 13 14 15 18 20 23 24 28 33 34 32 31 31 32 33 35 43 45 47 49 50 50 50 49 50 50 50 51 50 50 51 52
24 30 29 19 26 13 12 22 22 20 18 16 15 16 24 28 32 34 35 35 38 39 40 40 38 36 33 34 36 40 42 47 50 50 49 49 49 49 50 50 50 50 51 52
26 27 26 22 18 15 16 13 14 15 9 22 23 25 26 28 31 29 36 36 38 41 41 41 40 40 39 34 34 38 40 43 47 49 49 49 50 50 50 51 51 53 53 54
27 27 25 25 15 13 15 26 29 27 15 27 28 29 29 31 27 28 35 38 40 41 41 40 41 42 38 35 34 36 40 41 44 47 48 50 51 51 51 52 54 51 48 43
27 26 24 21 23 20 22 21 27 23 25 30 30 29 30 32 34 36 38 38 40 41 41 42 44 44 43 40 40 39 40 41 44 46 49 50 52 53 54 49 45 41 38 36
24 23 23 21 22 21 25 27 24 35 34 32 31 31 33 36 37 38 40 40 40 40 40 42 44 45 46 48 48 45 45 51 52 52 50 49 47 45 43 41 39 37 35 33
25 22 21 21 21 28 31 33 33 36 36 37 38 38 39 38 38 40 40 41 39 39 39 41 42 43 44 45 48 48 48 47 46 44 42 41 40 39 39 38 36 34 33 31
23 26 26 26 25 26 26 32 37 37 37 37 36 38 40 40 40 39 39 39 38 36 36 36 38 38 37 38 40 43 43 42 40 38 37 36 36 35 35 34 34 33 31 30
21 25 26 23 23 23 27 36 37 36 37 35 35 34 36 34 36 35 36 34 33 32 32 31 32 32 33 35 36 37 38 37 35 34 33 32 31 30 28 29 30 30 32 31
23 22 24 22 33 33 33 35 36 35 35 34 33 32 31 31 30 31 31 31 30 30 30 29 29 29 29 29 30 32 35 35 33 31 31 30 29 28 27 26 25 28 28 27

GFSCGP_sfc_30mbdewp_057.txt.gz
Dewpoint
16 17 17 21 21 19 17 17 15 16 14 14 15 13 17 19 19 24 33 34 39 41 44 45 50 49 52 55 57 57 57 57 57 56 56 56 56 57 57 57 52 53 50 50
19 17 14 15 17 16 15 16 15 16 13 15 12 9 12 15 19 22 29 34 37 41 43 46 49 50 52 54 56 57 56 57 56 56 56 55 55 56 56 56 57 53 52 50
20 16 21 19 19 16 17 16 16 15 14 18 13 10 12 14 17 21 27 29 32 39 42 45 48 51 52 53 55 57 56 56 56 56 57 56 55 55 54 53 54 55 55 51
29 18 21 21 19 20 19 18 17 16 15 14 13 8 11 13 15 21 24 25 30 35 41 44 47 50 51 52 54 56 56 56 56 57 56 55 54 52 52 52 51 50 54 54
24 20 17 18 20 21 19 19 18 18 17 16 15 12 14 14 14 16 18 22 28 34 40 43 46 49 51 51 54 55 56 56 56 56 56 55 54 53 51 51 51 51 54 56
22 24 23 23 20 19 18 18 18 20 18 16 17 13 12 13 12 17 16 16 22 33 38 42 45 48 50 50 52 55 56 56 56 56 55 55 54 53 52 52 52 52 53 55
14 22 23 23 20 19 18 18 16 16 16 16 17 15 14 15 18 18 17 17 21 28 34 41 44 46 48 50 51 53 54 55 56 56 55 55 54 54 53 52 51 51 53 54
12 17 20 24 20 17 18 18 16 13 17 16 17 15 13 19 20 20 20 19 21 28 35 40 44 46 47 50 51 51 52 52 55 56 55 55 55 54 53 53 52 52 52 53
11 6 15 21 23 21 20 18 17 17 21 21 16 18 20 21 19 19 19 19 21 26 34 38 41 45 48 49 51 51 50 51 53 55 55 55 55 54 53 53 53 52 52 52
15 11 9 17 24 23 20 21 16 19 17 17 17 20 21 18 18 21 20 20 21 23 28 34 39 42 47 49 50 52 50 49 50 53 55 55 55 54 54 53 53 53 52 52
18 20 17 20 21 20 20 21 23 20 19 17 17 17 20 24 26 26 26 23 27 28 29 31 34 39 45 48 49 52 51 48 48 51 53 55 55 56 56 55 55 54 54 53
24 23 18 24 20 23 22 21 25 21 23 20 23 21 25 25 24 25 25 25 26 26 27 30 35 40 43 47 49 51 52 50 48 49 52 54 56 56 56 56 56 56 54 54
33 22 18 20 22 23 21 22 23 24 24 26 24 22 23 24 23 24 25 25 26 27 26 27 31 40 44 46 48 49 52 51 50 49 50 54 55 55 55 56 56 56 56 55
34 30 18 15 19 18 21 24 24 24 23 23 25 23 23 24 23 22 22 26 27 27 26 26 27 30 39 45 47 48 49 52 51 50 50 51 54 54 55 56 56 56 56 55
35 30 29 20 23 23 21 24 24 23 23 22 22 23 21 22 22 19 20 20 21 24 30 31 31 30 31 37 44 47 48 50 52 51 50 51 53 54 54 55 55 55 55 54
33 30 28 27 22 21 22 22 22 20 19 19 19 18 20 21 22 20 20 19 21 25 33 36 37 36 34 33 33 43 46 49 51 52 52 51 52 53 54 54 54 55 55 54
24 25 29 25 23 21 17 20 22 22 22 21 19 19 16 17 16 19 23 27 29 32 36 38 40 40 40 38 37 36 41 47 49 51 52 51 52 52 53 54 53 53 54 54
25 23 23 25 24 21 18 18 18 19 18 18 16 15 18 22 24 26 26 33 35 37 39 40 40 41 41 40 39 39 35 40 46 48 50 51 51 52 52 53 53 53 53 53
25 24 23 19 18 17 13 15 14 14 10 13 14 22 24 26 27 26 33 35 36 38 39 40 41 42 43 43 43 40 36 35 38 45 48 50 50 50 51 51 52 53 53 53
24 25 25 22 17 12 14 18 25 19 10 23 26 27 27 28 26 26 34 35 37 36 38 39 41 42 44 45 46 45 38 34 36 39 46 49 49 49 50 51 52 53 53 52
23 23 21 20 18 16 15 20 21 19 23 29 29 29 29 28 28 33 35 37 37 37 37 39 40 42 43 44 44 46 46 43 38 39 41 48 49 49 51 51 52 50 44 39
21 22 21 20 21 17 22 22 21 33 33 32 32 33 36 35 33 32 37 38 39 37 36 37 38 39 40 39 39 42 47 49 52 51 50 50 50 49 48 45 43 41 38 35
22 22 21 19 20 27 26 33 36 35 34 34 35 35 35 34 34 36 38 38 38 37 36 35 36 36 34 33 35 37 40 45 47 47 44 42 41 41 40 39 37 35 34 33
25 32 25 30 23 29 26 33 35 35 35 35 34 34 34 35 36 35 35 35 35 34 34 34 32 32 30 30 31 32 37 39 39 37 36 36 35 34 35 35 35 34 32 31
22 24 22 24 25 24 24 34 36 35 35 34 34 34 34 33 33 33 33 32 32 32 31 32 30 29 28 28 29 30 34 35 33 32 31 30 29 28 28 28 30 29 30 30
23 22 24 23 33 33 30 33 35 33 33 33 33 32 32 32 31 31 31 29 27 28 27 27 26 26 26 27 28 29 31 32 31 29 29 28 27 26 26 25 25 28 27 27

GFSCGP_sfc_30mbdewp_060.txt.gz
Dewpoint
26 14 11 22 22 22 20 17 17 18 19 16 16 16 14 15 18 24 27 30 32 40 43 46 47 48 56 57 57 57 57 58 57 57 57 57 56 57 57 57 57 55 53 51
33 18 8 14 22 21 21 20 18 18 17 15 14 14 13 12 16 18 21 29 33 37 42 45 49 49 53 57 57 57 57 57 57 57 56 56 56 57 57 57 54 52 52 51
34 23 18 15 13 16 18 19 18 17 18 17 15 16 16 12 12 15 21 23 31 35 41 45 49 50 52 55 57 57 56 57 56 56 56 56 56 56 55 55 54 52 51 50
37 36 27 28 18 17 16 18 16 17 17 15 16 13 14 13 13 14 18 23 27 30 40 45 48 51 51 53 57 57 56 56 56 56 55 55 54 53 51 54 55 53 55 51
36 32 32 27 24 22 20 22 21 20 18 18 16 15 15 14 14 14 18 23 26 29 37 44 47 50 52 53 55 56 56 56 56 56 55 55 54 53 50 53 54 53 54 56
30 31 33 25 19 22 21 21 22 21 20 18 18 17 16 15 14 14 16 19 25 28 33 41 47 49 52 52 55 56 56 55 56 56 56 55 54 53 50 51 50 50 52 56
22 24 22 28 26 22 21 19 17 18 19 19 19 17 18 18 16 18 17 17 19 30 34 40 46 48 50 52 54 55 55 55 56 55 55 55 55 54 52 51 50 49 49 52
24 22 20 23 25 21 21 21 18 19 20 18 18 16 17 19 17 20 21 20 24 29 34 37 43 47 49 51 55 54 54 54 55 56 55 55 55 54 53 51 50 50 49 51
22 20 21 24 27 22 23 24 21 21 22 24 25 19 18 19 20 18 19 19 20 25 31 36 42 47 48 51 52 54 53 54 55 54 56 55 55 54 54 53 52 51 51 52
18 19 19 17 23 25 25 25 21 20 19 21 22 19 17 20 20 19 19 19 22 26 30 36 39 46 48 51 52 54 53 52 55 55 55 55 55 55 55 54 54 53 52 51
20 19 20 19 17 21 22 23 26 26 19 22 20 25 30 26 26 26 27 28 29 28 29 30 36 41 48 50 51 53 53 51 52 55 55 55 54 54 55 54 54 54 53 53
33 22 18 24 24 21 21 21 22 25 26 23 24 24 31 29 26 26 27 27 28 28 28 30 32 39 42 49 50 53 53 52 51 53 56 55 55 55 55 55 54 54 54 54
29 25 21 20 25 27 22 23 23 25 31 33 28 29 30 25 25 25 24 27 28 29 29 30 31 38 41 45 48 51 53 53 51 51 54 56 56 56 55 55 55 55 54 55
26 32 27 19 27 33 29 23 28 27 32 33 34 31 33 32 28 23 24 23 22 23 30 34 37 39 39 43 47 49 52 53 53 51 51 54 56 56 56 56 56 56 56 55
33 32 31 28 28 26 26 28 25 27 33 32 29 28 32 34 33 23 20 20 21 24 32 36 39 40 41 41 41 45 49 53 53 52 51 50 54 56 56 56 56 56 56 56
35 30 32 29 29 24 21 26 34 33 22 23 28 32 31 29 21 21 21 23 26 31 36 38 39 40 41 41 42 42 43 49 53 53 52 52 51 53 55 55 56 56 56 56
29 30 31 26 27 24 20 20 27 29 21 19 18 19 23 20 19 20 25 27 35 36 38 39 40 41 42 43 44 43 44 43 46 52 53 53 52 52 53 54 55 55 55 56
24 23 29 26 31 21 20 19 19 21 21 22 22 22 20 21 24 24 33 35 35 35 37 38 39 40 42 45 46 47 47 47 42 42 50 52 53 53 53 54 54 54 55 55
24 23 26 27 24 28 25 18 15 16 18 18 15 17 22 26 27 32 34 35 35 36 36 37 39 40 43 44 43 44 45 46 47 46 39 48 51 52 53 53 53 54 54 55
24 26 24 24 22 21 18 21 22 18 14 21 26 27 27 27 29 33 34 35 36 38 37 37 38 39 41 40 40 41 43 44 48 50 52 51 44 51 52 52 53 54 54 54
23 25 23 23 22 20 16 18 21 17 27 31 30 32 32 31 31 32 34 36 36 38 37 36 36 37 37 35 35 38 39 41 40 44 49 48 49 51 51 52 53 53 50 42
22 24 24 22 20 18 18 21 19 35 37 36 35 34 35 34 33 33 37 37 37 35 35 35 34 34 34 32 32 33 34 37 39 42 45 44 43 44 46 47 44 42 40 37
28 22 21 20 20 24 28 34 35 35 36 35 34 33 33 33 33 34 35 35 34 33 33 33 33 32 31 30 30 31 32 36 36 37 37 37 37 37 39 39 38 37 35 33
34 33 22 27 26 21 36 36 34 34 34 33 33 33 33 33 33 33 33 32 30 30 29 29 28 28 27 28 28 30 31 34 33 31 31 30 29 30 32 34 34 33 32 30
33 36 29 29 33 37 39 38 33 33 33 32 33 32 32 32 32 32 30 29 28 27 26 26 25 25 25 26 26 29 30 31 30 29 28 28 27 27 26 27 28 27 29 29
29 34 32 32 36 38 37 34 33 32 32 31 30 30 30 30 29 29 27 26 25 25 25 23 23 23 24 25 26 28 29 30 28 27 26 26 25 25 25 25 25 28 28 28

GFSCGP_sfc_30mbdewp_063.txt.gz
Dewpoint
29 23 15 12 21 23 23 22 22 22 21 22 20 16 17 18 19 28 28 29 38 43 45 46 52 57 56 57 58 57 57 58 58 58 57 57 57 57 57 57 56 57 56 55
34 26 24 19 15 24 23 21 22 22 22 23 20 17 16 17 17 23 29 29 30 43 45 46 54 56 56 56 57 57 57 57 57 57 57 57 57 57 57 57 56 56 54 54
35 32 29 27 19 11 21 22 22 21 22 20 18 14 15 17 17 17 22 28 31 42 45 46 51 55 56 56 56 56 56 57 57 57 57 57 57 57 56 56 56 55 53 52
37 37 32 31 32 21 12 16 18 18 17 16 19 15 17 18 18 17 16 25 32 43 45 47 48 53 56 56 57 57 56 56 56 57 56 55 54 53 54 54 53 52 52 51
33 36 35 32 28 27 27 21 22 22 22 19 19 17 17 19 18 16 15 22 27 42 45 48 49 50 54 56 56 56 56 56 56 56 55 54 53 53 53 54 53 52 52 51
31 35 38 37 35 34 30 31 27 25 23 21 22 20 17 18 19 19 17 22 26 36 45 48 50 50 53 56 56 56 56 56 56 56 55 54 53 52 51 53 54 53 53 52
22 28 30 36 34 32 29 30 23 22 23 20 21 20 19 21 20 21 20 23 26 32 45 47 50 51 51 55 55 55 55 55 56 56 55 54 54 53 50 52 53 52 52 54
15 24 24 26 24 31 27 27 26 20 20 20 21 18 19 21 22 22 21 25 28 34 45 47 49 51 51 54 55 55 55 54 56 55 55 55 54 53 51 50 52 52 51 52
20 22 25 23 26 27 30 26 24 25 29 26 26 26 20 21 21 19 19 28 32 35 43 47 48 50 52 53 55 55 55 54 55 56 55 55 55 53 52 50 50 50 49 50
20 19 22 24 26 29 28 26 27 32 25 24 22 25 25 26 19 24 21 26 28 32 36 46 48 49 51 53 54 55 54 53 54 55 55 55 55 55 54 53 51 49 49 49
30 24 20 20 21 25 27 28 35 34 29 23 23 25 31 25 28 27 28 28 28 29 34 38 47 49 51 52 55 54 54 53 53 54 54 55 55 55 54 54 53 52 51 49
30 32 22 17 19 22 27 26 34 31 29 29 25 27 35 30 25 26 27 26 30 34 37 39 40 43 49 51 53 54 53 53 54 54 54 54 55 55 55 54 54 54 52 51
25 29 25 23 23 25 27 23 30 31 30 32 30 27 38 38 35 26 21 22 30 36 38 39 40 41 43 48 52 53 53 53 53 55 55 55 54 54 54 55 55 53 54 53
25 29 31 27 28 34 31 31 25 27 30 30 33 35 38 39 39 35 21 24 34 37 38 39 41 41 42 44 45 50 53 54 52 54 55 55 54 54 53 54 54 54 54 54
33 27 32 32 30 33 33 32 29 30 30 33 34 36 37 40 40 36 25 33 37 38 39 40 40 41 42 43 45 46 46 48 55 53 53 55 55 55 54 54 54 54 54 54
33 28 32 28 29 29 29 31 28 34 34 33 36 37 43 41 42 38 31 36 38 39 39 39 39 41 44 45 46 46 46 47 48 54 53 52 55 56 55 55 55 55 55 55
32 31 28 26 27 29 24 24 33 35 36 34 34 35 39 40 37 34 35 35 37 37 38 39 40 42 43 42 41 41 43 45 46 48 50 53 53 54 55 56 56 55 55 56
28 25 28 25 23 22 27 30 31 30 33 32 25 29 25 31 35 35 36 36 36 37 37 38 40 42 40 39 39 40 41 43 45 45 45 48 51 52 53 54 55 56 56 56
26 25 24 21 24 26 24 26 19 25 24 26 23 25 27 35 33 34 37 38 37 37 36 37 39 39 37 35 35 37 38 39 40 40 41 44 48 47 48 52 54 54 55 55
25 26 25 27 20 20 28 27 25 23 27 33 32 32 32 33 31 34 37 37 36 36 35 35 35 35 33 32 33 34 34 35 35 37 39 42 44 43 44 46 48 54 54 54
23 24 23 23 23 26 28 26 24 19 31 36 36 35 34 33 36 37 36 34 33 32 33 33 33 31 30 30 31 31 32 32 34 35 38 38 38 39 40 42 43 51 53 47
27 23 25 24 22 20 23 30 25 36 37 36 34 35 35 35 35 35 33 31 30 29 29 29 30 28 27 28 28 29 30 31 34 34 33 32 32 32 34 38 39 40 40 39
27 30 25 24 23 31 38 37 39 37 35 35 34 34 34 34 33 31 30 29 28 27 27 27 27 26 26 26 27 27 29 31 31 30 29 28 28 28 29 30 33 35 36 34
34 36 32 27 33 35 40 39 35 34 34 34 34 33 34 33 32 30 28 27 26 26 25 24 24 24 24 25 26 28 29 30 29 27 27 26 26 26 26 27 28 28 31 31
34 34 33 30 37 37 37 37 36 33 33 32 31 31 31 31 29 28 26 26 25 24 23 23 23 23 24 25 26 27 29 29 27 25 25 25 25 25 24 25 26 26 28 28
36 31 31 30 35 36 36 37 36 33 31 30 29 27 27 28 27 25 24 23 23 22 22 22 23 23 25 25 25 26 28 28 26 25 24 25 24 24 23 22 23 27 28 28

GFSCGP_sfc_30mbdewp_066.txt.gz
Dewpoint
31 26 25 16 18 24 23 23 23 23 24 23 22 22 26 25 18 18 23 30 41 44 45 51 57 57 57 57 57 58 58 59 59 59 58 58 58 58 58 58 57 58 57 58
35 29 27 23 17 16 22 23 24 24 23 23 22 23 21 21 19 19 26 30 40 44 45 52 56 57 56 56 56 56 58 58 58 58 58 58 58 58 58 58 57 57 57 56
32 33 34 27 24 20 17 17 23 23 23 22 24 22 19 19 18 19 25 29 35 44 44 51 55 56 56 56 56 56 57 57 57 57 57 57 57 57 56 57 57 58 57 55
36 37 36 34 30 27 27 17 15 18 20 21 24 21 20 19 19 20 20 24 31 43 44 50 54 55 55 56 56 56 56 56 56 57 56 56 54 54 55 56 56 57 56 54
30 35 36 33 31 30 27 32 31 28 26 24 22 21 20 20 19 20 20 20 28 42 44 48 53 55 55 56 56 56 56 56 56 56 56 56 55 55 55 56 55 56 56 53
31 38 35 34 34 33 36 32 30 26 24 22 23 23 22 20 19 19 20 21 26 42 45 46 52 55 55 56 56 56 55 55 56 56 56 55 54 53 53 54 54 54 53 52
19 27 34 37 34 34 34 32 23 21 21 22 25 23 23 23 22 22 22 22 25 42 45 47 49 54 55 55 55 55 55 55 56 55 55 54 53 53 53 53 53 53 52 51
14 17 23 35 33 32 31 33 27 23 25 24 23 19 20 23 23 23 23 23 30 43 46 48 49 52 55 55 55 55 55 55 55 55 55 54 54 52 52 53 53 53 52 51
17 21 24 30 31 32 33 33 33 30 28 27 27 26 27 28 24 22 21 28 35 44 46 49 50 50 54 54 54 54 55 55 55 55 55 54 54 53 51 51 52 52 53 53
20 20 22 25 28 29 30 36 31 32 25 23 24 23 25 27 28 27 27 31 39 44 46 48 50 51 52 54 54 54 54 54 55 55 56 55 54 54 53 51 51 52 52 52
32 26 19 24 25 29 31 34 35 34 32 27 24 29 39 33 29 31 35 37 39 40 44 47 49 51 52 54 55 54 54 53 54 55 55 55 55 55 54 53 51 50 51 50
29 31 29 25 23 24 31 34 34 30 28 31 31 31 41 39 33 29 35 38 39 40 41 43 48 50 52 54 54 54 54 53 54 55 55 55 55 55 55 54 53 52 50 50
24 27 26 22 23 23 27 29 34 35 35 31 29 31 43 41 41 38 34 37 39 41 41 42 43 44 46 49 54 54 54 54 54 54 54 54 55 55 55 55 54 54 53 51
26 28 27 25 31 33 32 32 33 35 31 30 31 33 40 42 41 38 36 38 39 40 40 42 43 45 46 47 47 47 50 51 53 55 54 53 54 54 54 54 54 54 54 53
30 23 31 31 32 29 29 34 34 33 33 30 31 32 38 43 40 40 40 39 38 38 40 42 43 43 42 41 42 43 44 46 47 54 55 54 54 54 54 54 54 54 54 54
34 26 31 27 28 25 26 33 34 36 37 31 32 34 41 45 45 41 39 38 38 39 40 41 41 40 38 39 39 41 42 43 46 46 46 52 55 55 55 54 54 54 54 54
30 30 26 23 26 22 24 27 30 31 37 37 35 36 42 41 42 39 37 37 37 38 39 40 39 36 34 34 36 38 39 41 40 41 42 44 45 49 54 55 55 54 54 54
27 26 27 24 23 12 25 25 26 34 36 37 38 40 42 40 42 42 37 36 36 37 38 37 35 33 32 32 33 35 35 36 36 37 38 40 42 45 45 46 49 55 55 54
30 26 23 20 19 19 17 28 28 30 33 36 36 40 42 38 37 36 36 36 35 35 35 35 32 31 31 31 32 32 32 32 33 35 35 37 39 39 40 42 43 45 46 53
28 28 22 25 19 13 24 28 29 29 31 36 35 38 36 36 34 34 34 33 32 32 33 32 30 29 28 28 30 31 30 31 32 33 33 33 33 34 36 38 39 42 43 44
24 25 23 22 22 23 26 28 30 23 32 36 36 37 37 35 34 33 31 29 29 29 30 30 28 27 26 27 29 29 29 30 31 31 30 29 29 29 32 33 35 39 40 40
23 23 23 23 22 18 32 31 25 34 37 36 35 36 34 33 31 30 29 28 27 26 26 26 26 25 26 27 28 28 28 30 29 28 28 27 27 27 28 30 31 34 35 35
28 30 28 24 23 36 34 34 36 38 37 37 36 35 33 31 29 29 28 26 25 24 24 24 24 24 25 25 27 27 28 28 27 26 25 26 25 25 27 27 28 29 31 31
35 36 32 32 35 35 36 35 33 32 32 32 33 33 32 30 28 27 26 24 23 22 22 23 23 24 24 25 26 27 27 26 25 24 24 24 24 23 24 26 26 27 27 27
35 34 32 34 35 36 37 37 36 31 31 29 28 30 29 27 26 25 24 23 22 22 22 23 23 23 23 24 25 25 26 26 24 23 23 23 23 23 22 24 25 26 28 28
33 29 28 28 35 33 35 36 35 32 28 27 26 25 25 25 24 23 22 21 21 21 21 21 21 22 22 23 24 24 25 24 23 21 21 21 20 20 20 21 20 22 25 27

GFSCGP_sfc_30mbdewp_069.txt.gz
Dewpoint
33 27 23 19 18 22 24 24 23 24 25 24 22 22 22 24 25 24 21 20 38 43 44 52 56 57 57 57 57 58 57 59 60 59 58 58 57 58 58 58 59 59 60 58
33 28 29 28 25 19 16 18 23 24 25 23 22 22 22 23 23 21 20 21 26 41 45 53 56 56 56 56 57 57 57 58 59 59 59 59 59 58 58 58 58 59 58 60
29 31 35 32 27 25 22 16 20 23 24 24 23 21 22 24 22 21 20 22 31 40 44 53 55 55 56 55 56 57 57 57 58 59 58 58 58 58 58 57 57 58 58 58
34 36 35 35 33 29 24 21 24 17 16 18 24 20 23 25 24 22 21 25 31 43 45 52 55 54 55 55 56 56 56 57 57 58 57 56 56 55 56 57 57 58 57 57
30 34 36 33 33 32 27 34 32 30 27 25 23 21 22 23 22 22 21 21 25 38 44 50 54 55 55 55 55 56 56 56 57 57 57 56 55 55 56 56 56 57 57 56
32 36 35 33 34 32 33 34 31 31 27 22 21 21 22 24 23 22 22 22 23 34 43 47 53 55 54 55 55 55 55 55 56 56 56 55 54 54 55 55 55 56 57 56
18 21 33 36 33 34 35 34 26 23 22 20 22 22 22 25 25 25 24 24 24 32 43 48 53 54 54 54 55 54 54 54 55 55 55 55 54 54 54 54 55 55 55 55
12 8 25 35 31 30 30 35 28 21 21 23 26 22 22 31 29 30 26 25 24 28 43 48 53 54 54 54 54 53 53 53 55 55 55 55 54 54 54 54 54 55 55 54
15 19 24 33 34 34 35 31 37 31 32 26 27 26 28 31 31 35 28 24 24 33 43 47 52 53 54 54 54 54 53 53 54 54 55 55 54 53 53 53 53 54 54 53
20 18 21 26 34 36 36 38 31 32 25 22 25 29 32 33 31 36 38 38 39 44 46 48 51 53 54 54 54 54 54 54 53 54 54 54 54 53 52 52 52 52 53 53
28 23 19 25 28 30 35 34 34 34 32 26 24 31 39 39 39 36 39 40 42 45 48 50 50 52 54 54 54 54 54 54 53 54 54 54 54 54 53 51 51 52 52 52
29 32 29 28 26 31 33 34 36 30 29 32 31 31 41 42 38 37 39 40 42 46 48 50 51 52 54 54 54 54 54 54 54 55 54 54 55 54 54 53 52 51 51 52
24 27 25 21 26 30 32 36 36 36 35 29 28 30 43 41 40 39 39 40 42 44 46 46 46 46 49 53 54 55 54 54 54 55 54 54 55 55 54 54 54 53 51 51
26 27 24 19 27 33 31 33 35 36 30 31 31 35 39 39 40 40 42 39 41 42 42 41 41 41 43 44 45 46 46 47 48 53 54 54 55 55 55 55 55 54 53 52
27 21 29 28 28 29 30 31 34 34 35 31 29 30 35 39 41 42 42 39 40 40 39 37 37 37 38 39 40 42 43 43 44 49 49 51 54 55 55 55 55 55 54 53
34 25 30 25 29 24 21 24 30 34 36 36 35 32 40 43 43 43 44 40 39 39 38 35 33 33 33 35 36 37 38 39 39 40 41 43 45 50 52 55 55 55 55 54
28 28 25 20 25 22 17 27 24 33 35 33 34 35 43 43 41 43 42 41 39 37 36 33 32 32 32 32 34 34 34 36 36 37 38 39 40 42 42 44 45 52 54 54
28 27 27 22 21 13 17 19 30 31 35 38 38 39 41 41 43 42 42 41 39 37 33 32 32 31 30 31 32 32 32 33 34 34 34 35 35 36 37 39 41 41 44 46
29 26 21 17 17 17 16 29 29 29 30 36 36 39 40 41 36 35 36 36 36 35 32 30 29 28 28 29 30 31 31 32 32 31 31 30 31 31 33 35 35 37 41 42
31 28 23 24 17 10 19 28 30 32 29 37 37 40 40 38 35 32 34 33 32 31 29 28 27 27 27 28 29 29 30 30 29 29 28 28 27 29 30 31 32 34 37 39
25 26 24 22 20 20 25 34 32 22 30 37 37 43 40 36 34 31 31 30 29 29 27 27 26 26 27 28 28 28 28 27 27 27 27 26 26 27 28 29 30 32 34 35
21 22 23 23 20 16 33 34 27 35 38 37 35 34 32 31 30 29 28 27 26 25 25 25 25 25 26 27 27 27 26 26 26 26 25 24 25 26 26 27 28 29 30 30
24 29 26 24 23 34 33 33 37 39 39 39 37 35 33 32 31 29 27 24 23 23 23 24 24 24 25 25 26 26 25 25 24 24 23 23 23 23 25 25 25 26 27 27
34 37 31 32 34 34 33 32 32 31 32 34 36 36 34 31 30 27 23 23 22 22 23 23 23 23 24 25 25 25 26 25 23 22 23 22 22 21 21 23 23 23 24 25
33 33 30 32 34 35 36 34 34 33 31 30 28 28 27 26 24 23 22 22 21 21 22 22 22 22 23 23 24 24 24 23 21 21 21 20 21 21 21 22 23 23 24 24
31 28 27 27 32 33 31 34 34 31 29 27 25 24 24 24 23 21 20 20 20 19 19 19 20 20 21 22 22 23 24 22 21 20 20 21 20 20 19 19 20 21 22 23

GFSCGP_sfc_30mbdewp_072.txt.gz
Dewpoint
31 26 21 21 18 18 20 21 21 24 25 25 24 24 24 24 24 23 24 23 22 35 43 50 55 57 57 57 57 58 59 60 60 59 58 58 57 58 58 60 61 60 60 58
33 28 28 28 26 22 20 18 16 19 23 25 24 23 24 24 23 23 23 24 23 26 43 52 55 56 56 56 57 56 57 59 60 59 58 59 58 58 58 58 60 61 59 57
28 28 34 32 31 28 26 24 22 18 19 23 22 21 23 23 24 24 22 22 21 26 40 52 54 55 56 56 56 56 56 58 59 59 58 58 58 58 57 57 58 59 60 58
33 35 33 34 34 33 28 27 24 20 21 17 22 19 22 22 23 25 25 23 24 28 42 52 54 55 55 56 56 56 56 56 59 59 57 57 56 55 57 57 58 58 59 59
28 33 34 34 32 33 31 31 32 31 29 26 25 22 20 23 23 24 25 25 23 34 42 51 53 54 55 55 55 55 56 56 57 58 58 57 57 56 57 57 57 58 58 59
33 34 35 33 33 34 33 33 31 30 29 24 24 23 20 21 21 24 24 24 23 24 43 50 53 54 55 55 55 55 55 54 55 56 57 57 55 55 55 56 56 57 57 57
17 18 31 34 31 34 33 32 25 24 24 22 23 23 21 21 22 30 32 30 27 25 35 49 53 54 54 54 54 54 54 53 54 55 56 56 55 54 54 55 55 56 56 55
11 11 23 34 29 27 33 30 26 20 20 23 26 21 23 31 33 37 39 39 30 26 35 47 53 53 53 53 53 54 54 53 54 55 55 55 54 54 55 55 55 56 56 56
13 17 23 31 34 30 32 32 36 31 32 28 25 26 32 39 38 38 39 41 41 33 32 46 52 53 53 53 53 53 53 53 53 54 55 55 54 54 54 55 55 56 56 56
18 19 21 32 35 37 34 38 30 31 24 21 23 29 33 37 37 38 40 42 44 46 45 50 53 53 53 53 53 53 53 53 53 53 54 54 54 53 53 54 54 54 55 55
22 24 21 32 30 31 33 32 33 33 30 26 25 31 39 38 38 38 40 44 46 49 49 51 53 52 53 53 53 53 53 53 53 53 53 54 54 53 52 52 53 53 53 53
33 33 28 26 28 32 35 35 34 29 29 32 31 31 41 39 39 39 41 43 44 45 47 51 52 53 53 53 53 53 53 53 53 54 53 53 54 54 53 52 51 52 52 52
31 31 24 20 27 32 32 35 35 35 33 30 27 29 42 40 41 42 39 41 40 40 41 43 45 46 50 52 53 53 53 54 55 54 54 53 54 54 53 53 53 51 52 52
26 28 21 15 19 30 27 28 31 33 30 30 31 33 39 39 41 41 39 39 37 37 38 39 39 41 43 44 45 45 45 46 47 53 54 54 54 54 54 54 54 53 52 51
24 20 28 27 27 28 27 26 26 30 32 30 33 34 36 38 41 42 39 38 35 33 33 34 35 36 38 38 38 38 39 40 42 45 45 46 50 55 55 55 55 55 54 53
33 27 28 22 28 23 19 14 22 24 32 33 34 33 36 44 43 44 41 37 36 33 32 32 32 32 33 34 33 34 36 37 38 38 39 40 41 43 44 45 47 54 55 55
28 27 24 18 23 20 8 21 19 26 34 35 31 33 41 42 42 42 41 39 36 33 32 32 30 30 31 32 32 32 33 34 34 34 34 34 35 36 37 40 41 42 43 45
28 26 25 21 19 7 10 17 28 32 33 36 36 38 41 40 42 42 41 39 37 34 32 30 29 29 29 30 31 31 32 32 31 30 30 30 31 32 34 35 35 37 39 42
30 26 21 16 16 15 14 28 29 29 26 33 37 38 38 37 36 34 37 36 34 33 31 29 28 28 28 29 30 30 29 29 28 27 27 27 29 30 31 31 33 34 36 39
30 27 22 23 16 9 14 28 32 32 23 37 36 36 37 37 34 32 35 34 32 30 29 27 27 27 27 28 29 28 27 26 26 26 25 26 28 28 29 29 31 33 35 35
27 27 24 22 20 19 24 32 35 21 23 35 36 39 38 38 36 34 32 31 30 27 26 26 26 26 27 27 27 26 26 25 25 24 24 24 26 27 27 28 29 30 31 29
19 22 23 24 21 16 33 33 23 35 36 34 33 35 32 31 31 29 28 27 26 24 24 25 25 25 26 26 25 24 24 24 24 24 23 22 23 24 24 25 26 27 28 27
19 25 25 24 23 32 33 32 32 39 38 35 34 33 31 30 29 28 25 25 24 23 24 24 24 24 25 25 25 25 24 24 23 23 22 21 22 22 23 23 24 24 24 24
31 35 30 31 33 32 32 32 32 31 30 35 34 33 32 28 27 25 24 23 22 23 23 23 23 23 23 24 24 24 23 22 22 21 21 21 21 21 21 22 23 23 22 21
31 32 29 31 33 34 34 33 32 30 30 29 29 29 28 26 25 23 22 21 21 21 21 21 21 21 21 22 22 24 22 22 21 21 21 20 20 21 20 22 22 22 24 22
30 28 26 26 30 31 28 30 31 28 27 27 25 24 24 23 22 22 20 19 18 18 18 18 19 19 19 20 20 21 22 22 21 20 20 19 20 19 19 19 19 20 21 22

GFSCGP_sfc_30mbdewp_075.txt.gz
Dewpoint
30 23 20 22 22 21 18 18 17 18 21 21 20 23 25 27 26 25 25 25 25 26 30 40 52 55 56 58 59 59 59 59 59 58 58 58 58 59 59 61 61 60 60 62
33 26 27 26 24 21 21 20 19 21 20 18 17 19 25 26 25 26 25 26 25 27 27 43 53 55 56 57 59 58 59 59 60 58 58 58 58 59 59 60 61 61 60 60
25 26 33 29 30 29 28 27 27 26 26 25 21 19 19 20 25 25 25 25 26 26 26 38 52 54 56 56 58 58 58 59 59 59 59 59 59 58 58 58 59 59 59 58
31 33 31 33 31 33 27 30 28 27 25 21 21 17 20 22 22 24 24 26 27 27 27 32 50 54 55 56 58 57 57 57 59 59 58 57 56 56 57 57 58 59 59 58
25 33 35 32 29 33 29 32 31 30 29 27 26 23 21 23 22 22 25 26 28 29 29 39 49 52 55 56 57 56 56 57 58 58 57 56 56 56 57 58 58 58 59 58
32 34 35 33 33 33 33 32 31 30 29 25 24 23 21 21 21 25 29 33 33 31 32 41 50 53 54 56 56 55 56 56 58 58 58 57 57 56 56 56 57 57 58 59
18 21 31 34 30 32 30 28 24 23 23 19 23 24 23 25 27 36 37 38 40 38 36 46 51 52 54 55 55 55 55 55 56 57 58 57 56 56 56 56 57 57 57 57
13 14 22 33 26 24 30 27 25 19 20 22 26 21 23 38 38 39 41 42 43 43 33 46 51 52 54 54 54 54 54 53 54 55 57 57 56 56 56 56 56 56 57 56
14 15 22 32 33 27 31 29 32 30 29 27 23 25 36 37 38 40 42 44 46 46 44 40 51 53 53 53 53 53 54 53 53 54 55 55 55 55 55 56 56 56 57 57
18 16 22 34 35 36 33 36 30 31 21 20 21 25 31 36 37 39 42 44 47 49 48 47 52 53 53 53 53 54 54 54 53 53 55 55 55 55 55 55 55 56 57 57
21 24 22 33 31 29 32 30 34 32 29 23 24 30 38 38 39 40 42 42 43 46 50 51 51 53 53 53 54 53 53 53 53 53 54 55 55 55 55 54 55 55 56 55
35 32 23 23 27 32 32 31 34 28 27 30 30 28 42 40 39 40 40 40 42 43 45 50 52 53 53 53 53 53 53 52 53 53 53 53 55 55 54 54 54 55 54 55
33 31 26 26 30 33 31 34 36 35 32 28 27 30 43 42 38 38 37 37 38 40 41 42 44 45 49 51 51 50 51 53 54 54 54 54 53 53 53 54 53 54 54 54
34 27 28 20 20 27 27 26 28 32 27 27 30 33 38 38 40 37 35 35 35 36 38 38 38 40 41 42 42 43 45 46 52 54 53 53 54 54 54 54 54 53 53 53
34 25 29 26 27 28 24 23 20 20 28 27 27 28 34 38 40 42 36 33 33 33 33 34 34 35 37 37 39 40 40 41 42 43 43 44 46 47 50 52 54 55 54 53
35 27 29 22 28 22 18 16 19 24 23 26 31 31 35 37 43 41 38 34 32 32 31 31 31 31 32 33 34 35 36 36 35 35 35 36 38 40 41 43 45 46 46 48
31 29 23 17 22 18 9 16 16 22 28 30 29 32 39 42 42 40 38 35 32 32 31 29 29 30 30 31 32 32 31 31 31 32 31 32 34 35 36 37 38 40 42 43
30 25 25 19 19 5 9 18 24 30 31 30 31 37 40 38 37 40 38 36 35 33 31 29 29 29 29 30 30 30 29 28 28 28 28 30 32 32 33 34 36 37 40 41
33 27 21 16 16 15 14 27 27 30 27 36 35 38 39 38 36 33 35 34 32 31 31 30 29 29 29 29 28 28 27 26 26 26 27 29 29 30 31 32 34 36 37 36
30 27 22 22 17 8 14 29 30 33 17 35 35 36 38 38 35 31 32 32 30 28 27 27 28 28 28 27 27 26 25 24 24 24 26 27 28 29 29 30 32 32 31 30
27 27 22 21 19 19 28 32 34 11 20 34 34 37 38 37 34 30 30 28 28 28 26 26 26 26 27 25 25 24 24 24 23 23 24 25 25 27 28 28 29 29 28 28
19 22 23 22 19 15 32 33 25 33 36 33 32 32 31 29 28 27 26 26 26 26 24 25 24 24 24 25 24 24 23 23 23 22 23 23 24 25 25 26 26 26 26 26
20 27 25 24 23 32 32 32 32 37 36 34 33 32 30 28 26 25 24 24 24 24 23 23 23 23 23 23 23 22 23 22 23 22 22 22 22 22 23 24 23 23 23 23
29 34 30 30 32 32 33 32 31 32 32 32 32 30 27 24 24 23 23 23 23 22 21 21 21 21 22 22 23 22 21 21 21 21 21 21 21 21 21 22 22 22 21 21
30 31 28 30 31 31 30 30 30 29 29 29 29 28 26 25 23 22 21 21 20 20 19 20 20 20 20 20 21 22 21 21 20 20 20 20 20 20 20 21 21 21 23 22
29 27 26 24 28 28 26 28 29 27 26 27 25 24 24 23 21 21 19 19 18 18 18 18 18 18 19 19 19 20 21 21 20 19 19 19 19 19 18 17 18 20 20 21

GFSCGP_sfc_30mbdewp_078.txt.gz
Dewpoint
20 17 14 13 17 15 16 16 15 14 16 17 17 17 18 19 23 25 25 24 23 22 22 24 34 48 53 56 58 59 60 60 60 60 59 59 60 60 60 61 61 61 61 62
27 20 16 17 18 19 17 15 16 20 22 22 20 20 20 19 18 20 24 25 24 23 21 23 35 48 53 55 57 58 59 59 59 59 58 59 60 60 61 61 61 61 61 61
20 17 28 25 23 21 21 22 22 24 26 26 25 20 19 21 22 21 23 24 25 24 22 22 34 48 52 55 57 57 58 59 59 58 58 59 59 59 59 60 59 60 61 60
22 23 24 26 24 26 22 26 26 25 25 16 22 14 18 20 21 19 20 24 24 24 23 25 29 44 50 54 57 57 58 58 58 57 57 57 56 56 57 57 59 60 60 59
18 26 30 24 23 27 22 29 26 26 26 25 23 22 18 21 21 21 21 23 25 26 23 27 30 38 48 53 57 58 58 58 57 56 56 56 57 56 57 58 58 59 59 58
24 26 31 28 31 27 27 26 22 23 26 22 21 21 17 19 23 24 27 27 30 31 32 31 32 42 48 54 57 57 57 57 57 56 57 57 56 56 56 57 57 58 58 58
19 21 27 30 26 27 27 19 9 16 21 16 20 20 20 23 32 33 33 36 38 39 38 34 40 45 49 54 57 57 56 56 57 56 55 56 55 56 56 56 56 58 58 57
12 13 18 27 25 17 22 20 16 13 12 14 22 19 21 35 36 37 38 41 43 43 42 35 43 47 50 54 55 56 56 55 56 55 54 57 57 57 56 56 56 57 57 58
14 15 20 28 28 24 28 26 27 26 25 23 18 19 30 33 35 37 40 42 44 47 47 40 44 49 51 53 54 56 55 55 55 55 55 57 57 57 56 57 57 56 57 57
18 15 20 29 31 30 31 31 28 29 21 16 15 19 24 35 37 39 41 42 43 46 49 45 47 51 52 53 54 56 55 54 55 54 55 54 55 56 56 56 55 54 56 56
20 19 22 30 28 23 30 29 31 33 29 20 17 29 39 38 39 40 40 41 42 44 46 49 50 51 52 53 54 55 54 54 54 54 55 54 53 54 55 55 54 55 56 57
26 26 20 19 22 26 25 25 29 25 25 30 29 27 41 38 37 38 38 38 40 41 43 45 51 52 53 53 54 54 54 54 54 54 54 54 54 54 55 54 55 55 55 56
35 29 20 19 27 29 27 29 35 33 33 28 26 30 40 41 37 37 36 36 37 39 39 40 42 43 44 48 52 53 53 53 54 53 53 53 53 54 54 54 54 55 55 55
35 30 24 12 26 26 26 26 28 28 25 23 21 27 34 38 38 39 34 36 35 35 36 36 36 38 40 42 43 45 47 52 53 53 52 51 53 54 54 54 54 54 54 54
32 29 25 27 28 28 20 18 18 22 23 21 15 16 21 30 36 39 34 35 34 33 33 33 34 35 36 37 39 40 39 42 43 42 43 43 44 46 47 49 49 53 54 54
33 29 26 24 26 23 20 17 13 16 21 20 21 23 29 36 41 38 35 36 34 32 31 31 31 32 33 34 35 35 36 36 36 36 37 38 39 40 41 42 43 45 46 47
30 29 25 20 21 17 12 12 15 17 19 26 25 27 34 36 40 38 37 34 34 31 30 30 30 31 31 31 31 31 32 32 32 33 34 35 36 36 37 39 40 42 42 40
29 28 25 16 15 5 16 18 21 23 24 30 28 36 39 38 37 37 37 35 33 33 32 30 30 30 29 29 29 28 27 28 29 30 30 32 33 35 36 38 39 40 37 35
33 31 24 14 11 9 9 24 24 24 23 33 33 34 39 36 34 31 33 32 30 30 30 31 30 30 28 27 27 26 26 26 26 27 28 29 31 32 34 35 35 35 34 32
29 28 28 18 10 6 22 26 27 26 18 33 34 35 37 38 35 28 30 30 29 29 30 28 28 27 27 28 26 25 25 25 25 26 26 28 29 30 31 32 32 32 31 30
24 24 21 17 13 14 27 29 30 14 25 34 34 33 36 37 30 27 27 27 29 29 29 29 27 26 25 26 26 25 24 23 25 25 26 27 28 29 29 30 30 30 29 29
18 19 20 19 17 14 32 31 26 33 36 34 32 30 27 27 26 26 26 26 27 28 27 25 24 24 24 24 24 23 24 24 24 24 24 25 26 26 27 28 27 28 27 27
21 28 25 23 26 32 33 32 33 35 35 34 32 30 27 26 25 25 24 25 26 27 23 23 23 23 23 22 22 22 23 23 23 23 23 23 23 24 24 24 25 25 25 25
28 31 28 30 28 30 32 31 31 32 31 30 30 28 27 24 24 23 23 23 24 25 21 21 21 21 21 22 22 22 22 22 22 22 21 22 22 22 22 22 23 24 24 24
29 30 28 28 28 30 29 30 29 30 29 29 30 29 27 26 25 24 22 22 22 23 23 20 20 20 20 21 21 22 22 21 21 21 22 21 21 21 21 22 22 21 23 24
29 26 26 26 29 28 26 29 29 28 28 29 27 26 26 25 22 22 21 21 21 20 20 20 20 20 20 20 21 21 22 22 22 21 22 22 21 21 20 19 18 20 20 21

GFSCGP_sfc_30mbdewp_081.txt.gz
Dewpoint
19 17 14 15 16 17 13 11 10 11 11 12 12 13 13 14 15 18 23 24 24 24 21 19 23 31 42 49 55 59 60 60 60 59 59 59 59 60 61 61 62 62 62 62
18 16 15 13 13 13 14 14 13 13 14 19 20 19 18 18 16 16 17 21 24 25 23 21 22 32 46 50 55 58 60 60 59 58 58 58 59 59 60 61 61 61 61 62
19 18 23 20 17 15 14 14 14 16 19 19 18 17 18 19 22 21 19 17 20 25 24 21 21 32 47 50 55 57 59 59 59 57 58 58 59 59 59 59 60 60 60 60
18 19 18 15 18 17 15 18 20 22 19 13 17 14 15 14 16 18 19 21 20 24 25 23 19 30 45 49 54 57 58 58 58 58 57 58 57 56 57 57 59 59 60 61
15 18 22 20 18 20 20 22 25 23 19 16 15 14 13 16 17 19 21 21 20 23 25 22 21 23 42 49 54 57 57 57 57 57 56 55 54 55 56 56 58 60 59 60
19 19 21 22 23 26 21 24 24 20 16 14 16 14 11 14 23 25 26 27 24 25 25 25 20 21 38 48 54 57 57 57 57 57 56 54 54 55 56 56 58 59 59 58
20 20 22 27 22 24 24 22 11 5 14 15 16 17 14 20 30 31 32 33 36 37 36 32 27 28 35 47 54 56 56 56 56 56 56 54 54 56 56 56 57 58 57 57
8 7 16 21 24 20 19 20 12 10 10 18 24 17 24 31 32 34 36 39 41 44 46 40 33 33 41 48 54 56 56 56 56 56 55 54 54 55 55 56 56 57 57 58
9 7 18 23 25 22 22 20 19 18 18 15 13 13 26 33 33 35 38 40 42 44 46 46 37 43 45 51 57 56 55 56 56 55 55 54 54 54 55 56 57 58 58 58
14 11 17 23 25 25 23 28 27 23 18 14 13 14 33 35 35 38 39 40 42 43 45 49 43 46 48 55 56 56 56 56 56 55 54 55 55 55 56 57 56 56 56 56
27 16 12 16 21 19 24 25 26 29 27 20 18 29 38 36 37 37 37 39 40 41 41 45 49 50 54 55 55 57 55 56 56 55 54 54 55 55 56 56 55 55 56 56
32 32 15 11 16 19 19 23 25 25 19 25 26 26 38 37 37 37 37 37 38 38 39 41 45 47 53 54 55 55 55 54 55 54 55 54 54 54 55 54 54 55 55 56
32 27 19 15 17 19 18 19 23 30 32 25 24 27 39 37 38 38 37 36 36 36 36 37 39 41 44 46 50 52 55 55 55 55 55 54 54 55 54 54 55 55 55 55
30 25 25 16 20 29 29 20 25 28 26 23 24 20 35 35 38 39 36 36 35 34 34 35 35 37 39 41 42 43 45 50 53 53 52 52 53 54 54 54 55 56 56 55
29 23 21 23 19 23 28 32 24 26 25 19 17 14 17 27 36 39 36 36 34 33 32 32 33 34 35 37 38 39 40 41 44 44 44 44 45 46 47 48 50 52 50 50
32 22 23 24 27 24 24 27 18 16 13 14 16 16 29 37 40 38 36 35 33 33 32 31 32 32 32 33 35 35 37 37 39 39 39 40 41 42 43 44 45 43 42 42
27 26 24 18 26 23 22 21 17 12 16 16 21 28 35 38 39 37 36 35 33 32 32 31 32 31 31 31 31 34 35 37 36 36 36 38 39 40 41 42 40 39 37 37
28 26 27 21 22 16 16 15 14 14 17 25 27 34 36 36 34 35 36 34 32 32 32 31 31 29 30 30 31 31 32 32 33 33 35 36 37 38 39 39 37 36 35 34
21 28 24 24 13 14 10 20 20 21 30 30 29 30 37 34 33 29 31 31 30 30 30 31 32 30 29 27 27 28 28 30 29 30 30 32 34 35 35 35 35 34 33 32
22 30 26 24 16 11 23 24 26 22 22 32 31 32 33 36 34 28 30 29 29 30 30 31 31 31 32 31 27 26 26 26 27 28 29 30 31 32 32 33 33 32 32 31
23 25 23 25 14 17 27 25 25 15 28 33 33 31 30 30 27 27 28 28 29 30 29 30 31 31 31 32 31 29 27 26 26 27 28 28 30 31 31 32 32 31 31 30
17 15 17 18 16 16 31 28 27 33 35 34 32 29 27 26 26 26 27 27 29 29 31 31 30 28 26 25 26 25 27 29 29 28 26 27 28 28 29 30 31 30 29 28
23 29 29 28 27 32 31 31 33 34 34 33 31 28 27 26 25 26 26 27 28 30 28 25 23 23 23 23 23 24 24 24 24 25 26 27 27 27 28 29 29 29 29 29
28 27 28 29 28 29 31 31 31 31 30 29 28 28 27 26 26 25 25 25 25 27 24 22 22 22 22 22 22 23 23 23 23 22 22 23 23 23 23 23 24 25 27 26
27 28 27 28 29 29 29 31 32 30 30 30 30 29 28 27 26 25 24 24 25 26 27 22 21 22 22 22 23 22 23 23 23 23 23 22 22 21 20 21 22 22 23 24
27 26 26 26 29 28 27 30 32 30 29 31 28 26 26 25 24 24 23 24 23 23 25 23 22 21 21 22 22 24 25 24 23 23 23 24 23 21 20 18 18 19 20 20

GFSCGP_sfc_30mbdewp_084.txt.gz
Dewpoint
20 17 13 14 14 15 15 15 13 12 10 10 11 11 12 13 12 13 14 17 23 25 26 24 24 21 28 41 56 62 62 62 63 61 60 60 60 61 62 62 62 62 63 63
17 16 17 16 15 13 13 11 11 12 12 14 13 12 17 20 20 18 15 15 19 25 26 26 24 26 38 49 55 62 62 62 62 61 60 59 59 60 60 61 61 62 62 62
17 16 18 21 18 17 14 12 12 11 12 16 19 16 15 17 16 19 19 19 17 20 26 27 26 27 43 50 56 60 61 61 61 59 59 59 59 59 57 59 61 61 62 61
16 17 16 17 17 16 15 14 14 18 16 18 18 15 14 11 15 18 22 22 23 20 19 26 27 26 46 49 57 59 60 60 60 59 58 58 57 57 57 58 60 60 61 61
16 14 16 17 18 15 12 16 19 20 22 21 20 14 12 12 12 14 18 22 24 24 22 25 27 26 47 50 57 59 60 59 59 59 58 58 57 57 57 58 59 59 60 61
14 16 15 14 18 19 22 21 18 21 21 19 19 12 12 14 26 29 30 31 37 29 23 25 28 27 42 50 56 59 59 59 59 59 59 58 56 55 56 57 58 59 58 58
16 18 18 19 20 20 23 21 14 12 9 14 27 28 18 30 33 31 31 39 41 44 46 48 44 27 30 50 56 58 58 58 58 58 58 57 56 55 56 57 58 58 57 57
7 6 11 20 23 19 19 21 18 9 14 15 20 29 26 32 38 41 41 41 42 43 45 47 48 50 38 52 57 58 57 57 58 58 57 57 57 56 56 57 58 58 57 57
14 10 18 18 20 20 18 16 19 18 18 16 16 24 38 40 37 38 39 40 41 42 43 45 47 50 40 52 57 57 57 56 57 58 57 56 56 56 57 57 58 58 58 58
22 21 14 18 22 22 20 21 24 29 19 13 11 19 32 36 37 37 37 38 40 41 41 42 44 48 55 55 58 58 57 56 57 57 57 55 56 55 56 57 58 58 59 58
23 25 26 23 27 22 19 21 21 26 25 21 22 29 37 37 38 36 37 37 38 38 38 39 41 44 49 56 57 57 57 57 56 57 56 56 55 56 57 57 57 56 57 58
20 31 25 21 19 21 20 17 23 24 20 23 23 26 38 36 37 37 36 37 37 36 37 37 38 40 43 46 52 56 56 57 56 56 56 55 55 56 57 56 56 56 56 57
22 23 19 16 15 16 19 21 28 31 31 26 25 24 37 38 37 38 36 37 35 35 35 35 36 36 38 40 42 45 51 56 56 56 55 55 55 55 55 55 55 56 56 56
26 19 20 19 21 26 27 31 29 24 26 24 23 27 27 36 36 38 36 36 34 33 33 33 34 34 35 37 38 40 43 49 53 52 51 51 52 53 53 55 55 56 56 56
18 16 16 21 20 19 24 31 28 27 32 24 23 18 32 37 39 37 36 35 33 32 32 32 32 32 33 34 36 38 39 41 45 46 45 46 47 48 49 48 47 47 47 45
28 20 17 15 17 18 22 23 28 30 34 32 29 20 39 41 38 37 36 34 33 32 32 32 31 31 32 32 34 35 38 39 40 41 42 42 43 44 43 42 41 40 40 39
20 26 22 15 14 18 22 19 19 22 29 22 22 34 35 36 35 35 34 33 32 32 32 31 31 31 31 32 33 33 34 36 38 39 40 41 42 40 39 38 37 37 36 35
20 21 22 20 19 14 18 17 17 18 30 34 29 34 35 34 32 32 33 32 31 30 30 30 31 31 31 31 31 32 32 33 34 35 37 39 39 39 38 36 35 34 34 34
20 20 22 20 19 23 17 17 18 19 32 31 30 30 35 33 32 29 30 30 29 29 30 30 31 31 32 31 30 30 31 32 32 33 34 35 36 37 36 35 35 34 33 32
16 19 25 20 18 19 30 29 24 22 28 33 31 31 30 34 32 26 29 29 29 30 30 30 31 31 31 31 31 30 30 31 31 32 33 33 34 34 34 34 33 32 31 30
16 23 21 21 21 28 30 31 25 17 27 32 31 29 28 27 26 27 29 28 30 30 30 31 31 31 31 31 31 29 30 30 31 31 32 33 33 33 32 32 32 31 30 29
17 20 21 22 24 21 30 29 27 31 33 31 29 27 26 26 26 27 28 29 30 30 30 31 30 31 32 32 32 30 28 30 30 30 31 31 32 33 33 32 32 31 30 29
25 29 27 26 24 32 30 31 31 31 31 30 29 28 26 26 25 26 26 27 28 31 31 31 30 28 25 27 28 27 29 31 31 31 30 29 30 29 28 27 29 29 30 29
28 28 29 29 28 28 30 30 30 30 29 29 29 28 28 26 26 25 25 26 26 28 29 28 25 23 23 23 23 23 24 23 24 23 23 22 22 23 24 24 24 23 27 26
27 26 27 28 30 29 27 31 30 31 30 30 30 29 28 27 26 25 25 25 25 26 27 27 26 24 24 24 25 27 24 25 24 24 23 22 21 20 20 22 22 21 23 24
28 26 24 25 29 28 27 30 29 29 30 31 28 27 27 25 25 25 23 24 23 23 24 24 24 24 23 23 24 25 27 26 25 25 26 25 22 20 19 18 19 20 20 20

GFSCGP_sfc_30mbdewp_087.txt.gz
Dewpoint
22 17 14 15 16 16 16 13 13 15 16 13 12 12 13 12 13 13 13 14 14 15 19 26 27 26 25 24 60 63 63 64 63 62 61 60 59 62 63 63 63 62 62 62
20 18 18 18 17 16 16 14 13 12 13 13 13 12 15 19 19 17 18 18 17 15 16 25 27 28 26 37 61 63 63 63 62 61 60 60 59 60 61 62 62 62 62 62
20 19 20 18 18 17 17 17 15 13 15 15 15 14 18 20 20 19 16 18 21 16 17 19 26 28 32 50 61 62 62 62 61 61 60 60 59 60 59 60 59 60 62 62
18 20 19 18 20 19 17 18 17 14 15 18 22 20 21 21 19 16 29 26 18 19 17 22 26 28 46 60 62 62 62 62 61 60 59 59 58 58 58 58 60 60 61 62
17 17 16 16 16 18 17 17 16 18 18 20 20 20 19 21 18 15 41 42 30 25 28 27 26 25 46 58 61 61 62 61 60 59 58 58 57 57 57 58 59 60 61 61
16 17 16 15 16 17 19 23 23 23 20 17 19 23 24 25 24 36 42 43 43 44 45 46 47 49 46 57 60 60 61 60 59 59 58 58 57 57 56 57 58 59 59 60
19 17 18 15 15 18 20 22 20 15 15 15 20 21 26 39 41 41 41 42 42 43 43 44 46 47 49 51 59 60 60 59 59 58 58 58 57 56 56 57 58 58 57 57
3 5 9 18 16 18 21 20 21 16 15 18 19 18 30 39 41 39 41 41 41 41 42 43 44 45 47 51 58 59 59 59 59 58 58 58 57 56 57 58 58 57 57 56
23 18 23 20 22 22 21 19 22 21 21 19 17 17 37 39 40 40 38 38 39 39 39 41 42 43 47 55 58 59 59 58 59 58 59 58 56 56 57 58 58 57 57 57
19 21 24 23 24 22 20 21 20 26 20 19 17 26 31 35 35 38 38 37 38 37 38 39 40 42 45 49 56 58 58 58 58 59 57 57 56 56 58 59 58 58 58 57
14 25 24 23 22 22 20 21 22 24 25 21 19 23 36 37 37 38 38 37 36 36 36 37 37 39 42 44 48 51 58 58 58 58 57 56 56 57 58 58 59 59 58 57
23 23 17 18 20 20 23 25 25 21 21 24 25 27 38 38 39 37 36 36 35 35 35 35 35 36 38 40 42 44 50 57 57 57 56 56 55 56 57 57 57 58 58 59
23 21 18 10 12 26 28 31 32 34 31 28 25 25 39 38 39 37 35 34 34 34 34 34 34 34 34 37 39 40 43 53 57 57 56 56 57 57 57 57 57 57 57 57
22 21 19 17 17 20 26 27 26 31 28 30 29 27 31 35 38 36 35 34 33 32 32 33 33 33 33 35 36 38 40 43 50 51 52 52 53 53 53 54 55 55 56 52
23 18 19 18 16 16 17 25 22 26 30 29 31 31 37 38 37 36 34 33 32 32 31 31 31 32 32 33 34 35 38 40 44 47 48 47 48 47 47 47 46 45 44 43
25 19 23 18 19 20 14 15 18 23 30 32 33 33 39 39 37 34 33 33 32 31 31 31 31 31 31 32 33 34 35 37 41 42 43 44 43 42 41 41 40 40 38 37
18 19 20 13 18 20 18 19 19 25 31 31 29 35 36 34 32 33 33 32 31 30 30 30 30 31 31 31 32 32 34 35 36 39 40 40 39 38 37 37 37 36 35 34
18 19 20 18 19 13 14 24 26 33 34 35 36 34 34 31 30 30 31 30 29 29 29 29 30 30 31 32 32 32 32 33 34 35 37 38 37 37 36 35 34 34 33 32
20 21 21 17 18 20 19 31 30 30 30 31 30 31 33 31 29 27 29 29 29 29 30 30 31 31 31 31 32 32 32 32 32 32 33 36 36 35 34 34 33 32 31 30
26 25 22 21 17 14 28 32 32 33 26 31 29 29 29 33 29 24 28 29 29 30 30 31 31 31 30 30 31 31 30 31 30 31 31 33 34 35 34 33 32 31 30 29
21 22 20 21 16 23 30 30 31 24 25 29 28 26 26 23 25 27 29 29 30 30 31 32 32 30 30 31 31 29 29 28 30 31 31 32 32 32 33 33 32 30 29 28
20 20 21 21 20 18 29 29 24 30 31 28 27 26 25 25 26 26 27 27 30 30 30 31 31 31 32 32 30 29 28 30 31 30 30 29 29 29 31 31 31 31 30 28
25 29 25 25 23 30 30 29 31 31 31 29 27 26 25 25 25 25 25 26 28 30 29 30 29 29 29 31 29 28 29 30 28 26 25 25 26 26 26 26 28 29 29 27
27 27 28 27 27 27 30 31 31 32 30 28 28 27 25 24 24 24 24 24 24 26 27 27 25 24 25 27 29 28 26 26 26 24 24 24 23 23 24 23 24 24 25 24
26 26 26 27 28 28 28 30 31 31 30 29 29 27 27 25 25 24 23 23 24 24 24 24 24 23 24 25 26 27 27 26 23 22 21 20 20 21 21 22 22 22 24 22
28 25 22 22 27 26 27 30 30 29 29 29 26 26 26 24 23 23 22 22 22 22 22 22 22 22 22 23 25 26 26 27 26 26 25 22 20 19 18 18 18 20 21 21

GFSCGP_sfc_30mbdewp_090.txt.gz
Dewpoint
20 17 16 12 15 16 16 17 16 16 15 15 12 12 13 14 14 15 17 18 17 15 17 17 20 24 25 25 49 61 64 64 64 63 62 62 62 63 63 63 63 63 63 63
21 19 20 18 16 16 16 15 15 16 15 14 13 13 14 15 15 16 18 21 20 19 19 19 18 22 27 28 50 62 63 63 63 63 62 61 60 62 62 62 62 62 62 62
20 20 21 20 19 18 18 17 16 17 18 17 15 15 18 20 22 23 23 29 42 42 30 21 19 20 25 32 58 62 63 63 62 62 60 60 59 60 60 61 61 61 61 61
20 21 20 20 19 18 16 20 19 17 16 13 21 16 18 20 20 22 23 43 43 43 45 37 39 41 41 37 57 62 63 62 62 61 60 59 58 57 58 59 59 60 61 61
18 17 16 16 16 18 16 20 20 19 18 20 18 17 16 26 38 40 42 43 43 42 42 44 46 47 49 54 59 61 63 62 61 61 60 58 57 57 58 58 58 58 59 61
17 19 17 16 16 16 19 19 23 22 21 18 17 17 20 35 37 36 40 42 43 42 42 43 45 46 46 51 61 62 62 61 60 60 59 58 58 57 57 57 58 58 59 60
17 18 19 18 16 16 17 19 18 17 16 15 18 19 22 36 38 38 39 42 42 41 40 42 43 45 46 50 53 61 61 60 60 59 58 58 58 57 56 57 57 58 58 59
13 8 15 23 20 15 17 18 18 14 12 11 20 18 28 38 38 39 43 42 40 40 39 40 41 42 45 49 54 61 61 59 59 58 58 58 57 57 57 57 58 58 58 58
17 19 21 26 25 20 21 20 21 19 20 20 20 29 36 37 38 41 43 40 38 37 37 38 39 40 43 46 51 59 60 59 58 58 58 57 57 56 57 58 58 58 57 57
14 9 25 22 22 23 23 25 18 23 17 16 19 19 26 33 36 38 39 38 35 35 36 36 37 38 41 44 47 53 59 59 58 58 58 58 57 57 57 58 57 57 57 57
18 21 16 12 21 18 17 19 26 26 23 19 17 19 35 34 36 39 37 36 34 34 34 34 35 37 39 41 43 47 51 59 59 59 58 57 57 57 58 58 58 57 57 57
23 21 16 14 18 18 19 27 33 26 24 25 22 21 36 36 38 36 35 34 33 33 33 33 34 34 36 37 40 42 45 49 58 58 57 57 57 58 58 58 58 58 57 57
19 17 12 4 9 23 23 23 24 29 31 27 24 23 36 40 36 35 33 33 33 32 32 32 32 33 34 35 36 39 42 44 53 57 57 57 57 57 57 57 58 58 58 57
23 19 15 12 14 18 17 16 16 24 24 26 25 30 34 37 37 35 33 33 32 32 31 31 31 32 33 34 34 36 39 42 46 52 54 54 54 54 54 54 54 54 52 51
22 18 20 20 21 20 19 19 16 15 20 25 28 31 35 37 36 34 33 32 31 31 31 31 30 31 32 33 33 34 36 39 43 46 47 47 48 48 48 47 46 44 43 42
23 17 16 9 15 17 17 20 19 16 16 20 25 32 34 36 35 33 32 31 30 30 30 30 30 30 30 31 32 34 35 36 40 40 41 42 43 42 41 41 40 39 38 38
18 16 14 8 16 18 15 19 19 15 24 30 28 34 35 31 29 29 30 30 29 29 29 29 29 29 30 30 32 33 34 35 36 38 38 38 38 38 37 37 36 35 34 35
17 16 18 16 18 12 18 32 30 31 32 33 33 34 32 28 28 28 29 28 28 28 28 29 29 30 30 31 31 33 33 34 34 34 36 35 35 35 34 34 33 32 32 32
20 19 20 16 15 15 18 30 28 26 27 31 30 33 31 28 27 26 28 29 28 29 30 29 30 30 30 30 31 31 31 32 32 32 32 34 33 32 32 30 30 30 30 30
24 21 22 21 16 13 25 28 32 32 23 30 29 27 30 30 28 23 28 29 29 30 31 30 30 30 29 30 31 30 29 29 29 30 31 32 32 32 31 30 29 29 29 28
23 24 20 20 18 20 27 30 32 23 22 27 26 25 26 24 25 27 29 29 30 30 30 31 31 30 30 31 30 28 28 27 29 30 30 30 31 31 31 31 30 29 28 27
24 22 22 23 19 17 28 27 23 28 30 26 25 24 23 25 26 26 27 29 29 29 29 29 27 27 30 31 30 28 26 27 27 27 27 27 27 28 29 30 30 29 28 26
22 25 23 23 21 28 29 28 30 31 29 28 26 26 24 23 23 23 23 24 26 27 26 27 25 25 26 28 30 27 28 28 26 25 24 24 25 25 26 26 26 27 26 25
24 30 26 25 26 27 29 30 30 30 27 27 26 24 23 22 22 21 22 22 22 24 24 24 23 23 24 27 28 25 24 26 25 24 23 24 23 23 23 24 25 24 24 23
25 26 25 24 26 27 27 28 30 28 28 27 27 25 25 23 22 21 21 21 21 22 22 22 22 22 23 25 26 27 30 27 24 23 23 22 22 22 22 23 23 22 23 23
27 24 22 20 26 25 26 28 29 29 26 25 23 23 23 22 21 20 20 21 20 20 20 19 20 20 20 21 23 25 27 27 26 23 20 20 19 18 18 18 20 22 22 21

GFSCGP_sfc_30mbdewp_093.txt.gz
Dewpoint
18 15 13 12 15 16 16 16 14 15 16 16 15 15 15 15 15 15 16 17 18 22 35 39 27 19 21 23 24 46 63 65 65 64 63 63 63 63 63 64 64 63 63 63
21 16 18 19 17 15 15 14 14 16 17 16 15 16 17 16 18 18 20 30 42 42 43 44 45 41 22 23 29 45 61 64 64 64 63 63 63 63 63 63 63 63 63 62
20 20 22 21 20 18 17 16 16 16 18 19 16 15 16 18 25 41 42 43 43 43 42 43 44 46 47 45 34 52 60 63 64 64 62 61 61 61 61 61 62 62 62 62
22 22 21 21 20 20 18 19 19 19 17 15 17 14 17 18 37 40 40 41 42 43 42 42 44 45 46 47 49 54 60 62 63 63 61 60 60 59 60 62 61 61 61 61
16 18 19 19 20 20 19 20 19 19 19 20 18 17 15 25 33 37 37 39 42 42 41 41 43 43 45 47 50 56 61 62 63 62 61 59 58 58 58 60 59 60 60 60
17 18 17 16 17 17 18 20 21 22 21 15 14 16 16 32 35 36 37 42 42 41 40 41 41 42 43 46 50 58 61 62 62 61 60 59 58 57 57 58 58 58 59 60
18 18 19 18 16 18 17 16 13 13 16 14 17 18 19 35 37 37 38 42 40 40 39 39 39 40 41 43 47 55 62 61 61 61 59 58 57 57 57 57 58 57 57 58
15 8 20 25 23 21 19 16 14 12 14 11 17 17 19 37 39 41 44 40 39 37 37 37 37 38 40 42 45 51 61 60 60 60 59 58 58 57 57 57 57 57 57 57
15 19 17 23 16 23 20 17 19 16 19 18 18 22 33 37 37 40 40 38 36 36 36 35 36 37 39 41 43 46 59 60 60 59 59 58 57 57 57 57 57 57 57 58
13 5 21 15 22 20 15 23 22 26 19 16 18 19 20 31 32 38 37 35 34 34 34 33 34 35 38 39 42 45 50 59 59 59 58 58 57 57 57 57 57 57 57 57
19 16 13 6 15 13 11 13 25 28 26 21 17 17 32 31 36 36 35 34 33 33 32 32 33 34 36 39 40 42 46 57 58 58 58 57 57 57 57 57 57 57 57 57
19 20 14 11 13 18 18 28 29 24 22 24 24 22 37 37 36 35 33 33 33 32 32 32 32 33 34 36 38 39 42 47 54 59 58 57 57 57 57 57 57 57 57 57
17 15 5 -1 11 17 19 17 17 20 26 23 22 21 33 36 35 34 33 33 32 31 31 31 31 31 32 34 36 37 39 42 46 56 58 57 57 58 58 58 57 57 57 57
21 18 12 6 7 17 17 18 19 18 16 20 21 22 30 34 36 34 32 32 31 31 30 30 30 31 31 33 34 35 37 40 43 46 52 55 57 57 56 56 56 55 54 53
21 16 19 19 20 16 14 14 15 17 17 16 16 21 24 33 33 33 32 31 30 29 29 30 29 30 31 31 33 34 36 38 41 41 42 44 47 49 49 49 47 46 45 45
23 16 17 15 12 9 15 17 17 18 17 17 16 15 35 34 34 31 30 29 28 29 29 29 29 30 30 30 31 33 34 36 38 37 37 39 39 40 40 41 40 40 39 39
17 15 14 8 15 17 12 19 27 20 17 20 17 25 33 30 28 27 28 28 28 28 28 28 29 29 30 30 31 31 32 34 35 35 35 34 35 35 35 35 35 35 36 36
16 17 15 13 13 6 16 30 30 29 29 32 33 32 31 28 27 28 28 27 27 28 27 28 29 29 29 30 31 31 31 31 32 32 33 34 33 32 32 32 32 32 33 33
19 17 15 12 15 14 18 27 26 25 26 29 30 30 28 28 26 25 28 28 28 29 29 29 30 30 29 29 30 30 30 29 29 30 30 32 33 32 31 30 29 30 30 30
23 20 18 20 15 12 22 26 29 30 22 28 28 27 31 28 27 23 28 29 29 30 30 30 30 30 30 30 29 28 27 26 27 28 29 30 31 31 30 29 29 29 29 28
23 22 18 18 17 18 25 28 31 20 21 26 25 25 27 23 25 27 29 28 29 28 28 27 27 28 29 29 27 25 25 24 26 27 28 28 29 30 30 30 29 29 28 27
23 20 20 21 19 16 27 27 21 26 28 27 25 25 24 25 25 25 25 26 26 25 25 25 26 26 27 27 26 25 24 26 26 26 25 25 26 27 28 28 27 27 27 26
21 24 21 21 20 28 28 27 29 30 28 27 25 25 23 22 21 21 21 22 23 24 24 23 24 24 26 27 24 24 25 25 24 24 24 24 24 25 26 25 25 25 25 25
25 28 25 24 25 25 28 28 29 28 26 26 26 24 22 20 20 20 19 20 19 20 21 22 22 21 22 25 27 26 25 24 23 22 23 23 23 23 24 24 24 23 23 23
24 25 25 24 26 27 27 28 28 27 27 26 26 24 22 20 20 20 19 19 18 19 19 20 20 20 21 23 24 26 28 25 23 22 22 22 21 22 23 23 23 23 24 24
26 24 22 19 26 25 25 28 29 26 25 25 23 21 22 20 19 19 19 19 18 18 18 18 18 18 19 20 21 23 26 27 23 20 20 20 19 20 20 21 23 26 26 26

GFSCGP_sfc_30mbdewp_096.txt.gz
Dewpoint
19 17 15 15 15 16 17 16 16 16 15 15 15 16 17 18 17 16 22 34 42 43 43 43 44 45 47 47 42 24 39 62 65 65 64 63 62 63 64 64 63 63 63 62
20 17 17 16 14 14 13 13 13 15 16 16 17 17 18 18 17 35 41 41 42 42 42 43 43 45 46 46 47 46 33 57 64 64 64 63 63 63 64 64 63 64 63 63
20 19 20 19 19 18 18 16 17 16 18 19 17 16 15 16 32 41 41 41 42 42 42 42 42 44 44 45 46 47 49 52 63 63 64 62 62 62 61 62 62 63 63 63
22 22 21 21 20 20 18 20 19 19 18 16 18 12 12 24 28 38 37 37 42 42 42 41 41 41 42 43 45 46 50 52 62 64 63 61 61 59 61 61 62 62 63 62
19 19 21 20 19 21 19 21 20 20 19 20 18 16 16 28 28 34 35 40 42 41 41 39 39 40 41 42 44 46 49 54 61 63 62 61 61 60 61 60 51 56 61 62
18 19 17 18 19 20 19 19 21 22 21 14 15 15 13 18 31 34 38 42 41 40 39 38 38 38 39 41 43 45 48 57 62 62 62 61 60 59 60 60 59 60 60 60
17 16 18 20 16 19 18 16 12 11 13 11 18 17 16 23 34 37 39 41 39 38 37 36 36 36 37 39 41 43 46 53 62 61 61 60 60 58 59 60 60 59 59 59
15 10 20 24 22 21 20 16 12 10 12 13 17 16 17 30 37 41 41 38 37 36 35 35 36 35 36 38 40 42 45 48 61 61 61 60 58 58 58 58 58 58 59 59
19 18 21 18 17 22 21 17 23 17 19 16 16 19 24 36 37 41 37 36 35 34 33 33 34 35 35 37 39 41 43 47 60 60 59 58 58 57 57 58 58 58 58 57
13 4 19 15 20 16 16 23 22 24 16 13 17 19 19 30 34 37 35 34 33 32 32 32 32 33 35 36 38 41 42 46 59 59 59 58 58 57 57 57 57 57 57 57
18 11 11 8 12 9 5 11 26 25 25 21 16 17 36 36 35 34 33 33 32 31 31 31 31 32 34 35 36 38 41 44 50 58 58 58 57 57 57 57 57 56 56 57
19 19 9 8 16 22 18 29 26 19 21 23 23 20 35 35 34 33 33 32 32 31 31 30 30 31 32 33 35 36 39 42 45 50 58 57 57 57 57 57 56 56 56 57
15 14 -1 5 14 13 18 17 20 20 22 18 17 17 32 36 35 34 33 32 31 30 30 30 29 30 31 32 33 35 37 40 42 46 53 57 57 57 57 56 56 56 56 56
20 17 4 -11 1 18 16 18 18 18 15 11 10 12 14 28 33 33 32 32 31 30 30 29 29 30 31 31 32 33 35 37 39 40 42 44 46 57 57 57 57 56 56 55
20 13 18 17 19 17 15 9 6 11 13 12 4 8 13 25 32 32 32 31 30 29 29 29 29 29 30 30 31 32 33 35 37 36 36 37 39 41 46 51 49 48 48 47
21 15 17 15 15 14 10 13 15 16 17 17 17 16 21 34 33 29 29 28 28 28 28 29 29 29 29 30 30 31 31 33 34 35 35 35 35 36 36 39 41 41 40 40
15 13 12 6 15 9 -2 12 26 26 27 27 19 18 31 29 27 26 27 27 27 27 27 28 28 28 29 29 30 30 30 31 32 32 33 34 34 33 33 33 35 36 36 36
17 15 14 11 10 -13 17 29 29 27 28 28 29 31 33 27 27 27 28 27 27 27 27 28 28 28 29 29 29 29 30 30 29 30 31 32 33 33 33 32 31 32 32 32
19 16 13 8 13 10 19 26 24 24 23 27 27 29 27 27 26 25 28 28 28 28 29 29 29 29 29 28 27 27 27 28 28 28 29 30 31 31 31 31 30 30 29 29
21 20 16 18 13 9 21 24 28 29 20 26 26 27 27 27 25 21 27 28 27 28 27 27 28 28 28 28 27 26 25 25 25 26 27 29 29 29 28 29 29 30 29 29
21 21 17 17 16 18 24 26 29 19 18 25 25 25 29 22 24 26 26 25 26 26 26 26 27 26 26 26 26 24 24 23 25 26 26 26 27 28 28 28 28 28 28 28
21 19 19 19 17 15 26 24 19 24 27 26 25 24 23 23 22 22 22 22 22 23 23 24 25 25 26 25 24 23 23 24 24 24 24 24 25 25 26 26 26 27 26 26
20 22 20 21 19 27 27 26 27 28 26 25 24 24 22 20 19 19 19 19 19 21 21 23 23 23 24 26 25 23 24 24 23 23 23 23 23 24 24 23 23 23 24 25
24 28 23 23 24 25 27 27 27 26 24 24 23 22 21 18 18 17 17 17 17 18 19 20 20 20 21 23 24 27 25 24 23 22 22 22 23 23 23 23 23 23 23 23
23 25 24 23 25 26 26 27 27 26 25 23 23 22 21 19 18 18 17 17 17 17 18 18 18 19 19 21 21 24 26 23 21 21 21 21 21 22 22 24 24 23 26 25
24 24 22 19 25 23 25 28 28 25 24 24 21 20 21 19 18 18 17 18 17 16 16 16 16 16 17 18 19 20 24 25 24 20 19 19 20 20 20 20 20 25 26 26

GFSCGP_sfc_30mbdewp_099.txt.gz
Dewpoint
21 19 16 15 17 16 18 17 16 17 17 14 15 16 18 20 19 18 22 41 41 41 43 42 43 43 45 46 47 48 48 48 42 61 62 61 62 63 63 63 63 64 64 63
18 17 18 18 17 15 15 14 12 14 16 17 18 18 19 19 19 22 39 39 41 42 41 41 42 43 44 44 45 46 48 48 48 54 61 61 61 63 63 64 63 64 63 62
16 19 20 17 15 14 15 13 17 17 18 20 18 16 16 17 33 41 41 40 42 42 40 40 41 41 42 42 43 44 46 47 49 51 60 62 62 63 63 63 63 63 63 62
22 22 19 18 17 18 16 19 19 19 18 14 18 10 14 21 27 37 37 41 41 40 40 39 40 40 40 41 41 42 44 47 49 52 58 60 59 58 61 62 63 63 63 62
24 22 22 21 20 21 19 22 20 20 19 19 18 15 16 24 28 32 37 41 40 40 38 38 38 38 38 39 39 41 43 45 49 54 56 61 60 60 61 62 62 62 62 62
21 20 21 22 22 22 21 21 23 23 21 15 15 13 11 16 27 32 37 41 39 38 37 37 37 37 37 37 39 40 42 44 47 55 57 61 60 60 61 60 61 62 61 57
17 17 18 19 16 20 19 17 10 12 15 9 17 16 12 19 32 37 40 39 37 36 35 34 34 35 36 36 37 40 41 43 46 51 59 61 60 60 61 60 60 59 57 56
13 13 21 19 22 19 18 16 9 7 10 11 19 15 17 31 40 40 38 36 35 34 33 33 33 34 35 36 37 38 40 42 45 49 61 61 61 61 61 61 57 57 57 59
18 19 23 18 18 22 21 17 23 17 19 14 13 18 27 36 40 37 36 35 34 33 32 32 32 33 34 35 36 38 39 41 45 49 61 61 60 59 59 61 61 59 60 60
14 11 20 16 21 11 21 25 24 24 12 7 13 17 19 33 35 35 34 34 33 32 31 31 31 32 33 35 36 37 38 40 44 49 60 59 59 59 59 59 59 59 59 59
20 10 11 12 12 9 2 10 27 26 25 17 12 17 33 33 34 33 33 33 32 31 31 30 31 31 32 33 35 35 36 39 43 45 57 58 58 58 58 58 58 58 58 58
20 15 5 11 19 20 23 26 25 11 17 23 23 20 34 35 34 33 32 32 32 31 31 30 30 31 31 32 33 33 35 37 41 42 49 57 58 58 58 57 58 58 57 57
15 9 -2 7 16 17 16 18 18 17 20 14 16 16 34 34 32 32 32 32 31 30 30 30 30 30 31 31 32 33 34 35 38 40 41 44 45 55 57 57 57 57 56 56
20 15 2 -5 10 16 13 17 17 15 17 12 11 7 6 10 23 30 31 31 30 29 29 29 29 29 30 30 31 31 32 34 35 37 38 38 40 41 47 57 57 57 56 56
19 12 16 15 18 18 17 14 12 9 8 6 -4 3 9 11 19 31 30 29 27 27 28 28 28 29 29 29 30 30 31 32 33 34 35 36 37 37 38 43 44 54 53 51
20 19 18 14 16 16 12 11 10 9 11 14 17 20 23 24 31 30 29 28 28 26 27 27 27 27 28 28 29 29 30 30 31 32 33 35 35 35 35 35 38 38 42 41
15 16 11 3 13 10 3 10 10 20 24 24 22 23 27 30 28 27 27 27 27 26 26 27 27 27 28 28 28 28 29 30 29 30 31 32 34 34 34 33 33 33 34 35
17 15 14 7 12 -6 22 26 27 25 25 27 26 29 30 28 27 27 28 27 27 27 26 27 27 27 28 28 27 27 28 28 28 27 29 30 31 32 33 33 32 32 31 32
19 17 14 10 11 10 23 25 23 23 22 25 24 28 26 26 25 25 28 28 26 26 26 27 27 27 27 27 27 26 25 26 26 26 27 28 29 28 30 31 31 31 30 29
20 20 16 17 12 8 20 22 25 28 19 24 24 24 25 26 23 21 25 26 25 26 26 26 27 27 25 26 26 24 24 24 24 25 26 27 28 27 27 28 29 30 30 28
20 19 17 16 16 18 24 25 26 18 18 24 24 23 28 21 23 23 24 23 24 25 25 25 25 25 27 26 25 24 23 23 24 26 25 26 27 27 27 27 28 28 27 27
21 19 17 17 16 14 25 22 18 23 26 25 24 23 21 21 21 21 21 20 22 22 23 23 23 23 24 26 24 23 23 25 24 24 25 25 25 26 26 26 26 27 28 26
19 23 20 21 19 26 27 25 26 27 24 24 23 23 22 19 18 18 18 19 19 21 21 21 21 21 22 23 24 23 24 24 23 23 23 25 25 25 26 26 25 25 26 26
25 27 23 23 24 25 26 27 26 26 23 24 23 22 21 18 18 17 17 17 17 18 19 19 19 19 20 22 23 24 23 21 22 22 22 23 23 24 25 24 25 25 25 25
22 24 24 23 25 26 26 26 26 25 24 23 23 22 20 18 18 17 17 17 17 17 18 18 18 18 19 20 21 22 24 23 18 19 21 21 21 21 21 24 25 25 27 26
23 22 22 20 25 24 25 27 27 24 23 23 20 19 19 18 17 17 17 17 17 16 16 16 16 16 17 18 19 20 21 22 22 20 17 20 20 20 19 20 21 23 26 26

GFSCGP_sfc_30mbdewp_102.txt.gz
Dewpoint
23 20 17 17 17 16 16 14 13 15 15 15 13 9 9 16 19 19 18 25 32 36 39 39 41 42 43 44 45 45 47 48 50 49 43 52 57 62 61 62 62 63 64 65
22 21 21 19 17 15 16 14 12 13 12 9 11 13 16 17 18 17 20 33 36 37 38 39 40 42 43 44 45 45 46 46 47 49 48 47 54 56 59 61 63 63 64 65
23 23 19 16 17 16 15 12 11 8 14 18 18 15 15 16 19 28 33 36 38 38 38 38 39 41 42 42 43 44 45 46 47 49 50 49 54 56 59 61 63 64 64 64
25 23 21 19 17 16 12 12 11 13 17 11 17 6 11 12 21 29 34 37 38 39 39 38 38 39 40 41 42 42 43 44 45 47 49 50 49 54 56 58 62 63 64 64
26 23 25 25 18 16 13 16 18 17 17 16 14 12 6 13 17 26 33 38 39 39 38 37 37 37 38 40 39 40 41 42 43 45 47 51 51 56 55 57 61 63 63 63
32 32 31 29 29 27 21 20 20 20 17 14 12 11 5 12 16 25 35 38 39 38 37 36 36 36 37 39 39 38 39 40 42 44 46 50 54 54 55 56 60 62 63 62
29 27 22 23 21 24 24 17 16 14 13 9 9 9 6 16 26 30 37 38 38 37 36 35 34 35 37 38 38 38 38 39 40 42 45 50 55 54 58 57 60 61 61 62
18 17 17 19 17 17 21 16 15 11 6 6 15 9 20 35 38 38 38 37 37 35 35 34 34 34 36 37 37 37 37 37 39 42 46 50 57 56 60 59 60 60 61 61
15 16 20 18 19 21 16 16 15 13 14 11 9 16 33 37 37 37 36 36 35 34 33 33 33 34 35 36 37 36 36 37 38 42 45 50 60 60 61 61 61 60 61 60
19 16 19 15 18 16 22 20 18 17 10 7 4 6 12 31 32 30 31 33 34 33 33 32 32 34 35 35 36 36 36 36 38 41 44 49 60 61 60 61 61 59 59 59
19 14 15 14 14 12 14 19 25 23 19 12 8 11 31 30 29 29 29 32 34 33 32 32 32 33 34 34 35 34 34 35 36 39 42 47 59 60 60 60 60 60 60 60
18 13 7 11 19 16 11 17 16 12 10 16 20 14 31 32 30 29 28 32 33 33 31 31 31 32 32 33 33 32 33 34 35 37 40 43 46 53 59 59 59 60 60 60
15 11 11 9 15 17 14 18 17 18 15 10 7 10 33 32 27 27 29 30 31 31 30 30 31 31 31 31 31 30 32 33 33 35 38 39 40 43 46 57 59 59 58 58
17 9 3 -0 10 15 15 15 14 16 14 6 6 2 19 14 5 14 27 30 30 29 29 29 29 30 30 30 31 30 30 32 32 33 35 36 38 39 40 44 52 57 57 57
17 6 8 11 12 11 11 11 9 6 4 2 -4 -4 -0 13 23 25 30 29 29 29 29 28 28 28 29 29 29 30 30 30 31 32 32 34 36 37 37 37 39 43 51 56
19 15 13 7 10 10 8 6 6 6 5 2 3 7 22 26 30 30 30 29 28 28 28 27 27 28 28 28 28 28 29 31 30 30 30 32 33 35 36 35 34 35 36 39
12 16 9 -4 7 6 -0 7 5 4 8 16 17 22 25 26 32 28 28 27 27 27 27 27 27 28 28 28 28 28 30 31 29 28 28 30 31 32 33 34 34 33 33 33
11 11 8 2 7 5 21 25 26 24 23 27 25 24 27 29 29 28 28 27 26 26 26 26 27 27 27 28 28 28 28 29 29 28 28 28 29 29 30 32 32 32 32 31
14 14 15 14 11 11 22 24 25 24 23 26 24 24 26 27 27 25 27 27 26 26 28 27 28 28 27 27 27 27 26 26 26 27 28 29 28 28 28 28 30 31 31 30
19 17 18 15 13 8 24 23 24 28 19 24 24 23 27 28 26 21 25 26 26 27 27 27 28 28 27 27 26 25 25 25 26 27 27 28 29 28 28 29 28 29 28 27
20 20 16 15 14 21 25 23 26 19 20 23 23 23 26 22 23 24 25 24 26 27 27 28 28 26 27 28 27 25 25 25 26 27 27 28 29 29 29 30 30 30 28 27
20 18 17 16 16 16 24 23 22 24 26 25 24 24 23 23 22 22 22 22 23 25 25 26 24 24 24 24 25 25 25 27 27 27 27 27 28 29 30 30 30 30 30 28
21 24 23 23 22 25 25 25 26 28 26 25 24 24 23 21 20 20 20 21 22 24 22 21 21 22 22 23 23 24 22 25 26 26 26 26 27 28 28 28 28 29 29 29
24 27 23 24 24 24 25 25 25 26 25 25 25 24 22 19 20 19 20 21 21 21 20 20 20 20 21 22 22 23 23 20 21 23 23 24 24 25 25 26 26 26 27 26
23 25 23 24 25 25 25 26 25 25 25 24 24 23 22 21 21 21 20 20 20 20 20 19 19 19 19 19 19 20 21 22 20 18 22 22 22 22 23 23 24 25 25 25
23 24 22 23 24 26 25 27 26 24 23 23 21 20 20 20 19 19 19 19 18 18 18 17 18 18 19 18 18 19 19 18 18 17 16 19 21 22 21 21 21 21 22 22

GFSCGP_sfc_30mbdewp_105.txt.gz
Dewpoint
26 25 25 26 27 25 24 24 24 19 19 18 16 15 14 15 14 12 16 18 19 26 34 36 40 41 43 43 44 45 46 47 47 47 47 46 43 50 56 59 60 63 64 66
24 26 26 26 25 25 25 22 22 23 21 16 15 14 12 11 11 15 17 18 24 32 33 37 38 40 42 43 44 45 45 46 46 46 47 48 49 47 51 56 59 62 64 66
21 25 26 26 27 30 30 26 20 24 26 18 14 10 12 15 16 16 17 23 32 33 35 36 37 39 40 41 43 44 44 45 46 47 47 48 49 50 51 57 58 59 63 65
23 24 26 26 28 30 28 28 21 24 19 12 14 12 14 14 14 16 25 31 33 36 36 36 37 38 39 39 42 43 43 44 44 46 46 47 48 48 44 50 55 59 61 63
27 26 26 25 27 25 29 26 26 25 16 14 15 15 13 12 13 20 27 31 36 37 36 37 36 37 37 39 41 42 42 42 44 44 45 46 48 49 50 50 53 58 61 63
34 37 32 26 24 27 32 30 24 23 18 17 21 17 14 13 12 20 29 34 37 37 37 36 36 36 36 38 40 41 41 41 42 42 42 44 46 48 51 50 53 56 62 63
32 31 34 31 30 29 31 31 22 20 21 20 15 15 17 16 15 23 32 35 37 37 36 34 34 35 36 37 39 40 40 40 40 40 41 43 45 47 50 52 54 56 61 62
29 27 30 30 28 29 27 28 20 17 16 16 16 15 26 31 34 36 36 37 36 34 34 34 34 35 35 36 38 39 38 38 38 39 40 42 45 48 51 53 55 57 60 62
23 19 20 21 22 22 29 24 21 19 19 16 22 26 34 35 35 35 35 34 33 32 33 34 34 34 35 36 37 38 37 38 37 38 39 41 44 48 55 57 57 59 61 61
26 22 19 18 18 19 21 25 17 21 18 10 13 17 22 33 32 31 29 30 29 30 31 33 33 34 34 35 36 37 37 36 36 37 37 40 43 47 56 57 58 59 60 61
23 21 20 17 16 17 17 28 26 27 22 16 13 21 34 33 30 28 28 28 27 29 30 31 32 33 34 34 35 35 35 35 35 35 37 39 41 44 49 58 58 58 59 60
24 22 19 15 19 18 16 14 22 24 18 24 16 20 33 30 29 25 24 25 27 29 30 31 32 32 33 33 33 34 33 34 34 34 35 37 38 41 44 47 55 59 59 60
21 19 13 12 15 15 12 12 15 17 17 9 10 17 31 29 24 17 12 26 27 29 29 30 31 31 31 32 32 32 32 32 33 33 34 35 36 39 40 41 45 59 59 60
22 16 14 12 13 14 13 11 12 13 14 7 5 2 21 8 9 20 27 29 28 29 30 29 29 30 30 30 31 31 33 32 32 32 32 32 34 36 38 39 40 41 48 59
19 15 11 8 9 8 10 11 10 8 8 4 0 -2 -1 19 23 29 28 29 28 28 28 28 28 29 29 29 29 30 31 32 31 30 30 31 32 34 36 37 37 37 37 39
17 12 13 8 8 7 3 2 2 2 2 2 0 -1 24 25 27 31 30 29 27 27 27 27 27 27 28 28 28 29 29 30 31 30 29 30 31 31 32 34 35 35 35 34
15 17 9 -2 5 2 -4 4 3 1 -0 6 7 21 23 27 29 29 29 27 26 26 26 27 26 27 28 28 28 29 28 29 30 30 30 30 30 30 30 31 32 33 33 33
12 11 7 1 4 -3 19 23 23 22 20 24 23 23 24 27 27 27 28 27 25 26 26 27 27 27 28 30 28 28 28 27 28 29 29 30 30 30 30 29 29 29 30 31
9 9 11 12 5 12 18 22 26 24 25 26 24 24 24 26 26 24 25 26 26 27 28 28 28 29 29 30 28 27 27 26 27 28 28 30 30 30 30 29 28 28 27 27
16 18 17 13 11 7 24 22 23 27 19 23 24 24 23 26 25 22 25 26 27 28 29 29 29 29 29 29 28 27 26 26 27 28 29 30 31 31 30 30 30 30 29 27
18 19 16 13 12 22 25 23 26 20 20 24 24 24 26 27 24 25 26 25 27 28 28 30 28 28 29 29 28 27 27 27 28 28 29 29 30 30 31 32 31 31 31 30
17 15 14 13 16 18 24 24 22 25 26 24 24 25 25 24 23 23 24 24 25 27 28 29 28 27 24 24 25 26 26 29 29 29 28 28 28 30 29 29 31 31 31 30
22 27 26 23 23 25 25 25 26 26 25 26 25 25 24 22 22 22 22 23 24 25 26 23 22 21 21 22 22 23 24 24 27 27 27 27 27 27 28 26 26 27 28 28
24 27 25 24 25 24 25 25 26 26 25 25 25 25 24 21 22 22 22 23 23 23 21 20 20 19 19 19 19 19 20 20 20 22 24 24 25 25 24 24 24 23 24 25
23 25 24 24 24 24 24 25 25 25 25 25 25 23 23 23 22 21 21 22 22 21 20 19 18 18 16 16 17 18 18 18 17 17 19 20 23 23 24 22 22 22 23 23
24 27 24 26 25 27 25 26 25 24 24 24 21 21 21 21 21 20 20 20 20 20 19 19 18 18 17 16 17 18 19 18 18 17 17 19 19 19 19 20 23 21 20 19

GFSCGP_sfc_30mbdewp_108.txt.gz
Dewpoint
28 26 25 22 22 24 24 23 24 24 25 27 27 26 20 20 20 18 18 17 17 20 35 38 41 43 43 44 46 46 46 48 49 49 49 48 49 51 50 54 60 63 65 66
24 20 20 21 22 24 25 27 27 29 27 25 27 30 32 19 18 18 16 15 19 22 33 37 38 41 42 43 44 44 45 46 46 47 49 49 50 50 52 53 54 60 61 64
23 22 21 21 24 23 23 23 26 27 27 27 27 30 29 25 18 15 16 15 20 31 34 36 37 39 41 42 43 43 44 44 45 46 47 48 49 49 50 51 50 52 60 62
25 24 23 20 23 23 22 26 27 27 28 27 28 26 27 22 19 15 14 19 32 35 35 35 37 38 39 41 42 43 43 43 43 45 45 45 46 46 48 50 52 51 60 61
26 25 26 23 22 21 25 32 32 33 31 28 27 25 23 21 21 21 24 31 36 36 36 36 36 36 37 40 41 42 42 42 42 43 43 42 43 45 47 49 50 53 53 60
31 36 35 31 30 28 33 33 31 32 30 24 24 22 25 25 22 18 28 36 36 36 36 34 35 36 37 39 40 41 40 40 41 41 41 40 41 42 44 46 48 50 53 56
29 31 32 32 29 26 29 31 24 22 23 19 20 23 26 27 33 24 38 37 36 36 35 34 34 35 36 37 38 39 39 39 40 39 39 39 40 41 42 44 46 48 52 56
23 24 28 32 28 26 26 29 22 18 20 18 22 27 29 39 39 41 42 40 34 34 34 34 34 35 35 36 37 38 38 38 38 38 38 38 39 41 43 45 47 49 52 55
23 23 28 29 29 28 31 29 28 24 25 25 27 27 32 39 38 39 40 37 31 31 31 32 32 34 35 36 37 37 37 36 36 37 37 37 39 41 43 45 47 51 53 55
31 22 28 27 26 25 28 29 28 28 20 19 17 23 30 34 35 33 33 30 28 28 29 30 32 33 34 35 35 36 36 34 36 36 36 36 38 40 42 45 47 53 56 58
32 22 25 26 21 16 20 20 31 32 22 21 16 27 37 35 36 32 28 26 27 28 29 30 31 33 33 34 34 34 35 34 34 34 35 36 36 38 40 41 43 45 49 57
28 23 21 21 18 18 19 19 30 28 26 29 27 25 38 37 34 26 23 25 27 28 29 30 31 31 32 32 32 33 33 33 32 32 34 34 34 36 37 38 41 44 44 51
25 23 17 22 21 17 16 19 17 21 19 14 12 16 37 32 24 25 27 27 28 29 29 29 29 30 30 31 31 32 32 33 32 31 32 32 32 33 35 36 38 40 41 44
25 20 19 19 21 17 15 13 12 12 17 12 10 18 28 21 21 28 28 28 28 28 28 28 28 28 29 29 30 31 31 32 32 31 31 31 31 32 33 34 36 37 38 39
22 19 17 16 10 9 12 9 9 8 8 10 9 3 22 26 30 29 29 28 27 27 27 27 27 27 28 28 29 30 30 31 31 30 30 30 31 31 31 32 33 34 36 36
24 22 20 15 11 8 5 2 2 5 5 1 -0 3 27 29 30 29 29 28 27 26 26 26 26 27 28 28 29 29 30 30 30 30 30 31 31 31 30 30 30 30 32 33
19 18 13 9 9 4 -1 6 1 4 3 9 5 23 24 27 27 28 28 26 26 25 25 25 26 27 27 30 30 29 29 30 31 30 30 30 31 31 31 30 29 28 28 29
17 15 11 5 5 -3 19 22 21 21 26 25 24 23 26 27 26 26 26 25 24 25 25 25 27 28 29 31 30 30 28 28 30 29 29 31 31 31 31 30 29 28 27 26
12 12 7 7 4 16 17 22 24 23 26 25 24 24 27 27 25 25 24 25 26 27 29 28 29 30 30 30 30 30 28 28 28 28 29 30 31 30 31 30 30 30 28 26
9 11 16 13 11 6 23 21 23 26 20 23 24 23 23 28 24 21 25 26 27 28 29 29 29 30 30 31 31 29 27 27 28 28 28 29 31 29 29 30 30 31 31 29
14 16 15 14 11 23 26 22 25 20 20 25 23 24 28 24 25 25 24 25 28 28 29 30 30 29 29 31 31 30 27 28 29 28 28 27 28 28 28 28 30 30 30 29
14 14 14 14 12 15 25 24 23 25 26 25 23 25 24 24 23 22 23 24 26 27 29 29 28 27 26 22 23 24 27 29 30 29 28 27 25 26 26 25 25 26 27 26
24 28 26 24 23 25 26 26 27 29 26 25 23 23 23 22 21 22 22 23 24 26 27 26 21 18 18 19 19 19 20 22 23 26 26 27 26 24 24 23 22 23 23 24
25 27 25 25 24 24 24 25 25 25 24 24 25 23 23 22 23 23 23 23 23 24 20 19 17 16 16 17 18 19 19 18 19 20 21 23 24 26 23 22 21 20 21 21
22 24 24 25 25 25 24 25 25 24 24 23 23 23 23 23 24 23 22 22 22 22 21 19 18 17 16 16 18 18 20 19 19 20 20 21 21 21 24 22 21 20 19 19
26 28 23 27 25 28 25 25 25 24 24 23 22 22 22 22 22 22 22 21 20 20 19 19 19 18 17 16 18 21 21 21 20 20 20 20 21 21 21 21 23 22 21 19

GFSCGP_sfc_30mbdewp_111.txt.gz
Dewpoint
33 30 27 29 30 28 26 24 22 23 27 28 28 29 29 30 31 31 22 19 19 34 41 43 43 43 44 44 44 45 45 46 46 47 47 47 48 49 50 50 51 53 61 65
30 27 28 28 27 25 22 21 23 25 25 27 27 28 29 29 30 31 30 19 21 38 40 41 42 42 43 43 44 44 44 44 45 46 46 47 47 49 49 51 51 51 52 54
27 26 26 24 22 20 20 22 23 22 24 28 28 26 27 27 29 31 30 21 23 37 38 39 39 41 42 42 43 43 43 42 42 43 44 44 44 45 46 47 48 49 51 53
26 27 27 26 24 23 21 24 29 30 30 27 31 24 26 27 27 29 32 26 36 38 37 37 38 39 40 41 42 41 41 41 41 42 42 41 41 41 43 44 46 47 48 50
27 27 26 28 28 30 27 32 32 32 30 29 27 27 24 26 24 26 32 34 37 36 35 36 36 38 39 40 40 40 40 40 40 40 40 39 39 40 41 42 43 45 47 49
29 34 34 34 32 30 32 32 30 30 31 24 24 24 22 22 27 34 37 36 35 34 35 35 36 37 37 38 39 38 38 38 39 38 38 38 38 38 39 40 41 43 45 47
30 31 33 34 32 31 33 28 23 21 23 19 19 25 25 27 33 39 40 39 35 34 34 35 35 36 36 37 37 37 36 35 36 37 37 37 37 38 39 40 42 43 45 47
26 23 27 33 32 28 29 27 22 17 19 23 27 26 27 40 43 42 40 39 36 33 33 34 35 35 35 36 37 36 35 34 35 36 36 36 37 38 38 41 42 43 44 47
25 22 29 29 31 31 30 28 28 26 24 21 21 28 35 36 40 40 37 36 32 30 32 33 34 34 34 34 35 34 35 34 33 34 35 35 36 37 37 39 41 43 46 48
29 24 27 29 31 31 29 30 27 28 19 18 19 25 26 31 33 36 35 30 31 33 31 32 33 33 33 33 34 34 33 34 33 33 33 34 35 35 36 38 40 41 43 46
31 28 25 26 29 27 27 28 30 31 29 22 19 26 32 31 34 34 34 31 29 29 30 31 31 31 32 32 32 33 32 33 33 32 32 33 33 34 35 36 37 39 40 43
32 29 23 23 27 29 24 25 27 26 24 28 27 27 37 35 36 36 29 29 29 29 29 29 29 30 30 30 30 31 32 32 32 32 32 32 32 33 33 34 35 37 38 40
36 31 23 20 25 27 23 20 27 28 29 22 15 24 36 37 32 29 28 28 28 28 28 28 28 28 29 29 30 30 31 31 31 31 31 31 32 32 31 32 33 34 35 37
28 25 20 17 23 26 18 17 19 22 16 15 13 27 32 29 29 29 28 27 27 27 27 27 27 27 28 28 29 30 30 30 30 30 31 31 32 32 31 31 30 31 32 33
27 24 21 20 24 16 10 11 14 16 14 11 12 23 30 30 29 28 28 27 26 26 26 26 26 27 27 28 29 29 29 30 30 30 30 30 31 32 30 29 29 28 29 30
27 25 21 20 18 10 8 7 4 4 5 5 22 26 29 29 29 28 27 26 25 25 25 25 26 25 27 27 29 29 29 29 29 30 30 31 31 31 31 29 28 27 27 27
23 21 20 20 16 13 5 14 15 20 25 23 19 27 27 26 26 26 26 26 25 25 24 25 27 27 28 29 30 29 30 31 30 30 30 31 30 31 31 30 29 28 27 26
23 20 18 10 6 6 20 23 24 26 26 25 24 26 26 26 26 25 26 25 25 25 25 26 27 28 29 30 30 30 30 30 29 28 29 30 29 29 30 30 30 30 29 28
21 18 9 7 8 19 20 24 21 22 24 24 24 27 26 25 24 24 26 26 26 27 28 27 29 29 30 30 31 31 29 29 28 27 28 29 28 27 27 27 29 30 28 27
12 15 13 14 12 9 21 25 27 26 18 24 24 23 27 25 21 20 25 26 27 28 28 28 29 29 29 30 31 30 29 29 28 27 25 26 26 25 25 25 27 28 28 27
11 15 15 15 15 22 26 25 26 15 16 24 24 25 26 22 23 25 26 26 28 29 29 29 29 28 28 29 28 28 29 28 29 29 27 25 25 23 22 23 24 24 24 23
15 15 16 17 15 16 26 26 22 25 26 24 25 24 22 23 23 24 24 24 26 27 28 28 26 26 24 20 20 21 23 24 26 27 28 25 24 24 23 21 20 22 22 21
19 25 23 24 22 25 26 26 28 27 25 25 25 25 24 23 22 22 22 23 24 26 27 25 19 17 18 19 19 20 20 22 22 22 24 26 25 23 23 21 20 17 18 19
27 29 23 23 23 24 25 26 27 27 25 24 24 24 22 21 22 22 22 23 23 23 20 18 17 16 17 19 21 21 21 20 21 20 21 22 22 23 22 21 20 19 18 17
24 26 25 25 25 24 25 25 25 25 24 24 23 23 23 22 22 22 22 22 21 20 20 19 19 18 17 18 20 21 23 22 21 22 21 21 21 22 22 23 23 22 21 19
29 25 22 24 25 25 26 26 25 24 23 24 24 24 25 24 23 22 21 21 20 19 19 18 18 17 16 17 17 19 21 23 21 22 22 21 21 22 22 21 22 25 21 17

GFSCGP_sfc_30mbdewp_114.txt.gz
Dewpoint
33 29 28 28 30 29 27 26 26 26 24 25 24 25 27 28 29 27 27 30 31 40 43 44 44 43 44 44 43 43 43 44 43 44 44 44 45 45 47 48 49 51 53 54
33 31 32 31 29 29 29 28 25 23 23 24 24 25 27 28 27 26 27 29 39 41 41 42 42 42 42 42 42 41 41 41 41 42 43 44 43 45 45 47 47 48 49 50
29 28 28 29 28 27 26 24 22 21 28 27 26 26 25 25 26 27 28 28 38 41 40 40 41 41 41 40 40 40 40 40 41 41 41 40 41 42 42 42 43 45 46 47
29 29 28 27 26 26 24 29 29 29 27 23 30 22 22 23 24 26 27 36 40 40 38 39 39 39 39 39 39 39 39 39 39 39 39 39 38 38 39 40 42 42 44 45
28 27 27 26 26 29 28 32 30 30 28 29 25 26 20 22 23 25 37 41 41 40 39 37 37 38 38 38 38 37 36 36 37 38 38 38 37 38 38 39 40 41 43 45
29 33 30 29 31 30 34 30 29 30 30 22 21 23 21 23 30 35 40 39 39 38 36 36 36 37 37 36 36 35 34 34 35 36 36 36 36 36 37 38 39 41 43 44
30 30 34 35 32 32 31 27 23 19 20 17 24 23 23 38 39 40 37 37 38 36 36 35 34 35 35 35 34 34 34 33 33 34 35 35 35 36 37 37 39 39 41 43
25 22 31 33 31 29 30 28 22 15 18 21 24 20 30 36 35 38 38 38 38 36 35 34 34 33 33 34 33 32 33 33 33 33 33 34 35 36 36 36 37 38 40 42
25 25 28 32 33 29 29 26 27 26 25 21 20 28 33 33 32 33 33 34 35 36 34 33 33 32 32 33 33 32 33 33 33 32 33 33 34 34 35 35 37 38 39 40
28 24 27 29 31 31 29 30 26 27 18 18 20 25 25 30 31 32 32 32 32 34 33 32 32 31 31 31 32 32 32 32 32 32 32 33 33 34 34 35 35 36 37 38
30 28 27 30 29 29 30 28 30 27 27 21 19 23 32 32 33 32 32 33 32 29 29 29 30 31 30 30 31 31 31 31 31 31 31 31 31 32 33 33 33 34 35 36
35 31 28 25 30 30 29 28 30 24 22 28 23 25 36 35 36 32 31 31 30 29 28 28 28 28 29 29 30 30 30 30 31 31 30 30 31 31 31 31 31 32 32 34
36 32 26 26 27 28 27 25 27 28 30 25 20 23 37 37 33 28 27 27 27 27 27 27 27 27 28 29 29 30 29 30 30 31 30 31 30 30 30 29 30 30 30 30
38 32 29 22 23 24 21 21 26 28 25 21 19 27 32 32 28 27 26 26 26 26 26 26 26 25 27 28 28 28 29 30 30 30 30 30 30 30 30 29 29 28 29 28
32 28 27 24 25 24 20 10 15 22 23 18 19 27 30 29 28 27 26 25 25 25 25 24 24 25 26 27 27 28 28 29 29 29 29 30 30 31 30 30 31 29 28 28
30 27 29 27 25 17 8 8 6 5 15 26 27 27 30 29 27 26 25 25 24 23 24 25 24 24 25 26 27 27 27 28 28 28 29 29 29 29 30 30 29 29 27 27
28 29 26 23 27 25 16 11 18 24 25 25 21 25 27 25 25 25 26 25 24 23 24 25 26 26 27 28 29 28 28 28 27 27 27 28 28 28 28 29 29 29 28 26
25 26 25 21 23 16 21 27 26 25 25 27 27 27 26 25 25 25 26 25 25 24 24 26 27 28 29 30 30 30 29 29 26 26 26 27 26 26 27 27 27 26 28 26
24 27 23 17 15 20 22 24 25 22 23 25 27 26 25 25 23 24 25 26 26 27 26 27 28 29 28 28 30 30 29 29 27 25 24 24 23 22 23 23 24 25 24 24
25 22 17 15 10 11 21 25 26 22 14 24 26 26 25 23 20 20 26 27 26 27 28 27 28 26 26 27 28 29 29 28 28 26 25 24 24 22 20 20 22 23 22 21
16 15 12 13 13 21 25 27 26 14 16 24 24 24 26 24 22 24 26 26 27 28 27 26 26 25 25 26 26 23 23 23 26 29 26 24 24 23 22 20 19 20 20 20
16 12 14 17 16 15 26 26 21 22 25 25 23 23 22 23 23 23 23 24 26 26 25 24 23 22 22 21 22 22 22 23 24 24 26 25 24 23 22 21 20 19 19 18
12 17 18 22 18 26 27 27 27 25 24 25 22 23 22 21 22 21 22 23 24 24 23 18 17 18 19 21 22 21 22 23 22 22 23 23 24 23 22 21 20 19 19 19
28 26 22 22 24 25 27 28 27 26 25 26 25 23 22 21 20 21 21 21 21 20 18 17 16 17 18 20 20 21 22 22 21 20 21 22 22 22 23 22 21 18 16 19
26 25 25 24 25 25 27 26 26 25 26 25 24 22 21 21 21 21 20 20 19 19 19 18 16 17 17 18 19 19 21 22 21 22 21 21 22 22 22 23 24 18 16 19
29 25 21 19 24 23 25 26 26 25 24 23 22 22 22 22 21 21 20 19 18 17 16 14 14 14 15 15 15 17 19 21 19 19 21 20 20 19 20 19 19 22 14 14

GFSCGP_sfc_30mbdewp_117.txt.gz
Dewpoint
32 30 28 29 29 28 28 27 26 27 28 27 25 24 24 25 27 27 27 27 29 42 43 43 43 43 42 41 41 41 41 41 42 42 42 43 41 44 43 46 45 46 48 49
33 31 31 31 29 29 29 27 28 28 27 25 24 24 26 26 26 26 26 28 39 42 42 41 41 40 40 40 40 40 40 40 40 41 41 41 40 43 42 42 42 44 44 45
32 29 31 32 31 29 29 28 28 26 28 28 27 24 22 23 24 25 26 28 37 41 40 40 38 38 38 38 38 38 38 38 38 39 39 39 39 39 40 39 40 42 43 44
30 31 28 28 29 29 27 27 28 28 26 23 28 20 21 23 32 37 40 40 39 39 38 38 37 37 37 35 35 35 35 36 37 37 37 38 38 37 38 38 40 41 42 44
28 28 28 28 27 27 26 31 29 29 28 27 27 24 23 32 34 38 39 39 39 39 38 37 37 36 35 36 35 34 33 34 35 35 36 36 36 37 38 38 38 40 42 43
29 32 29 28 29 29 33 30 29 31 28 22 22 22 21 30 31 35 39 37 37 37 36 36 37 36 35 33 33 34 33 33 34 34 35 35 35 36 36 37 37 38 39 41
29 29 32 33 30 33 30 27 26 22 21 18 24 23 28 31 32 35 34 35 35 36 36 35 33 33 33 32 32 33 33 33 33 33 33 34 34 35 35 36 36 37 38 40
24 21 32 34 31 30 29 28 24 16 16 19 24 18 28 33 35 34 34 34 33 33 33 33 34 32 32 32 32 32 32 32 33 33 33 33 34 34 35 35 35 36 37 38
25 25 29 33 32 31 29 27 27 25 26 22 20 29 32 34 33 33 33 33 32 32 32 32 32 33 31 31 31 31 31 31 32 32 33 33 33 34 34 34 34 34 35 36
27 24 28 30 32 31 29 29 24 26 17 17 19 24 25 29 30 32 31 31 31 32 32 32 32 32 32 32 32 30 31 31 31 31 32 32 32 33 32 33 32 32 33 34
29 27 26 31 29 28 29 28 28 26 24 18 19 21 29 31 33 31 32 32 31 31 31 30 30 31 31 31 31 30 30 30 30 31 31 32 32 31 30 30 30 30 31 32
33 31 27 27 29 31 30 28 30 22 22 26 23 21 33 35 35 34 32 31 31 30 30 30 30 29 28 29 29 29 29 29 29 31 31 31 31 31 30 29 29 29 29 30
35 30 26 26 29 32 32 29 29 29 28 25 21 21 36 35 35 31 28 27 27 26 26 26 26 26 27 27 28 28 28 28 29 30 30 30 30 30 30 29 29 29 29 29
36 32 26 20 23 28 29 30 29 29 26 24 24 26 32 34 27 26 26 26 26 26 25 24 25 25 26 27 27 27 28 28 29 29 29 29 29 30 30 29 28 27 27 27
33 27 30 31 30 31 30 30 29 26 27 24 22 26 31 31 27 26 26 25 24 24 24 24 24 26 26 27 27 27 27 28 28 28 28 28 28 28 28 28 28 27 27 26
32 26 28 26 28 26 26 21 8 21 25 26 24 29 30 28 27 27 26 25 23 23 23 24 24 26 26 27 28 28 28 28 28 27 27 26 26 26 26 27 26 27 25 25
29 28 27 23 28 30 25 22 14 22 25 26 23 27 29 28 27 26 26 24 23 22 23 23 24 26 27 29 29 28 29 26 24 24 24 23 23 23 24 24 24 24 24 24
28 29 28 23 26 17 23 27 26 23 25 28 27 29 27 26 26 26 25 25 23 24 24 23 25 24 27 28 30 30 30 28 24 24 24 23 21 20 20 21 22 22 21 22
28 27 24 20 20 21 22 25 24 20 22 27 27 26 25 25 24 23 25 25 25 24 26 26 27 26 27 27 28 30 29 29 25 24 24 24 22 20 19 18 19 20 21 20
28 27 24 22 17 15 18 25 27 20 15 26 26 24 23 22 19 20 25 26 25 27 27 25 25 24 24 26 27 26 26 25 27 24 24 23 23 21 20 19 19 19 19 20
26 25 21 20 16 18 25 26 25 11 12 25 26 25 23 22 21 25 27 25 26 27 25 25 24 23 24 25 24 23 22 23 25 26 24 23 23 21 21 21 20 20 20 19
20 21 19 17 16 12 26 26 21 22 25 24 23 24 26 23 24 24 25 25 26 24 23 23 21 22 22 22 22 22 23 22 23 23 23 23 23 23 22 19 18 19 19 19
17 19 15 19 17 25 28 26 26 25 24 22 22 23 23 22 22 22 22 22 23 22 20 18 18 19 20 21 21 21 22 21 21 22 22 23 23 23 23 19 16 18 19 19
26 25 20 21 24 26 28 27 26 25 24 23 22 22 21 20 20 19 20 19 18 18 17 17 18 18 18 19 19 20 21 22 22 21 21 21 22 22 23 19 16 16 18 18
26 25 24 23 25 26 27 27 26 26 25 23 23 21 19 19 19 19 18 18 18 17 17 17 17 17 17 17 17 18 20 20 19 20 20 19 19 19 20 21 16 15 15 15
27 25 22 19 24 23 25 26 26 25 24 24 22 21 21 20 20 19 18 18 17 15 14 14 15 14 14 14 15 17 19 19 18 18 16 17 18 17 17 17 14 15 13 13